<?xml version="1.0" encoding="UTF-8" standalone="no" ?>
<gpx xmlns="http://www.topografix.com/GPX/1/1" xmlns:xsi="http://www.w3.org/2001/XMLSchema-instance" xsi:schemaLocation="http://www.topografix.com/GPX/1/1 http://www.topografix.com/GPX/1/1/gpx.xsd" version="1.1" creator="VisuGPX - https://www.visugpx.com">
  <metadata>
    <name>Vaugneray Cyclisme</name>
  </metadata>
  <trk>
    <name><![CDATA[Vaugneray Cyclisme]]></name>
    <trkseg>
      <trkpt lat="45.73714" lon="4.65535">
        <ele>394.79998779297</ele>
        <time>2022-03-16T09:31:26.000Z</time>
      </trkpt>
      <trkpt lat="45.737" lon="4.65547">
        <ele>394</ele>
        <time>2022-03-16T09:31:32.000Z</time>
      </trkpt>
      <trkpt lat="45.73685" lon="4.65556">
        <ele>394.20001220703</ele>
        <time>2022-03-16T09:31:38.000Z</time>
      </trkpt>
      <trkpt lat="45.73674" lon="4.65564">
        <ele>394.39999389648</ele>
        <time>2022-03-16T09:31:43.000Z</time>
      </trkpt>
      <trkpt lat="45.73665" lon="4.65553">
        <ele>393.39999389648</ele>
        <time>2022-03-16T09:31:46.000Z</time>
      </trkpt>
      <trkpt lat="45.73661" lon="4.65547">
        <ele>393.20001220703</ele>
        <time>2022-03-16T09:31:47.000Z</time>
      </trkpt>
      <trkpt lat="45.73646" lon="4.65529">
        <ele>391.79998779297</ele>
        <time>2022-03-16T09:31:50.000Z</time>
      </trkpt>
      <trkpt lat="45.73637" lon="4.65516">
        <ele>389.79998779297</ele>
        <time>2022-03-16T09:31:53.000Z</time>
      </trkpt>
      <trkpt lat="45.73627" lon="4.65503">
        <ele>387.79998779297</ele>
        <time>2022-03-16T09:31:57.000Z</time>
      </trkpt>
      <trkpt lat="45.73612" lon="4.65484">
        <ele>383.60000610352</ele>
        <time>2022-03-16T09:32:02.000Z</time>
      </trkpt>
      <trkpt lat="45.73609" lon="4.65481">
        <ele>382.60000610352</ele>
        <time>2022-03-16T09:32:03.000Z</time>
      </trkpt>
      <trkpt lat="45.736" lon="4.65469">
        <ele>380</ele>
        <time>2022-03-16T09:32:05.000Z</time>
      </trkpt>
      <trkpt lat="45.73581" lon="4.65435">
        <ele>374.60000610352</ele>
        <time>2022-03-16T09:32:09.000Z</time>
      </trkpt>
      <trkpt lat="45.73563" lon="4.65401">
        <ele>374.39999389648</ele>
        <time>2022-03-16T09:32:13.000Z</time>
      </trkpt>
      <trkpt lat="45.7356" lon="4.65392">
        <ele>375</ele>
        <time>2022-03-16T09:32:14.000Z</time>
      </trkpt>
      <trkpt lat="45.73554" lon="4.65373">
        <ele>376</ele>
        <time>2022-03-16T09:32:17.000Z</time>
      </trkpt>
      <trkpt lat="45.73548" lon="4.6536">
        <ele>376.60000610352</ele>
        <time>2022-03-16T09:32:20.000Z</time>
      </trkpt>
      <trkpt lat="45.73544" lon="4.65358">
        <ele>377</ele>
        <time>2022-03-16T09:32:23.000Z</time>
      </trkpt>
      <trkpt lat="45.73539" lon="4.6536">
        <ele>377</ele>
        <time>2022-03-16T09:32:25.000Z</time>
      </trkpt>
      <trkpt lat="45.73532" lon="4.6536">
        <ele>377.20001220703</ele>
        <time>2022-03-16T09:32:27.000Z</time>
      </trkpt>
      <trkpt lat="45.7353" lon="4.6536">
        <ele>377.20001220703</ele>
        <time>2022-03-16T09:32:28.000Z</time>
      </trkpt>
      <trkpt lat="45.73523" lon="4.6536">
        <ele>377.20001220703</ele>
        <time>2022-03-16T09:32:30.000Z</time>
      </trkpt>
      <trkpt lat="45.73521" lon="4.6536">
        <ele>377.20001220703</ele>
        <time>2022-03-16T09:32:31.000Z</time>
      </trkpt>
      <trkpt lat="45.73515" lon="4.65362">
        <ele>377.20001220703</ele>
        <time>2022-03-16T09:32:33.000Z</time>
      </trkpt>
      <trkpt lat="45.73499" lon="4.65368">
        <ele>377.20001220703</ele>
        <time>2022-03-16T09:32:37.000Z</time>
      </trkpt>
      <trkpt lat="45.73481" lon="4.6537">
        <ele>377.79998779297</ele>
        <time>2022-03-16T09:32:42.000Z</time>
      </trkpt>
      <trkpt lat="45.73467" lon="4.65365">
        <ele>377.60000610352</ele>
        <time>2022-03-16T09:32:47.000Z</time>
      </trkpt>
      <trkpt lat="45.73463" lon="4.65362">
        <ele>377.60000610352</ele>
        <time>2022-03-16T09:32:49.000Z</time>
      </trkpt>
      <trkpt lat="45.73459" lon="4.65356">
        <ele>377.60000610352</ele>
        <time>2022-03-16T09:32:52.000Z</time>
      </trkpt>
      <trkpt lat="45.73455" lon="4.6535">
        <ele>377.60000610352</ele>
        <time>2022-03-16T09:32:55.000Z</time>
      </trkpt>
      <trkpt lat="45.73452" lon="4.65344">
        <ele>377.79998779297</ele>
        <time>2022-03-16T09:32:58.000Z</time>
      </trkpt>
      <trkpt lat="45.73451" lon="4.65337">
        <ele>378</ele>
        <time>2022-03-16T09:33:01.000Z</time>
      </trkpt>
      <trkpt lat="45.73448" lon="4.65333">
        <ele>378.20001220703</ele>
        <time>2022-03-16T09:33:03.000Z</time>
      </trkpt>
      <trkpt lat="45.73447" lon="4.65331">
        <ele>378.39999389648</ele>
        <time>2022-03-16T09:33:04.000Z</time>
      </trkpt>
      <trkpt lat="45.73443" lon="4.65324">
        <ele>378.79998779297</ele>
        <time>2022-03-16T09:33:08.000Z</time>
      </trkpt>
      <trkpt lat="45.73442" lon="4.65323">
        <ele>378.79998779297</ele>
        <time>2022-03-16T09:33:09.000Z</time>
      </trkpt>
      <trkpt lat="45.73438" lon="4.65315">
        <ele>379.20001220703</ele>
        <time>2022-03-16T09:33:13.000Z</time>
      </trkpt>
      <trkpt lat="45.73429" lon="4.653">
        <ele>380.60000610352</ele>
        <time>2022-03-16T09:33:22.000Z</time>
      </trkpt>
      <trkpt lat="45.73421" lon="4.65289">
        <ele>381.60000610352</ele>
        <time>2022-03-16T09:33:29.000Z</time>
      </trkpt>
      <trkpt lat="45.73411" lon="4.65276">
        <ele>382.79998779297</ele>
        <time>2022-03-16T09:33:37.000Z</time>
      </trkpt>
      <trkpt lat="45.73403" lon="4.65265">
        <ele>384</ele>
        <time>2022-03-16T09:33:44.000Z</time>
      </trkpt>
      <trkpt lat="45.73394" lon="4.65256">
        <ele>385</ele>
        <time>2022-03-16T09:33:51.000Z</time>
      </trkpt>
      <trkpt lat="45.73388" lon="4.65246">
        <ele>386</ele>
        <time>2022-03-16T09:33:56.000Z</time>
      </trkpt>
      <trkpt lat="45.73379" lon="4.65231">
        <ele>387.79998779297</ele>
        <time>2022-03-16T09:34:04.000Z</time>
      </trkpt>
      <trkpt lat="45.73372" lon="4.65219">
        <ele>389.20001220703</ele>
        <time>2022-03-16T09:34:10.000Z</time>
      </trkpt>
      <trkpt lat="45.73365" lon="4.65207">
        <ele>390.39999389648</ele>
        <time>2022-03-16T09:34:15.000Z</time>
      </trkpt>
      <trkpt lat="45.73356" lon="4.65193">
        <ele>391.39999389648</ele>
        <time>2022-03-16T09:34:22.000Z</time>
      </trkpt>
      <trkpt lat="45.73354" lon="4.65191">
        <ele>391.60000610352</ele>
        <time>2022-03-16T09:34:23.000Z</time>
      </trkpt>
      <trkpt lat="45.73348" lon="4.65179">
        <ele>392.39999389648</ele>
        <time>2022-03-16T09:34:29.000Z</time>
      </trkpt>
      <trkpt lat="45.73339" lon="4.65167">
        <ele>393.20001220703</ele>
        <time>2022-03-16T09:34:36.000Z</time>
      </trkpt>
      <trkpt lat="45.73331" lon="4.65159">
        <ele>393.79998779297</ele>
        <time>2022-03-16T09:34:42.000Z</time>
      </trkpt>
      <trkpt lat="45.73325" lon="4.65151">
        <ele>394.39999389648</ele>
        <time>2022-03-16T09:34:48.000Z</time>
      </trkpt>
      <trkpt lat="45.73318" lon="4.65141">
        <ele>395.20001220703</ele>
        <time>2022-03-16T09:34:54.000Z</time>
      </trkpt>
      <trkpt lat="45.73311" lon="4.65128">
        <ele>396.20001220703</ele>
        <time>2022-03-16T09:35:01.000Z</time>
      </trkpt>
      <trkpt lat="45.73307" lon="4.65121">
        <ele>397</ele>
        <time>2022-03-16T09:35:05.000Z</time>
      </trkpt>
      <trkpt lat="45.73305" lon="4.65118">
        <ele>397.20001220703</ele>
        <time>2022-03-16T09:35:07.000Z</time>
      </trkpt>
      <trkpt lat="45.733" lon="4.65107">
        <ele>399.20001220703</ele>
        <time>2022-03-16T09:35:14.000Z</time>
      </trkpt>
      <trkpt lat="45.73294" lon="4.65098">
        <ele>400.79998779297</ele>
        <time>2022-03-16T09:35:20.000Z</time>
      </trkpt>
      <trkpt lat="45.73294" lon="4.65097">
        <ele>401</ele>
        <time>2022-03-16T09:35:21.000Z</time>
      </trkpt>
      <trkpt lat="45.73293" lon="4.65093">
        <ele>401.60000610352</ele>
        <time>2022-03-16T09:35:23.000Z</time>
      </trkpt>
      <trkpt lat="45.73289" lon="4.65087">
        <ele>402.39999389648</ele>
        <time>2022-03-16T09:35:26.000Z</time>
      </trkpt>
      <trkpt lat="45.73282" lon="4.65081">
        <ele>403.60000610352</ele>
        <time>2022-03-16T09:35:31.000Z</time>
      </trkpt>
      <trkpt lat="45.73281" lon="4.6508">
        <ele>403.79998779297</ele>
        <time>2022-03-16T09:35:32.000Z</time>
      </trkpt>
      <trkpt lat="45.73273" lon="4.65074">
        <ele>404.79998779297</ele>
        <time>2022-03-16T09:35:38.000Z</time>
      </trkpt>
      <trkpt lat="45.73264" lon="4.65067">
        <ele>406</ele>
        <time>2022-03-16T09:35:45.000Z</time>
      </trkpt>
      <trkpt lat="45.73258" lon="4.65063">
        <ele>406.60000610352</ele>
        <time>2022-03-16T09:35:49.000Z</time>
      </trkpt>
      <trkpt lat="45.73257" lon="4.65062">
        <ele>406.79998779297</ele>
        <time>2022-03-16T09:35:51.000Z</time>
      </trkpt>
      <trkpt lat="45.73246" lon="4.65056">
        <ele>407.60000610352</ele>
        <time>2022-03-16T09:35:58.000Z</time>
      </trkpt>
      <trkpt lat="45.73237" lon="4.65051">
        <ele>408.39999389648</ele>
        <time>2022-03-16T09:36:05.000Z</time>
      </trkpt>
      <trkpt lat="45.73233" lon="4.65049">
        <ele>408.60000610352</ele>
        <time>2022-03-16T09:36:08.000Z</time>
      </trkpt>
      <trkpt lat="45.73229" lon="4.65046">
        <ele>409</ele>
        <time>2022-03-16T09:36:11.000Z</time>
      </trkpt>
      <trkpt lat="45.73217" lon="4.6504">
        <ele>409.79998779297</ele>
        <time>2022-03-16T09:36:18.000Z</time>
      </trkpt>
      <trkpt lat="45.73205" lon="4.65033">
        <ele>410.79998779297</ele>
        <time>2022-03-16T09:36:26.000Z</time>
      </trkpt>
      <trkpt lat="45.73195" lon="4.65026">
        <ele>412</ele>
        <time>2022-03-16T09:36:33.000Z</time>
      </trkpt>
      <trkpt lat="45.73188" lon="4.6502">
        <ele>413.20001220703</ele>
        <time>2022-03-16T09:36:39.000Z</time>
      </trkpt>
      <trkpt lat="45.73175" lon="4.65011">
        <ele>414.79998779297</ele>
        <time>2022-03-16T09:36:48.000Z</time>
      </trkpt>
      <trkpt lat="45.73166" lon="4.65004">
        <ele>416</ele>
        <time>2022-03-16T09:36:54.000Z</time>
      </trkpt>
      <trkpt lat="45.73154" lon="4.64997">
        <ele>417.20001220703</ele>
        <time>2022-03-16T09:37:02.000Z</time>
      </trkpt>
      <trkpt lat="45.73142" lon="4.64989">
        <ele>418.39999389648</ele>
        <time>2022-03-16T09:37:10.000Z</time>
      </trkpt>
      <trkpt lat="45.73133" lon="4.64981">
        <ele>419.20001220703</ele>
        <time>2022-03-16T09:37:16.000Z</time>
      </trkpt>
      <trkpt lat="45.73126" lon="4.64974">
        <ele>420.20001220703</ele>
        <time>2022-03-16T09:37:22.000Z</time>
      </trkpt>
      <trkpt lat="45.73114" lon="4.64963">
        <ele>421.79998779297</ele>
        <time>2022-03-16T09:37:30.000Z</time>
      </trkpt>
      <trkpt lat="45.73106" lon="4.64956">
        <ele>422.60000610352</ele>
        <time>2022-03-16T09:37:36.000Z</time>
      </trkpt>
      <trkpt lat="45.73097" lon="4.64947">
        <ele>424</ele>
        <time>2022-03-16T09:37:43.000Z</time>
      </trkpt>
      <trkpt lat="45.73089" lon="4.64939">
        <ele>425.39999389648</ele>
        <time>2022-03-16T09:37:49.000Z</time>
      </trkpt>
      <trkpt lat="45.7308" lon="4.64925">
        <ele>428.79998779297</ele>
        <time>2022-03-16T09:37:56.000Z</time>
      </trkpt>
      <trkpt lat="45.73073" lon="4.64916">
        <ele>431</ele>
        <time>2022-03-16T09:38:01.000Z</time>
      </trkpt>
      <trkpt lat="45.7307" lon="4.64913">
        <ele>431.79998779297</ele>
        <time>2022-03-16T09:38:03.000Z</time>
      </trkpt>
      <trkpt lat="45.73059" lon="4.64907">
        <ele>433.20001220703</ele>
        <time>2022-03-16T09:38:09.000Z</time>
      </trkpt>
      <trkpt lat="45.7305" lon="4.64905">
        <ele>434.39999389648</ele>
        <time>2022-03-16T09:38:16.000Z</time>
      </trkpt>
      <trkpt lat="45.73041" lon="4.64906">
        <ele>434.60000610352</ele>
        <time>2022-03-16T09:38:22.000Z</time>
      </trkpt>
      <trkpt lat="45.7303" lon="4.64907">
        <ele>434.60000610352</ele>
        <time>2022-03-16T09:38:28.000Z</time>
      </trkpt>
      <trkpt lat="45.73019" lon="4.64902">
        <ele>436.39999389648</ele>
        <time>2022-03-16T09:38:35.000Z</time>
      </trkpt>
      <trkpt lat="45.73013" lon="4.64898">
        <ele>437.60000610352</ele>
        <time>2022-03-16T09:38:40.000Z</time>
      </trkpt>
      <trkpt lat="45.72996" lon="4.64893">
        <ele>439.39999389648</ele>
        <time>2022-03-16T09:38:48.000Z</time>
      </trkpt>
      <trkpt lat="45.72982" lon="4.64889">
        <ele>440.39999389648</ele>
        <time>2022-03-16T09:38:56.000Z</time>
      </trkpt>
      <trkpt lat="45.72974" lon="4.64887">
        <ele>440.60000610352</ele>
        <time>2022-03-16T09:39:01.000Z</time>
      </trkpt>
      <trkpt lat="45.72963" lon="4.64884">
        <ele>441</ele>
        <time>2022-03-16T09:39:08.000Z</time>
      </trkpt>
      <trkpt lat="45.7295" lon="4.6488">
        <ele>441.39999389648</ele>
        <time>2022-03-16T09:39:16.000Z</time>
      </trkpt>
      <trkpt lat="45.72937" lon="4.64874">
        <ele>442.60000610352</ele>
        <time>2022-03-16T09:39:24.000Z</time>
      </trkpt>
      <trkpt lat="45.72927" lon="4.64863">
        <ele>444.20001220703</ele>
        <time>2022-03-16T09:39:32.000Z</time>
      </trkpt>
      <trkpt lat="45.72921" lon="4.64848">
        <ele>445.79998779297</ele>
        <time>2022-03-16T09:39:39.000Z</time>
      </trkpt>
      <trkpt lat="45.72915" lon="4.64829">
        <ele>447.39999389648</ele>
        <time>2022-03-16T09:39:49.000Z</time>
      </trkpt>
      <trkpt lat="45.72913" lon="4.64815">
        <ele>448.60000610352</ele>
        <time>2022-03-16T09:39:55.000Z</time>
      </trkpt>
      <trkpt lat="45.72917" lon="4.64805">
        <ele>449.60000610352</ele>
        <time>2022-03-16T09:40:01.000Z</time>
      </trkpt>
      <trkpt lat="45.72925" lon="4.648">
        <ele>450.79998779297</ele>
        <time>2022-03-16T09:40:08.000Z</time>
      </trkpt>
      <trkpt lat="45.72935" lon="4.64794">
        <ele>451.60000610352</ele>
        <time>2022-03-16T09:40:15.000Z</time>
      </trkpt>
      <trkpt lat="45.72943" lon="4.64787">
        <ele>453.39999389648</ele>
        <time>2022-03-16T09:40:21.000Z</time>
      </trkpt>
      <trkpt lat="45.7295" lon="4.64785">
        <ele>454.60000610352</ele>
        <time>2022-03-16T09:40:26.000Z</time>
      </trkpt>
      <trkpt lat="45.72957" lon="4.64782">
        <ele>455</ele>
        <time>2022-03-16T09:40:33.000Z</time>
      </trkpt>
      <trkpt lat="45.72961" lon="4.6478">
        <ele>455.20001220703</ele>
        <time>2022-03-16T09:40:35.000Z</time>
      </trkpt>
      <trkpt lat="45.72969" lon="4.64778">
        <ele>455.39999389648</ele>
        <time>2022-03-16T09:40:40.000Z</time>
      </trkpt>
      <trkpt lat="45.72974" lon="4.64776">
        <ele>455.79998779297</ele>
        <time>2022-03-16T09:40:44.000Z</time>
      </trkpt>
      <trkpt lat="45.72977" lon="4.64773">
        <ele>456.20001220703</ele>
        <time>2022-03-16T09:40:46.000Z</time>
      </trkpt>
      <trkpt lat="45.7298" lon="4.6477">
        <ele>456.60000610352</ele>
        <time>2022-03-16T09:40:48.000Z</time>
      </trkpt>
      <trkpt lat="45.72983" lon="4.64764">
        <ele>457.20001220703</ele>
        <time>2022-03-16T09:40:52.000Z</time>
      </trkpt>
      <trkpt lat="45.72982" lon="4.64762">
        <ele>457.60000610352</ele>
        <time>2022-03-16T09:40:53.000Z</time>
      </trkpt>
      <trkpt lat="45.72982" lon="4.6475">
        <ele>459.39999389648</ele>
        <time>2022-03-16T09:40:59.000Z</time>
      </trkpt>
      <trkpt lat="45.7298" lon="4.64739">
        <ele>460.60000610352</ele>
        <time>2022-03-16T09:41:05.000Z</time>
      </trkpt>
      <trkpt lat="45.7298" lon="4.64737">
        <ele>460.79998779297</ele>
        <time>2022-03-16T09:41:06.000Z</time>
      </trkpt>
      <trkpt lat="45.72981" lon="4.64724">
        <ele>462.39999389648</ele>
        <time>2022-03-16T09:41:13.000Z</time>
      </trkpt>
      <trkpt lat="45.72986" lon="4.64717">
        <ele>463.39999389648</ele>
        <time>2022-03-16T09:41:19.000Z</time>
      </trkpt>
      <trkpt lat="45.72992" lon="4.64712">
        <ele>464</ele>
        <time>2022-03-16T09:41:23.000Z</time>
      </trkpt>
      <trkpt lat="45.72993" lon="4.64711">
        <ele>464.20001220703</ele>
        <time>2022-03-16T09:41:24.000Z</time>
      </trkpt>
      <trkpt lat="45.72999" lon="4.64705">
        <ele>465.60000610352</ele>
        <time>2022-03-16T09:41:30.000Z</time>
      </trkpt>
      <trkpt lat="45.73006" lon="4.64697">
        <ele>467.39999389648</ele>
        <time>2022-03-16T09:41:38.000Z</time>
      </trkpt>
      <trkpt lat="45.73013" lon="4.6469">
        <ele>469.60000610352</ele>
        <time>2022-03-16T09:41:44.000Z</time>
      </trkpt>
      <trkpt lat="45.73018" lon="4.64685">
        <ele>471.20001220703</ele>
        <time>2022-03-16T09:41:49.000Z</time>
      </trkpt>
      <trkpt lat="45.73023" lon="4.64677">
        <ele>473.79998779297</ele>
        <time>2022-03-16T09:41:55.000Z</time>
      </trkpt>
      <trkpt lat="45.73025" lon="4.64676">
        <ele>474.39999389648</ele>
        <time>2022-03-16T09:41:57.000Z</time>
      </trkpt>
      <trkpt lat="45.73032" lon="4.64673">
        <ele>476.20001220703</ele>
        <time>2022-03-16T09:42:03.000Z</time>
      </trkpt>
      <trkpt lat="45.73035" lon="4.64671">
        <ele>476.79998779297</ele>
        <time>2022-03-16T09:42:05.000Z</time>
      </trkpt>
      <trkpt lat="45.73043" lon="4.64669">
        <ele>477.20001220703</ele>
        <time>2022-03-16T09:42:10.000Z</time>
      </trkpt>
      <trkpt lat="45.73052" lon="4.64665">
        <ele>478</ele>
        <time>2022-03-16T09:42:17.000Z</time>
      </trkpt>
      <trkpt lat="45.73056" lon="4.64663">
        <ele>478.60000610352</ele>
        <time>2022-03-16T09:42:20.000Z</time>
      </trkpt>
      <trkpt lat="45.7306" lon="4.6466">
        <ele>479.60000610352</ele>
        <time>2022-03-16T09:42:23.000Z</time>
      </trkpt>
      <trkpt lat="45.7307" lon="4.64657">
        <ele>480.79998779297</ele>
        <time>2022-03-16T09:42:29.000Z</time>
      </trkpt>
      <trkpt lat="45.73079" lon="4.64653">
        <ele>481.79998779297</ele>
        <time>2022-03-16T09:42:35.000Z</time>
      </trkpt>
      <trkpt lat="45.73083" lon="4.64648">
        <ele>482.79998779297</ele>
        <time>2022-03-16T09:42:40.000Z</time>
      </trkpt>
      <trkpt lat="45.73087" lon="4.64638">
        <ele>485</ele>
        <time>2022-03-16T09:42:46.000Z</time>
      </trkpt>
      <trkpt lat="45.73089" lon="4.6463">
        <ele>486.79998779297</ele>
        <time>2022-03-16T09:42:51.000Z</time>
      </trkpt>
      <trkpt lat="45.7309" lon="4.64621">
        <ele>488.79998779297</ele>
        <time>2022-03-16T09:42:57.000Z</time>
      </trkpt>
      <trkpt lat="45.73091" lon="4.64617">
        <ele>489.60000610352</ele>
        <time>2022-03-16T09:43:02.000Z</time>
      </trkpt>
      <trkpt lat="45.73093" lon="4.64615">
        <ele>490.20001220703</ele>
        <time>2022-03-16T09:43:09.000Z</time>
      </trkpt>
      <trkpt lat="45.73093" lon="4.64615">
        <ele>490.20001220703</ele>
        <time>2022-03-16T09:43:32.000Z</time>
      </trkpt>
      <trkpt lat="45.73093" lon="4.64615">
        <ele>490.20001220703</ele>
        <time>2022-03-16T09:43:57.000Z</time>
      </trkpt>
      <trkpt lat="45.73093" lon="4.64616">
        <ele>490</ele>
        <time>2022-03-16T09:44:26.000Z</time>
      </trkpt>
      <trkpt lat="45.73093" lon="4.64616">
        <ele>490</ele>
        <time>2022-03-16T09:44:53.000Z</time>
      </trkpt>
      <trkpt lat="45.73093" lon="4.64616">
        <ele>490</ele>
        <time>2022-03-16T09:45:28.000Z</time>
      </trkpt>
      <trkpt lat="45.73094" lon="4.64617">
        <ele>489.79998779297</ele>
        <time>2022-03-16T09:45:54.000Z</time>
      </trkpt>
      <trkpt lat="45.73094" lon="4.64617">
        <ele>489.79998779297</ele>
        <time>2022-03-16T09:46:10.000Z</time>
      </trkpt>
      <trkpt lat="45.73094" lon="4.64617">
        <ele>489.79998779297</ele>
        <time>2022-03-16T09:46:23.000Z</time>
      </trkpt>
      <trkpt lat="45.73093" lon="4.64617">
        <ele>489.60000610352</ele>
        <time>2022-03-16T09:46:29.000Z</time>
      </trkpt>
      <trkpt lat="45.73093" lon="4.64617">
        <ele>489.60000610352</ele>
        <time>2022-03-16T09:46:42.000Z</time>
      </trkpt>
      <trkpt lat="45.73093" lon="4.64617">
        <ele>489.60000610352</ele>
        <time>2022-03-16T09:46:49.000Z</time>
      </trkpt>
      <trkpt lat="45.73088" lon="4.64614">
        <ele>490.20001220703</ele>
        <time>2022-03-16T09:46:56.000Z</time>
      </trkpt>
      <trkpt lat="45.73081" lon="4.64605">
        <ele>492</ele>
        <time>2022-03-16T09:47:02.000Z</time>
      </trkpt>
      <trkpt lat="45.73077" lon="4.64595">
        <ele>494</ele>
        <time>2022-03-16T09:47:07.000Z</time>
      </trkpt>
      <trkpt lat="45.73077" lon="4.64589">
        <ele>495.60000610352</ele>
        <time>2022-03-16T09:47:13.000Z</time>
      </trkpt>
      <trkpt lat="45.73079" lon="4.64585">
        <ele>496.60000610352</ele>
        <time>2022-03-16T09:47:19.000Z</time>
      </trkpt>
      <trkpt lat="45.73085" lon="4.64578">
        <ele>498.39999389648</ele>
        <time>2022-03-16T09:47:25.000Z</time>
      </trkpt>
      <trkpt lat="45.73087" lon="4.64571">
        <ele>500.20001220703</ele>
        <time>2022-03-16T09:47:31.000Z</time>
      </trkpt>
      <trkpt lat="45.73086" lon="4.64567">
        <ele>501</ele>
        <time>2022-03-16T09:47:37.000Z</time>
      </trkpt>
      <trkpt lat="45.73086" lon="4.64567">
        <ele>501</ele>
        <time>2022-03-16T09:47:49.000Z</time>
      </trkpt>
      <trkpt lat="45.73086" lon="4.64567">
        <ele>501</ele>
        <time>2022-03-16T09:48:12.000Z</time>
      </trkpt>
      <trkpt lat="45.73086" lon="4.64567">
        <ele>501</ele>
        <time>2022-03-16T09:48:25.000Z</time>
      </trkpt>
      <trkpt lat="45.7308" lon="4.64565">
        <ele>500.79998779297</ele>
        <time>2022-03-16T09:48:31.000Z</time>
      </trkpt>
      <trkpt lat="45.73075" lon="4.64558">
        <ele>501.60000610352</ele>
        <time>2022-03-16T09:48:36.000Z</time>
      </trkpt>
      <trkpt lat="45.73072" lon="4.64551">
        <ele>502.39999389648</ele>
        <time>2022-03-16T09:48:40.000Z</time>
      </trkpt>
      <trkpt lat="45.7307" lon="4.64548">
        <ele>502.60000610352</ele>
        <time>2022-03-16T09:48:42.000Z</time>
      </trkpt>
      <trkpt lat="45.73065" lon="4.6454">
        <ele>503.20001220703</ele>
        <time>2022-03-16T09:48:48.000Z</time>
      </trkpt>
      <trkpt lat="45.73063" lon="4.64538">
        <ele>503.20001220703</ele>
        <time>2022-03-16T09:48:53.000Z</time>
      </trkpt>
      <trkpt lat="45.73065" lon="4.64532">
        <ele>504.20001220703</ele>
        <time>2022-03-16T09:49:02.000Z</time>
      </trkpt>
      <trkpt lat="45.73064" lon="4.64526">
        <ele>504.79998779297</ele>
        <time>2022-03-16T09:49:08.000Z</time>
      </trkpt>
      <trkpt lat="45.73064" lon="4.64522">
        <ele>505.20001220703</ele>
        <time>2022-03-16T09:49:15.000Z</time>
      </trkpt>
      <trkpt lat="45.73064" lon="4.64522">
        <ele>505.20001220703</ele>
        <time>2022-03-16T09:49:28.000Z</time>
      </trkpt>
      <trkpt lat="45.73064" lon="4.64516">
        <ele>505.79998779297</ele>
        <time>2022-03-16T09:49:37.000Z</time>
      </trkpt>
      <trkpt lat="45.73064" lon="4.6451">
        <ele>506.60000610352</ele>
        <time>2022-03-16T09:49:40.000Z</time>
      </trkpt>
      <trkpt lat="45.73063" lon="4.64506">
        <ele>506.79998779297</ele>
        <time>2022-03-16T09:49:42.000Z</time>
      </trkpt>
      <trkpt lat="45.73062" lon="4.64494">
        <ele>508.39999389648</ele>
        <time>2022-03-16T09:49:48.000Z</time>
      </trkpt>
      <trkpt lat="45.73064" lon="4.64479">
        <ele>510.79998779297</ele>
        <time>2022-03-16T09:49:56.000Z</time>
      </trkpt>
      <trkpt lat="45.73064" lon="4.6447">
        <ele>512.40002441406</ele>
        <time>2022-03-16T09:50:01.000Z</time>
      </trkpt>
      <trkpt lat="45.73065" lon="4.64458">
        <ele>514.59997558594</ele>
        <time>2022-03-16T09:50:07.000Z</time>
      </trkpt>
      <trkpt lat="45.73066" lon="4.64448">
        <ele>516.40002441406</ele>
        <time>2022-03-16T09:50:13.000Z</time>
      </trkpt>
      <trkpt lat="45.73065" lon="4.6444">
        <ele>518</ele>
        <time>2022-03-16T09:50:18.000Z</time>
      </trkpt>
      <trkpt lat="45.73061" lon="4.6443">
        <ele>519.79998779297</ele>
        <time>2022-03-16T09:50:26.000Z</time>
      </trkpt>
      <trkpt lat="45.7306" lon="4.64427">
        <ele>520</ele>
        <time>2022-03-16T09:50:29.000Z</time>
      </trkpt>
      <trkpt lat="45.73058" lon="4.64424">
        <ele>520.40002441406</ele>
        <time>2022-03-16T09:50:31.000Z</time>
      </trkpt>
      <trkpt lat="45.73057" lon="4.6442">
        <ele>520.79998779297</ele>
        <time>2022-03-16T09:50:33.000Z</time>
      </trkpt>
      <trkpt lat="45.73056" lon="4.64412">
        <ele>522.20001220703</ele>
        <time>2022-03-16T09:50:37.000Z</time>
      </trkpt>
      <trkpt lat="45.73054" lon="4.64405">
        <ele>523</ele>
        <time>2022-03-16T09:50:42.000Z</time>
      </trkpt>
      <trkpt lat="45.73054" lon="4.64403">
        <ele>523.59997558594</ele>
        <time>2022-03-16T09:50:49.000Z</time>
      </trkpt>
      <trkpt lat="45.73054" lon="4.64403">
        <ele>523.59997558594</ele>
        <time>2022-03-16T09:51:05.000Z</time>
      </trkpt>
      <trkpt lat="45.73054" lon="4.64403">
        <ele>523.59997558594</ele>
        <time>2022-03-16T09:51:22.000Z</time>
      </trkpt>
      <trkpt lat="45.73054" lon="4.64402">
        <ele>523.79998779297</ele>
        <time>2022-03-16T09:51:23.000Z</time>
      </trkpt>
      <trkpt lat="45.73051" lon="4.64393">
        <ele>524.79998779297</ele>
        <time>2022-03-16T09:51:27.000Z</time>
      </trkpt>
      <trkpt lat="45.73047" lon="4.6438">
        <ele>526.20001220703</ele>
        <time>2022-03-16T09:51:34.000Z</time>
      </trkpt>
      <trkpt lat="45.73045" lon="4.64371">
        <ele>526.40002441406</ele>
        <time>2022-03-16T09:51:39.000Z</time>
      </trkpt>
      <trkpt lat="45.73039" lon="4.64359">
        <ele>526.40002441406</ele>
        <time>2022-03-16T09:51:46.000Z</time>
      </trkpt>
      <trkpt lat="45.73037" lon="4.64352">
        <ele>526.79998779297</ele>
        <time>2022-03-16T09:51:50.000Z</time>
      </trkpt>
      <trkpt lat="45.73033" lon="4.64341">
        <ele>527.40002441406</ele>
        <time>2022-03-16T09:51:56.000Z</time>
      </trkpt>
      <trkpt lat="45.7303" lon="4.64329">
        <ele>528.79998779297</ele>
        <time>2022-03-16T09:52:02.000Z</time>
      </trkpt>
      <trkpt lat="45.73027" lon="4.64318">
        <ele>530.40002441406</ele>
        <time>2022-03-16T09:52:08.000Z</time>
      </trkpt>
      <trkpt lat="45.73023" lon="4.64313">
        <ele>530.79998779297</ele>
        <time>2022-03-16T09:52:13.000Z</time>
      </trkpt>
      <trkpt lat="45.73019" lon="4.64309">
        <ele>530.79998779297</ele>
        <time>2022-03-16T09:52:16.000Z</time>
      </trkpt>
      <trkpt lat="45.73017" lon="4.64306">
        <ele>531.20001220703</ele>
        <time>2022-03-16T09:52:18.000Z</time>
      </trkpt>
      <trkpt lat="45.73011" lon="4.64294">
        <ele>532.40002441406</ele>
        <time>2022-03-16T09:52:25.000Z</time>
      </trkpt>
      <trkpt lat="45.73009" lon="4.64283">
        <ele>534.20001220703</ele>
        <time>2022-03-16T09:52:31.000Z</time>
      </trkpt>
      <trkpt lat="45.73006" lon="4.64271">
        <ele>535.59997558594</ele>
        <time>2022-03-16T09:52:38.000Z</time>
      </trkpt>
      <trkpt lat="45.73003" lon="4.64258">
        <ele>536.79998779297</ele>
        <time>2022-03-16T09:52:45.000Z</time>
      </trkpt>
      <trkpt lat="45.73" lon="4.64247">
        <ele>537.59997558594</ele>
        <time>2022-03-16T09:52:52.000Z</time>
      </trkpt>
      <trkpt lat="45.72999" lon="4.64232">
        <ele>539.59997558594</ele>
        <time>2022-03-16T09:53:01.000Z</time>
      </trkpt>
      <trkpt lat="45.72998" lon="4.6422">
        <ele>541</ele>
        <time>2022-03-16T09:53:08.000Z</time>
      </trkpt>
      <trkpt lat="45.72999" lon="4.6421">
        <ele>542.20001220703</ele>
        <time>2022-03-16T09:53:14.000Z</time>
      </trkpt>
      <trkpt lat="45.73" lon="4.64202">
        <ele>543.20001220703</ele>
        <time>2022-03-16T09:53:20.000Z</time>
      </trkpt>
      <trkpt lat="45.73002" lon="4.64194">
        <ele>544.40002441406</ele>
        <time>2022-03-16T09:53:25.000Z</time>
      </trkpt>
      <trkpt lat="45.73003" lon="4.64181">
        <ele>546</ele>
        <time>2022-03-16T09:53:33.000Z</time>
      </trkpt>
      <trkpt lat="45.73005" lon="4.64172">
        <ele>547.40002441406</ele>
        <time>2022-03-16T09:53:40.000Z</time>
      </trkpt>
      <trkpt lat="45.73006" lon="4.64164">
        <ele>548.40002441406</ele>
        <time>2022-03-16T09:53:46.000Z</time>
      </trkpt>
      <trkpt lat="45.73009" lon="4.64156">
        <ele>549.59997558594</ele>
        <time>2022-03-16T09:53:51.000Z</time>
      </trkpt>
      <trkpt lat="45.73011" lon="4.64146">
        <ele>550.79998779297</ele>
        <time>2022-03-16T09:53:56.000Z</time>
      </trkpt>
      <trkpt lat="45.73014" lon="4.64136">
        <ele>551.79998779297</ele>
        <time>2022-03-16T09:54:02.000Z</time>
      </trkpt>
      <trkpt lat="45.73016" lon="4.64127">
        <ele>552.59997558594</ele>
        <time>2022-03-16T09:54:08.000Z</time>
      </trkpt>
      <trkpt lat="45.73019" lon="4.64121">
        <ele>553.40002441406</ele>
        <time>2022-03-16T09:54:14.000Z</time>
      </trkpt>
      <trkpt lat="45.73024" lon="4.64109">
        <ele>555</ele>
        <time>2022-03-16T09:54:22.000Z</time>
      </trkpt>
      <trkpt lat="45.73026" lon="4.64101">
        <ele>555.79998779297</ele>
        <time>2022-03-16T09:54:27.000Z</time>
      </trkpt>
      <trkpt lat="45.7303" lon="4.64094">
        <ele>556.79998779297</ele>
        <time>2022-03-16T09:54:32.000Z</time>
      </trkpt>
      <trkpt lat="45.73032" lon="4.64088">
        <ele>557.59997558594</ele>
        <time>2022-03-16T09:54:37.000Z</time>
      </trkpt>
      <trkpt lat="45.73034" lon="4.64078">
        <ele>558.59997558594</ele>
        <time>2022-03-16T09:54:43.000Z</time>
      </trkpt>
      <trkpt lat="45.73034" lon="4.64071">
        <ele>559.20001220703</ele>
        <time>2022-03-16T09:54:49.000Z</time>
      </trkpt>
      <trkpt lat="45.73038" lon="4.64059">
        <ele>560.79998779297</ele>
        <time>2022-03-16T09:54:56.000Z</time>
      </trkpt>
      <trkpt lat="45.7304" lon="4.64049">
        <ele>561.40002441406</ele>
        <time>2022-03-16T09:55:02.000Z</time>
      </trkpt>
      <trkpt lat="45.73043" lon="4.64041">
        <ele>562.40002441406</ele>
        <time>2022-03-16T09:55:07.000Z</time>
      </trkpt>
      <trkpt lat="45.73044" lon="4.64037">
        <ele>562.59997558594</ele>
        <time>2022-03-16T09:55:09.000Z</time>
      </trkpt>
      <trkpt lat="45.73045" lon="4.64031">
        <ele>563</ele>
        <time>2022-03-16T09:55:12.000Z</time>
      </trkpt>
      <trkpt lat="45.73049" lon="4.64021">
        <ele>564</ele>
        <time>2022-03-16T09:55:18.000Z</time>
      </trkpt>
      <trkpt lat="45.73051" lon="4.64012">
        <ele>564.40002441406</ele>
        <time>2022-03-16T09:55:24.000Z</time>
      </trkpt>
      <trkpt lat="45.73054" lon="4.64003">
        <ele>564.79998779297</ele>
        <time>2022-03-16T09:55:29.000Z</time>
      </trkpt>
      <trkpt lat="45.73056" lon="4.63993">
        <ele>565.40002441406</ele>
        <time>2022-03-16T09:55:35.000Z</time>
      </trkpt>
      <trkpt lat="45.73058" lon="4.63983">
        <ele>566.20001220703</ele>
        <time>2022-03-16T09:55:41.000Z</time>
      </trkpt>
      <trkpt lat="45.73061" lon="4.63971">
        <ele>566.79998779297</ele>
        <time>2022-03-16T09:55:47.000Z</time>
      </trkpt>
      <trkpt lat="45.73064" lon="4.63959">
        <ele>567.20001220703</ele>
        <time>2022-03-16T09:55:55.000Z</time>
      </trkpt>
      <trkpt lat="45.73066" lon="4.63949">
        <ele>567.40002441406</ele>
        <time>2022-03-16T09:56:00.000Z</time>
      </trkpt>
      <trkpt lat="45.7307" lon="4.63939">
        <ele>567.79998779297</ele>
        <time>2022-03-16T09:56:06.000Z</time>
      </trkpt>
      <trkpt lat="45.73075" lon="4.63925">
        <ele>568.79998779297</ele>
        <time>2022-03-16T09:56:14.000Z</time>
      </trkpt>
      <trkpt lat="45.73079" lon="4.63909">
        <ele>569.79998779297</ele>
        <time>2022-03-16T09:56:22.000Z</time>
      </trkpt>
      <trkpt lat="45.73084" lon="4.63895">
        <ele>571</ele>
        <time>2022-03-16T09:56:30.000Z</time>
      </trkpt>
      <trkpt lat="45.73087" lon="4.63885">
        <ele>572</ele>
        <time>2022-03-16T09:56:37.000Z</time>
      </trkpt>
      <trkpt lat="45.73089" lon="4.63874">
        <ele>572.59997558594</ele>
        <time>2022-03-16T09:56:43.000Z</time>
      </trkpt>
      <trkpt lat="45.73093" lon="4.63859">
        <ele>573.59997558594</ele>
        <time>2022-03-16T09:56:51.000Z</time>
      </trkpt>
      <trkpt lat="45.73097" lon="4.63839">
        <ele>575.20001220703</ele>
        <time>2022-03-16T09:56:59.000Z</time>
      </trkpt>
      <trkpt lat="45.73099" lon="4.63823">
        <ele>576.40002441406</ele>
        <time>2022-03-16T09:57:06.000Z</time>
      </trkpt>
      <trkpt lat="45.73098" lon="4.63809">
        <ele>577.40002441406</ele>
        <time>2022-03-16T09:57:13.000Z</time>
      </trkpt>
      <trkpt lat="45.73098" lon="4.6379">
        <ele>579.40002441406</ele>
        <time>2022-03-16T09:57:21.000Z</time>
      </trkpt>
      <trkpt lat="45.73097" lon="4.63777">
        <ele>580.59997558594</ele>
        <time>2022-03-16T09:57:27.000Z</time>
      </trkpt>
      <trkpt lat="45.73095" lon="4.63764">
        <ele>581.59997558594</ele>
        <time>2022-03-16T09:57:35.000Z</time>
      </trkpt>
      <trkpt lat="45.73094" lon="4.63752">
        <ele>582.40002441406</ele>
        <time>2022-03-16T09:57:41.000Z</time>
      </trkpt>
      <trkpt lat="45.73093" lon="4.63735">
        <ele>583.59997558594</ele>
        <time>2022-03-16T09:57:49.000Z</time>
      </trkpt>
      <trkpt lat="45.73091" lon="4.63722">
        <ele>584</ele>
        <time>2022-03-16T09:57:55.000Z</time>
      </trkpt>
      <trkpt lat="45.7309" lon="4.63707">
        <ele>584</ele>
        <time>2022-03-16T09:58:01.000Z</time>
      </trkpt>
      <trkpt lat="45.73088" lon="4.63692">
        <ele>584.40002441406</ele>
        <time>2022-03-16T09:58:07.000Z</time>
      </trkpt>
      <trkpt lat="45.73086" lon="4.63671">
        <ele>585.79998779297</ele>
        <time>2022-03-16T09:58:15.000Z</time>
      </trkpt>
      <trkpt lat="45.73086" lon="4.63655">
        <ele>586.40002441406</ele>
        <time>2022-03-16T09:58:21.000Z</time>
      </trkpt>
      <trkpt lat="45.73089" lon="4.63635">
        <ele>587.20001220703</ele>
        <time>2022-03-16T09:58:28.000Z</time>
      </trkpt>
      <trkpt lat="45.73092" lon="4.63624">
        <ele>587.59997558594</ele>
        <time>2022-03-16T09:58:33.000Z</time>
      </trkpt>
      <trkpt lat="45.73094" lon="4.63612">
        <ele>588</ele>
        <time>2022-03-16T09:58:38.000Z</time>
      </trkpt>
      <trkpt lat="45.73096" lon="4.63599">
        <ele>588.79998779297</ele>
        <time>2022-03-16T09:58:43.000Z</time>
      </trkpt>
      <trkpt lat="45.73096" lon="4.63586">
        <ele>589.79998779297</ele>
        <time>2022-03-16T09:58:48.000Z</time>
      </trkpt>
      <trkpt lat="45.73098" lon="4.63568">
        <ele>591.79998779297</ele>
        <time>2022-03-16T09:58:55.000Z</time>
      </trkpt>
      <trkpt lat="45.731" lon="4.63554">
        <ele>593.59997558594</ele>
        <time>2022-03-16T09:59:01.000Z</time>
      </trkpt>
      <trkpt lat="45.73103" lon="4.63542">
        <ele>594.79998779297</ele>
        <time>2022-03-16T09:59:07.000Z</time>
      </trkpt>
      <trkpt lat="45.73106" lon="4.63535">
        <ele>595.59997558594</ele>
        <time>2022-03-16T09:59:10.000Z</time>
      </trkpt>
      <trkpt lat="45.73107" lon="4.63528">
        <ele>596.40002441406</ele>
        <time>2022-03-16T09:59:13.000Z</time>
      </trkpt>
      <trkpt lat="45.7311" lon="4.63516">
        <ele>597.40002441406</ele>
        <time>2022-03-16T09:59:18.000Z</time>
      </trkpt>
      <trkpt lat="45.7311" lon="4.63506">
        <ele>598.20001220703</ele>
        <time>2022-03-16T09:59:23.000Z</time>
      </trkpt>
      <trkpt lat="45.7311" lon="4.63499">
        <ele>598.79998779297</ele>
        <time>2022-03-16T09:59:27.000Z</time>
      </trkpt>
      <trkpt lat="45.7311" lon="4.63492">
        <ele>599.40002441406</ele>
        <time>2022-03-16T09:59:31.000Z</time>
      </trkpt>
      <trkpt lat="45.73111" lon="4.63482">
        <ele>600</ele>
        <time>2022-03-16T09:59:35.000Z</time>
      </trkpt>
      <trkpt lat="45.73113" lon="4.63472">
        <ele>600.79998779297</ele>
        <time>2022-03-16T09:59:40.000Z</time>
      </trkpt>
      <trkpt lat="45.73117" lon="4.63458">
        <ele>600.79998779297</ele>
        <time>2022-03-16T09:59:47.000Z</time>
      </trkpt>
      <trkpt lat="45.73119" lon="4.63442">
        <ele>601.20001220703</ele>
        <time>2022-03-16T09:59:54.000Z</time>
      </trkpt>
      <trkpt lat="45.73123" lon="4.63427">
        <ele>601.79998779297</ele>
        <time>2022-03-16T10:00:01.000Z</time>
      </trkpt>
      <trkpt lat="45.73128" lon="4.63407">
        <ele>601.59997558594</ele>
        <time>2022-03-16T10:00:08.000Z</time>
      </trkpt>
      <trkpt lat="45.7313" lon="4.63392">
        <ele>601</ele>
        <time>2022-03-16T10:00:13.000Z</time>
      </trkpt>
      <trkpt lat="45.73132" lon="4.63376">
        <ele>602.59997558594</ele>
        <time>2022-03-16T10:00:18.000Z</time>
      </trkpt>
      <trkpt lat="45.73134" lon="4.63359">
        <ele>603.59997558594</ele>
        <time>2022-03-16T10:00:23.000Z</time>
      </trkpt>
      <trkpt lat="45.73138" lon="4.63342">
        <ele>602.40002441406</ele>
        <time>2022-03-16T10:00:27.000Z</time>
      </trkpt>
      <trkpt lat="45.73142" lon="4.63323">
        <ele>602</ele>
        <time>2022-03-16T10:00:32.000Z</time>
      </trkpt>
      <trkpt lat="45.73145" lon="4.63308">
        <ele>602.40002441406</ele>
        <time>2022-03-16T10:00:35.000Z</time>
      </trkpt>
      <trkpt lat="45.73144" lon="4.63303">
        <ele>603</ele>
        <time>2022-03-16T10:00:36.000Z</time>
      </trkpt>
      <trkpt lat="45.73145" lon="4.63293">
        <ele>603.20001220703</ele>
        <time>2022-03-16T10:00:38.000Z</time>
      </trkpt>
      <trkpt lat="45.73146" lon="4.63284">
        <ele>603.59997558594</ele>
        <time>2022-03-16T10:00:40.000Z</time>
      </trkpt>
      <trkpt lat="45.73144" lon="4.63266">
        <ele>606.79998779297</ele>
        <time>2022-03-16T10:00:45.000Z</time>
      </trkpt>
      <trkpt lat="45.73144" lon="4.63258">
        <ele>608</ele>
        <time>2022-03-16T10:00:47.000Z</time>
      </trkpt>
      <trkpt lat="45.73145" lon="4.63249">
        <ele>608.40002441406</ele>
        <time>2022-03-16T10:00:49.000Z</time>
      </trkpt>
      <trkpt lat="45.73148" lon="4.63234">
        <ele>608.40002441406</ele>
        <time>2022-03-16T10:00:52.000Z</time>
      </trkpt>
      <trkpt lat="45.73149" lon="4.63223">
        <ele>608.59997558594</ele>
        <time>2022-03-16T10:00:54.000Z</time>
      </trkpt>
      <trkpt lat="45.73155" lon="4.63208">
        <ele>607</ele>
        <time>2022-03-16T10:00:57.000Z</time>
      </trkpt>
      <trkpt lat="45.73158" lon="4.63194">
        <ele>606.40002441406</ele>
        <time>2022-03-16T10:01:00.000Z</time>
      </trkpt>
      <trkpt lat="45.73159" lon="4.63189">
        <ele>605.59997558594</ele>
        <time>2022-03-16T10:01:01.000Z</time>
      </trkpt>
      <trkpt lat="45.7316" lon="4.63171">
        <ele>604.40002441406</ele>
        <time>2022-03-16T10:01:05.000Z</time>
      </trkpt>
      <trkpt lat="45.73162" lon="4.63154">
        <ele>601.79998779297</ele>
        <time>2022-03-16T10:01:09.000Z</time>
      </trkpt>
      <trkpt lat="45.73161" lon="4.63144">
        <ele>602.40002441406</ele>
        <time>2022-03-16T10:01:11.000Z</time>
      </trkpt>
      <trkpt lat="45.7316" lon="4.6314">
        <ele>602.20001220703</ele>
        <time>2022-03-16T10:01:12.000Z</time>
      </trkpt>
      <trkpt lat="45.73162" lon="4.63116">
        <ele>600.59997558594</ele>
        <time>2022-03-16T10:01:16.000Z</time>
      </trkpt>
      <trkpt lat="45.73155" lon="4.63091">
        <ele>600</ele>
        <time>2022-03-16T10:01:22.000Z</time>
      </trkpt>
      <trkpt lat="45.73154" lon="4.63083">
        <ele>600.40002441406</ele>
        <time>2022-03-16T10:01:24.000Z</time>
      </trkpt>
      <trkpt lat="45.73153" lon="4.63075">
        <ele>600.20001220703</ele>
        <time>2022-03-16T10:01:26.000Z</time>
      </trkpt>
      <trkpt lat="45.73152" lon="4.63053">
        <ele>601</ele>
        <time>2022-03-16T10:01:31.000Z</time>
      </trkpt>
      <trkpt lat="45.73153" lon="4.63031">
        <ele>601.79998779297</ele>
        <time>2022-03-16T10:01:37.000Z</time>
      </trkpt>
      <trkpt lat="45.73153" lon="4.63029">
        <ele>602</ele>
        <time>2022-03-16T10:01:38.000Z</time>
      </trkpt>
      <trkpt lat="45.73154" lon="4.63019">
        <ele>602.59997558594</ele>
        <time>2022-03-16T10:01:41.000Z</time>
      </trkpt>
      <trkpt lat="45.73154" lon="4.62994">
        <ele>604</ele>
        <time>2022-03-16T10:01:48.000Z</time>
      </trkpt>
      <trkpt lat="45.73153" lon="4.62973">
        <ele>605.20001220703</ele>
        <time>2022-03-16T10:01:54.000Z</time>
      </trkpt>
      <trkpt lat="45.73156" lon="4.62947">
        <ele>606.40002441406</ele>
        <time>2022-03-16T10:02:01.000Z</time>
      </trkpt>
      <trkpt lat="45.73159" lon="4.62931">
        <ele>607.59997558594</ele>
        <time>2022-03-16T10:02:06.000Z</time>
      </trkpt>
      <trkpt lat="45.73159" lon="4.62929">
        <ele>607.59997558594</ele>
        <time>2022-03-16T10:02:07.000Z</time>
      </trkpt>
      <trkpt lat="45.7316" lon="4.62918">
        <ele>608.20001220703</ele>
        <time>2022-03-16T10:02:11.000Z</time>
      </trkpt>
      <trkpt lat="45.73158" lon="4.62901">
        <ele>607.59997558594</ele>
        <time>2022-03-16T10:02:17.000Z</time>
      </trkpt>
      <trkpt lat="45.73158" lon="4.62887">
        <ele>607.59997558594</ele>
        <time>2022-03-16T10:02:22.000Z</time>
      </trkpt>
      <trkpt lat="45.73161" lon="4.6287">
        <ele>608.40002441406</ele>
        <time>2022-03-16T10:02:28.000Z</time>
      </trkpt>
      <trkpt lat="45.73162" lon="4.62854">
        <ele>608.79998779297</ele>
        <time>2022-03-16T10:02:34.000Z</time>
      </trkpt>
      <trkpt lat="45.73167" lon="4.62839">
        <ele>610.59997558594</ele>
        <time>2022-03-16T10:02:40.000Z</time>
      </trkpt>
      <trkpt lat="45.73173" lon="4.6282">
        <ele>612.20001220703</ele>
        <time>2022-03-16T10:02:47.000Z</time>
      </trkpt>
      <trkpt lat="45.73179" lon="4.62802">
        <ele>613.79998779297</ele>
        <time>2022-03-16T10:02:54.000Z</time>
      </trkpt>
      <trkpt lat="45.73183" lon="4.62785">
        <ele>614.40002441406</ele>
        <time>2022-03-16T10:03:01.000Z</time>
      </trkpt>
      <trkpt lat="45.73184" lon="4.62773">
        <ele>614.20001220703</ele>
        <time>2022-03-16T10:03:06.000Z</time>
      </trkpt>
      <trkpt lat="45.73186" lon="4.62759">
        <ele>614.20001220703</ele>
        <time>2022-03-16T10:03:12.000Z</time>
      </trkpt>
      <trkpt lat="45.7319" lon="4.62737">
        <ele>613.59997558594</ele>
        <time>2022-03-16T10:03:20.000Z</time>
      </trkpt>
      <trkpt lat="45.73192" lon="4.62726">
        <ele>613.59997558594</ele>
        <time>2022-03-16T10:03:26.000Z</time>
      </trkpt>
      <trkpt lat="45.73192" lon="4.62726">
        <ele>613.59997558594</ele>
        <time>2022-03-16T10:03:42.000Z</time>
      </trkpt>
      <trkpt lat="45.73192" lon="4.62726">
        <ele>613.59997558594</ele>
        <time>2022-03-16T10:04:02.000Z</time>
      </trkpt>
      <trkpt lat="45.73192" lon="4.62726">
        <ele>613.59997558594</ele>
        <time>2022-03-16T10:04:22.000Z</time>
      </trkpt>
      <trkpt lat="45.73193" lon="4.62725">
        <ele>613.59997558594</ele>
        <time>2022-03-16T10:04:45.000Z</time>
      </trkpt>
      <trkpt lat="45.73193" lon="4.62725">
        <ele>613.59997558594</ele>
        <time>2022-03-16T10:05:04.000Z</time>
      </trkpt>
      <trkpt lat="45.73193" lon="4.62725">
        <ele>613.59997558594</ele>
        <time>2022-03-16T10:05:20.000Z</time>
      </trkpt>
      <trkpt lat="45.73193" lon="4.62726">
        <ele>613.79998779297</ele>
        <time>2022-03-16T10:05:42.000Z</time>
      </trkpt>
      <trkpt lat="45.73193" lon="4.62726">
        <ele>613.79998779297</ele>
        <time>2022-03-16T10:05:52.000Z</time>
      </trkpt>
      <trkpt lat="45.73193" lon="4.62725">
        <ele>613.59997558594</ele>
        <time>2022-03-16T10:06:08.000Z</time>
      </trkpt>
      <trkpt lat="45.73198" lon="4.6271">
        <ele>612.79998779297</ele>
        <time>2022-03-16T10:06:13.000Z</time>
      </trkpt>
      <trkpt lat="45.73211" lon="4.62686">
        <ele>611.79998779297</ele>
        <time>2022-03-16T10:06:18.000Z</time>
      </trkpt>
      <trkpt lat="45.73228" lon="4.62648">
        <ele>607.20001220703</ele>
        <time>2022-03-16T10:06:24.000Z</time>
      </trkpt>
      <trkpt lat="45.73255" lon="4.62593">
        <ele>606.20001220703</ele>
        <time>2022-03-16T10:06:33.000Z</time>
      </trkpt>
      <trkpt lat="45.73276" lon="4.62552">
        <ele>607.20001220703</ele>
        <time>2022-03-16T10:06:41.000Z</time>
      </trkpt>
      <trkpt lat="45.73298" lon="4.62527">
        <ele>610.40002441406</ele>
        <time>2022-03-16T10:06:48.000Z</time>
      </trkpt>
      <trkpt lat="45.73315" lon="4.6252">
        <ele>613.59997558594</ele>
        <time>2022-03-16T10:06:54.000Z</time>
      </trkpt>
      <trkpt lat="45.73324" lon="4.62515">
        <ele>615</ele>
        <time>2022-03-16T10:07:00.000Z</time>
      </trkpt>
      <trkpt lat="45.73333" lon="4.6251">
        <ele>617.20001220703</ele>
        <time>2022-03-16T10:07:07.000Z</time>
      </trkpt>
      <trkpt lat="45.73338" lon="4.62506">
        <ele>618.59997558594</ele>
        <time>2022-03-16T10:07:12.000Z</time>
      </trkpt>
      <trkpt lat="45.73344" lon="4.62496">
        <ele>620.79998779297</ele>
        <time>2022-03-16T10:07:19.000Z</time>
      </trkpt>
      <trkpt lat="45.73345" lon="4.62487">
        <ele>621.79998779297</ele>
        <time>2022-03-16T10:07:24.000Z</time>
      </trkpt>
      <trkpt lat="45.73344" lon="4.62472">
        <ele>623</ele>
        <time>2022-03-16T10:07:32.000Z</time>
      </trkpt>
      <trkpt lat="45.73342" lon="4.62462">
        <ele>624</ele>
        <time>2022-03-16T10:07:38.000Z</time>
      </trkpt>
      <trkpt lat="45.73341" lon="4.62451">
        <ele>625.59997558594</ele>
        <time>2022-03-16T10:07:44.000Z</time>
      </trkpt>
      <trkpt lat="45.73337" lon="4.62436">
        <ele>627</ele>
        <time>2022-03-16T10:07:54.000Z</time>
      </trkpt>
      <trkpt lat="45.73332" lon="4.62427">
        <ele>626.79998779297</ele>
        <time>2022-03-16T10:08:00.000Z</time>
      </trkpt>
      <trkpt lat="45.73331" lon="4.62421">
        <ele>627.59997558594</ele>
        <time>2022-03-16T10:08:04.000Z</time>
      </trkpt>
      <trkpt lat="45.7333" lon="4.62412">
        <ele>627.79998779297</ele>
        <time>2022-03-16T10:08:10.000Z</time>
      </trkpt>
      <trkpt lat="45.7333" lon="4.62403">
        <ele>628.59997558594</ele>
        <time>2022-03-16T10:08:15.000Z</time>
      </trkpt>
      <trkpt lat="45.73331" lon="4.62395">
        <ele>629.79998779297</ele>
        <time>2022-03-16T10:08:22.000Z</time>
      </trkpt>
      <trkpt lat="45.73332" lon="4.62388">
        <ele>630.59997558594</ele>
        <time>2022-03-16T10:08:27.000Z</time>
      </trkpt>
      <trkpt lat="45.73334" lon="4.62372">
        <ele>632.40002441406</ele>
        <time>2022-03-16T10:08:35.000Z</time>
      </trkpt>
      <trkpt lat="45.73335" lon="4.6236">
        <ele>634.20001220703</ele>
        <time>2022-03-16T10:08:42.000Z</time>
      </trkpt>
      <trkpt lat="45.73339" lon="4.62352">
        <ele>636.40002441406</ele>
        <time>2022-03-16T10:08:49.000Z</time>
      </trkpt>
      <trkpt lat="45.73344" lon="4.62344">
        <ele>639</ele>
        <time>2022-03-16T10:08:57.000Z</time>
      </trkpt>
      <trkpt lat="45.73348" lon="4.62336">
        <ele>641.79998779297</ele>
        <time>2022-03-16T10:09:04.000Z</time>
      </trkpt>
      <trkpt lat="45.73351" lon="4.62328">
        <ele>644</ele>
        <time>2022-03-16T10:09:10.000Z</time>
      </trkpt>
      <trkpt lat="45.73353" lon="4.6232">
        <ele>645.59997558594</ele>
        <time>2022-03-16T10:09:16.000Z</time>
      </trkpt>
      <trkpt lat="45.73356" lon="4.62312">
        <ele>647.20001220703</ele>
        <time>2022-03-16T10:09:22.000Z</time>
      </trkpt>
      <trkpt lat="45.73359" lon="4.62303">
        <ele>648.79998779297</ele>
        <time>2022-03-16T10:09:28.000Z</time>
      </trkpt>
      <trkpt lat="45.73358" lon="4.62293">
        <ele>648.59997558594</ele>
        <time>2022-03-16T10:09:35.000Z</time>
      </trkpt>
      <trkpt lat="45.73359" lon="4.62282">
        <ele>649.79998779297</ele>
        <time>2022-03-16T10:09:41.000Z</time>
      </trkpt>
      <trkpt lat="45.73359" lon="4.62276">
        <ele>650</ele>
        <time>2022-03-16T10:09:44.000Z</time>
      </trkpt>
      <trkpt lat="45.7336" lon="4.62273">
        <ele>650.59997558594</ele>
        <time>2022-03-16T10:09:46.000Z</time>
      </trkpt>
      <trkpt lat="45.73359" lon="4.62266">
        <ele>650</ele>
        <time>2022-03-16T10:09:51.000Z</time>
      </trkpt>
      <trkpt lat="45.73359" lon="4.62258">
        <ele>650.20001220703</ele>
        <time>2022-03-16T10:09:56.000Z</time>
      </trkpt>
      <trkpt lat="45.73361" lon="4.62251">
        <ele>650.79998779297</ele>
        <time>2022-03-16T10:10:01.000Z</time>
      </trkpt>
      <trkpt lat="45.73364" lon="4.62241">
        <ele>652.20001220703</ele>
        <time>2022-03-16T10:10:07.000Z</time>
      </trkpt>
      <trkpt lat="45.73366" lon="4.62229">
        <ele>653.20001220703</ele>
        <time>2022-03-16T10:10:13.000Z</time>
      </trkpt>
      <trkpt lat="45.73369" lon="4.62215">
        <ele>653.59997558594</ele>
        <time>2022-03-16T10:10:19.000Z</time>
      </trkpt>
      <trkpt lat="45.73374" lon="4.62198">
        <ele>654.59997558594</ele>
        <time>2022-03-16T10:10:25.000Z</time>
      </trkpt>
      <trkpt lat="45.73376" lon="4.62188">
        <ele>654.79998779297</ele>
        <time>2022-03-16T10:10:28.000Z</time>
      </trkpt>
      <trkpt lat="45.73381" lon="4.62164">
        <ele>654.40002441406</ele>
        <time>2022-03-16T10:10:34.000Z</time>
      </trkpt>
      <trkpt lat="45.73386" lon="4.62148">
        <ele>655.20001220703</ele>
        <time>2022-03-16T10:10:40.000Z</time>
      </trkpt>
      <trkpt lat="45.73388" lon="4.62143">
        <ele>655.20001220703</ele>
        <time>2022-03-16T10:10:43.000Z</time>
      </trkpt>
      <trkpt lat="45.73389" lon="4.62139">
        <ele>655.40002441406</ele>
        <time>2022-03-16T10:10:45.000Z</time>
      </trkpt>
      <trkpt lat="45.73391" lon="4.62126">
        <ele>655.59997558594</ele>
        <time>2022-03-16T10:10:52.000Z</time>
      </trkpt>
      <trkpt lat="45.73392" lon="4.6211">
        <ele>655.20001220703</ele>
        <time>2022-03-16T10:10:59.000Z</time>
      </trkpt>
      <trkpt lat="45.73394" lon="4.621">
        <ele>656.59997558594</ele>
        <time>2022-03-16T10:11:04.000Z</time>
      </trkpt>
      <trkpt lat="45.73394" lon="4.62095">
        <ele>657</ele>
        <time>2022-03-16T10:11:06.000Z</time>
      </trkpt>
      <trkpt lat="45.73396" lon="4.62087">
        <ele>658.20001220703</ele>
        <time>2022-03-16T10:11:09.000Z</time>
      </trkpt>
      <trkpt lat="45.73397" lon="4.62078">
        <ele>659</ele>
        <time>2022-03-16T10:11:13.000Z</time>
      </trkpt>
      <trkpt lat="45.73398" lon="4.62073">
        <ele>659.59997558594</ele>
        <time>2022-03-16T10:11:15.000Z</time>
      </trkpt>
      <trkpt lat="45.73398" lon="4.62071">
        <ele>659.59997558594</ele>
        <time>2022-03-16T10:11:16.000Z</time>
      </trkpt>
      <trkpt lat="45.73398" lon="4.62062">
        <ele>659.59997558594</ele>
        <time>2022-03-16T10:11:20.000Z</time>
      </trkpt>
      <trkpt lat="45.73399" lon="4.62048">
        <ele>660.20001220703</ele>
        <time>2022-03-16T10:11:27.000Z</time>
      </trkpt>
      <trkpt lat="45.73397" lon="4.62036">
        <ele>659.59997558594</ele>
        <time>2022-03-16T10:11:32.000Z</time>
      </trkpt>
      <trkpt lat="45.73396" lon="4.62022">
        <ele>659.59997558594</ele>
        <time>2022-03-16T10:11:38.000Z</time>
      </trkpt>
      <trkpt lat="45.73396" lon="4.62011">
        <ele>659.79998779297</ele>
        <time>2022-03-16T10:11:43.000Z</time>
      </trkpt>
      <trkpt lat="45.73396" lon="4.62001">
        <ele>660.79998779297</ele>
        <time>2022-03-16T10:11:47.000Z</time>
      </trkpt>
      <trkpt lat="45.73396" lon="4.61999">
        <ele>660.79998779297</ele>
        <time>2022-03-16T10:11:48.000Z</time>
      </trkpt>
      <trkpt lat="45.73397" lon="4.61992">
        <ele>662.40002441406</ele>
        <time>2022-03-16T10:11:51.000Z</time>
      </trkpt>
      <trkpt lat="45.73398" lon="4.61988">
        <ele>663.20001220703</ele>
        <time>2022-03-16T10:11:53.000Z</time>
      </trkpt>
      <trkpt lat="45.73396" lon="4.61978">
        <ele>664.20001220703</ele>
        <time>2022-03-16T10:11:57.000Z</time>
      </trkpt>
      <trkpt lat="45.73396" lon="4.61973">
        <ele>665</ele>
        <time>2022-03-16T10:11:59.000Z</time>
      </trkpt>
      <trkpt lat="45.73395" lon="4.61968">
        <ele>665.79998779297</ele>
        <time>2022-03-16T10:12:01.000Z</time>
      </trkpt>
      <trkpt lat="45.73391" lon="4.61961">
        <ele>666</ele>
        <time>2022-03-16T10:12:04.000Z</time>
      </trkpt>
      <trkpt lat="45.73384" lon="4.61949">
        <ele>666.40002441406</ele>
        <time>2022-03-16T10:12:08.000Z</time>
      </trkpt>
      <trkpt lat="45.73378" lon="4.61937">
        <ele>665.79998779297</ele>
        <time>2022-03-16T10:12:10.000Z</time>
      </trkpt>
      <trkpt lat="45.73372" lon="4.61928">
        <ele>664.40002441406</ele>
        <time>2022-03-16T10:12:12.000Z</time>
      </trkpt>
      <trkpt lat="45.7336" lon="4.61912">
        <ele>662.40002441406</ele>
        <time>2022-03-16T10:12:16.000Z</time>
      </trkpt>
      <trkpt lat="45.73337" lon="4.61877">
        <ele>658.59997558594</ele>
        <time>2022-03-16T10:12:22.000Z</time>
      </trkpt>
      <trkpt lat="45.73327" lon="4.61862">
        <ele>657.20001220703</ele>
        <time>2022-03-16T10:12:26.000Z</time>
      </trkpt>
      <trkpt lat="45.73326" lon="4.61859">
        <ele>657</ele>
        <time>2022-03-16T10:12:30.000Z</time>
      </trkpt>
      <trkpt lat="45.73326" lon="4.61855">
        <ele>657.40002441406</ele>
        <time>2022-03-16T10:12:34.000Z</time>
      </trkpt>
      <trkpt lat="45.73325" lon="4.61847">
        <ele>658.20001220703</ele>
        <time>2022-03-16T10:12:38.000Z</time>
      </trkpt>
      <trkpt lat="45.73325" lon="4.61844">
        <ele>658.40002441406</ele>
        <time>2022-03-16T10:12:39.000Z</time>
      </trkpt>
      <trkpt lat="45.73325" lon="4.61842">
        <ele>658.59997558594</ele>
        <time>2022-03-16T10:12:40.000Z</time>
      </trkpt>
      <trkpt lat="45.73321" lon="4.61834">
        <ele>658.20001220703</ele>
        <time>2022-03-16T10:12:45.000Z</time>
      </trkpt>
      <trkpt lat="45.73318" lon="4.61825">
        <ele>658.20001220703</ele>
        <time>2022-03-16T10:12:52.000Z</time>
      </trkpt>
      <trkpt lat="45.73317" lon="4.61824">
        <ele>657.79998779297</ele>
        <time>2022-03-16T10:12:53.000Z</time>
      </trkpt>
      <trkpt lat="45.73314" lon="4.6182">
        <ele>657.20001220703</ele>
        <time>2022-03-16T10:12:56.000Z</time>
      </trkpt>
      <trkpt lat="45.73314" lon="4.61811">
        <ele>658.40002441406</ele>
        <time>2022-03-16T10:13:02.000Z</time>
      </trkpt>
      <trkpt lat="45.73314" lon="4.6181">
        <ele>658.40002441406</ele>
        <time>2022-03-16T10:13:10.000Z</time>
      </trkpt>
      <trkpt lat="45.73314" lon="4.6181">
        <ele>658.59997558594</ele>
        <time>2022-03-16T10:13:19.000Z</time>
      </trkpt>
      <trkpt lat="45.73314" lon="4.6181">
        <ele>658.59997558594</ele>
        <time>2022-03-16T10:13:35.000Z</time>
      </trkpt>
      <trkpt lat="45.73314" lon="4.61809">
        <ele>658.79998779297</ele>
        <time>2022-03-16T10:13:57.000Z</time>
      </trkpt>
      <trkpt lat="45.73314" lon="4.61809">
        <ele>658.79998779297</ele>
        <time>2022-03-16T10:14:13.000Z</time>
      </trkpt>
      <trkpt lat="45.73314" lon="4.61809">
        <ele>658.79998779297</ele>
        <time>2022-03-16T10:14:34.000Z</time>
      </trkpt>
      <trkpt lat="45.73315" lon="4.6181">
        <ele>659</ele>
        <time>2022-03-16T10:14:53.000Z</time>
      </trkpt>
      <trkpt lat="45.73315" lon="4.6181">
        <ele>659</ele>
        <time>2022-03-16T10:15:13.000Z</time>
      </trkpt>
      <trkpt lat="45.73315" lon="4.6181">
        <ele>659</ele>
        <time>2022-03-16T10:15:30.000Z</time>
      </trkpt>
      <trkpt lat="45.73315" lon="4.6181">
        <ele>659</ele>
        <time>2022-03-16T10:15:50.000Z</time>
      </trkpt>
      <trkpt lat="45.73315" lon="4.61809">
        <ele>659</ele>
        <time>2022-03-16T10:16:01.000Z</time>
      </trkpt>
      <trkpt lat="45.73314" lon="4.61806">
        <ele>658.79998779297</ele>
        <time>2022-03-16T10:16:02.000Z</time>
      </trkpt>
      <trkpt lat="45.73312" lon="4.61795">
        <ele>659.20001220703</ele>
        <time>2022-03-16T10:16:05.000Z</time>
      </trkpt>
      <trkpt lat="45.7331" lon="4.61787">
        <ele>659.40002441406</ele>
        <time>2022-03-16T10:16:07.000Z</time>
      </trkpt>
      <trkpt lat="45.73308" lon="4.61778">
        <ele>659.59997558594</ele>
        <time>2022-03-16T10:16:09.000Z</time>
      </trkpt>
      <trkpt lat="45.73303" lon="4.61757">
        <ele>658.40002441406</ele>
        <time>2022-03-16T10:16:13.000Z</time>
      </trkpt>
      <trkpt lat="45.73297" lon="4.61734">
        <ele>656.40002441406</ele>
        <time>2022-03-16T10:16:16.000Z</time>
      </trkpt>
      <trkpt lat="45.73292" lon="4.61716">
        <ele>654</ele>
        <time>2022-03-16T10:16:18.000Z</time>
      </trkpt>
      <trkpt lat="45.7329" lon="4.61696">
        <ele>652</ele>
        <time>2022-03-16T10:16:20.000Z</time>
      </trkpt>
      <trkpt lat="45.7329" lon="4.61673">
        <ele>649.59997558594</ele>
        <time>2022-03-16T10:16:22.000Z</time>
      </trkpt>
      <trkpt lat="45.73291" lon="4.61663">
        <ele>648.59997558594</ele>
        <time>2022-03-16T10:16:23.000Z</time>
      </trkpt>
      <trkpt lat="45.73295" lon="4.61652">
        <ele>647.79998779297</ele>
        <time>2022-03-16T10:16:25.000Z</time>
      </trkpt>
      <trkpt lat="45.73297" lon="4.61648">
        <ele>648.20001220703</ele>
        <time>2022-03-16T10:16:28.000Z</time>
      </trkpt>
      <trkpt lat="45.73298" lon="4.61646">
        <ele>648.20001220703</ele>
        <time>2022-03-16T10:16:35.000Z</time>
      </trkpt>
      <trkpt lat="45.733" lon="4.61638">
        <ele>647.59997558594</ele>
        <time>2022-03-16T10:16:37.000Z</time>
      </trkpt>
      <trkpt lat="45.73302" lon="4.61625">
        <ele>646.40002441406</ele>
        <time>2022-03-16T10:16:40.000Z</time>
      </trkpt>
      <trkpt lat="45.73301" lon="4.61623">
        <ele>646</ele>
        <time>2022-03-16T10:16:41.000Z</time>
      </trkpt>
      <trkpt lat="45.73301" lon="4.61623">
        <ele>645.79998779297</ele>
        <time>2022-03-16T10:16:52.000Z</time>
      </trkpt>
      <trkpt lat="45.73304" lon="4.61626">
        <ele>647.59997558594</ele>
        <time>2022-03-16T10:16:57.000Z</time>
      </trkpt>
      <trkpt lat="45.73304" lon="4.61629">
        <ele>648</ele>
        <time>2022-03-16T10:16:59.000Z</time>
      </trkpt>
      <trkpt lat="45.73305" lon="4.61634">
        <ele>649.20001220703</ele>
        <time>2022-03-16T10:17:02.000Z</time>
      </trkpt>
      <trkpt lat="45.73308" lon="4.61634">
        <ele>650.20001220703</ele>
        <time>2022-03-16T10:17:06.000Z</time>
      </trkpt>
      <trkpt lat="45.7331" lon="4.61632">
        <ele>651</ele>
        <time>2022-03-16T10:17:11.000Z</time>
      </trkpt>
      <trkpt lat="45.73313" lon="4.61631">
        <ele>651.79998779297</ele>
        <time>2022-03-16T10:17:18.000Z</time>
      </trkpt>
      <trkpt lat="45.73317" lon="4.61628">
        <ele>652.59997558594</ele>
        <time>2022-03-16T10:17:27.000Z</time>
      </trkpt>
      <trkpt lat="45.73319" lon="4.61624">
        <ele>653</ele>
        <time>2022-03-16T10:17:32.000Z</time>
      </trkpt>
      <trkpt lat="45.73324" lon="4.6162">
        <ele>653.79998779297</ele>
        <time>2022-03-16T10:17:36.000Z</time>
      </trkpt>
      <trkpt lat="45.73327" lon="4.61616">
        <ele>654.20001220703</ele>
        <time>2022-03-16T10:17:41.000Z</time>
      </trkpt>
      <trkpt lat="45.73329" lon="4.61613">
        <ele>654.40002441406</ele>
        <time>2022-03-16T10:17:46.000Z</time>
      </trkpt>
      <trkpt lat="45.7333" lon="4.6161">
        <ele>654.20001220703</ele>
        <time>2022-03-16T10:17:51.000Z</time>
      </trkpt>
      <trkpt lat="45.73336" lon="4.61607">
        <ele>655.40002441406</ele>
        <time>2022-03-16T10:17:57.000Z</time>
      </trkpt>
      <trkpt lat="45.73341" lon="4.61598">
        <ele>655.79998779297</ele>
        <time>2022-03-16T10:18:04.000Z</time>
      </trkpt>
      <trkpt lat="45.73342" lon="4.61597">
        <ele>656</ele>
        <time>2022-03-16T10:18:10.000Z</time>
      </trkpt>
      <trkpt lat="45.73344" lon="4.61594">
        <ele>656.40002441406</ele>
        <time>2022-03-16T10:18:14.000Z</time>
      </trkpt>
      <trkpt lat="45.73347" lon="4.6159">
        <ele>656.40002441406</ele>
        <time>2022-03-16T10:18:21.000Z</time>
      </trkpt>
      <trkpt lat="45.73348" lon="4.61587">
        <ele>656.40002441406</ele>
        <time>2022-03-16T10:18:22.000Z</time>
      </trkpt>
      <trkpt lat="45.73352" lon="4.61577">
        <ele>656.20001220703</ele>
        <time>2022-03-16T10:18:25.000Z</time>
      </trkpt>
      <trkpt lat="45.73358" lon="4.61563">
        <ele>656</ele>
        <time>2022-03-16T10:18:29.000Z</time>
      </trkpt>
      <trkpt lat="45.73362" lon="4.61557">
        <ele>656</ele>
        <time>2022-03-16T10:18:31.000Z</time>
      </trkpt>
      <trkpt lat="45.73365" lon="4.6155">
        <ele>656.20001220703</ele>
        <time>2022-03-16T10:18:33.000Z</time>
      </trkpt>
      <trkpt lat="45.73366" lon="4.61546">
        <ele>656</ele>
        <time>2022-03-16T10:18:34.000Z</time>
      </trkpt>
      <trkpt lat="45.73369" lon="4.61534">
        <ele>656</ele>
        <time>2022-03-16T10:18:37.000Z</time>
      </trkpt>
      <trkpt lat="45.73371" lon="4.61521">
        <ele>656.59997558594</ele>
        <time>2022-03-16T10:18:40.000Z</time>
      </trkpt>
      <trkpt lat="45.73372" lon="4.61517">
        <ele>657.20001220703</ele>
        <time>2022-03-16T10:18:41.000Z</time>
      </trkpt>
      <trkpt lat="45.73378" lon="4.615">
        <ele>658.59997558594</ele>
        <time>2022-03-16T10:18:45.000Z</time>
      </trkpt>
      <trkpt lat="45.73383" lon="4.61476">
        <ele>659.59997558594</ele>
        <time>2022-03-16T10:18:49.000Z</time>
      </trkpt>
      <trkpt lat="45.73384" lon="4.61469">
        <ele>660.59997558594</ele>
        <time>2022-03-16T10:18:50.000Z</time>
      </trkpt>
      <trkpt lat="45.73388" lon="4.61456">
        <ele>662.40002441406</ele>
        <time>2022-03-16T10:18:52.000Z</time>
      </trkpt>
      <trkpt lat="45.73391" lon="4.61445">
        <ele>664</ele>
        <time>2022-03-16T10:18:54.000Z</time>
      </trkpt>
      <trkpt lat="45.73397" lon="4.61429">
        <ele>667.79998779297</ele>
        <time>2022-03-16T10:18:58.000Z</time>
      </trkpt>
      <trkpt lat="45.734" lon="4.61416">
        <ele>670.20001220703</ele>
        <time>2022-03-16T10:19:02.000Z</time>
      </trkpt>
      <trkpt lat="45.73397" lon="4.61412">
        <ele>670.20001220703</ele>
        <time>2022-03-16T10:19:05.000Z</time>
      </trkpt>
      <trkpt lat="45.73396" lon="4.61412">
        <ele>669.79998779297</ele>
        <time>2022-03-16T10:19:06.000Z</time>
      </trkpt>
      <trkpt lat="45.73386" lon="4.61413">
        <ele>668</ele>
        <time>2022-03-16T10:19:11.000Z</time>
      </trkpt>
      <trkpt lat="45.73369" lon="4.61412">
        <ele>663.79998779297</ele>
        <time>2022-03-16T10:19:15.000Z</time>
      </trkpt>
      <trkpt lat="45.73356" lon="4.61406">
        <ele>664.59997558594</ele>
        <time>2022-03-16T10:19:18.000Z</time>
      </trkpt>
      <trkpt lat="45.73352" lon="4.61406">
        <ele>664.40002441406</ele>
        <time>2022-03-16T10:19:19.000Z</time>
      </trkpt>
      <trkpt lat="45.73335" lon="4.61405">
        <ele>663.59997558594</ele>
        <time>2022-03-16T10:19:22.000Z</time>
      </trkpt>
      <trkpt lat="45.73323" lon="4.61404">
        <ele>664.20001220703</ele>
        <time>2022-03-16T10:19:24.000Z</time>
      </trkpt>
      <trkpt lat="45.73313" lon="4.61401">
        <ele>665.40002441406</ele>
        <time>2022-03-16T10:19:26.000Z</time>
      </trkpt>
      <trkpt lat="45.73304" lon="4.61399">
        <ele>665.20001220703</ele>
        <time>2022-03-16T10:19:30.000Z</time>
      </trkpt>
      <trkpt lat="45.73302" lon="4.61398">
        <ele>665.20001220703</ele>
        <time>2022-03-16T10:19:31.000Z</time>
      </trkpt>
      <trkpt lat="45.73297" lon="4.61396">
        <ele>665.40002441406</ele>
        <time>2022-03-16T10:19:34.000Z</time>
      </trkpt>
      <trkpt lat="45.73286" lon="4.61388">
        <ele>666.20001220703</ele>
        <time>2022-03-16T10:19:40.000Z</time>
      </trkpt>
      <trkpt lat="45.73278" lon="4.6138">
        <ele>666</ele>
        <time>2022-03-16T10:19:46.000Z</time>
      </trkpt>
      <trkpt lat="45.73268" lon="4.61366">
        <ele>666.40002441406</ele>
        <time>2022-03-16T10:19:53.000Z</time>
      </trkpt>
      <trkpt lat="45.73255" lon="4.61349">
        <ele>664.20001220703</ele>
        <time>2022-03-16T10:19:58.000Z</time>
      </trkpt>
      <trkpt lat="45.73245" lon="4.61332">
        <ele>663.40002441406</ele>
        <time>2022-03-16T10:20:01.000Z</time>
      </trkpt>
      <trkpt lat="45.73244" lon="4.61327">
        <ele>663.79998779297</ele>
        <time>2022-03-16T10:20:02.000Z</time>
      </trkpt>
      <trkpt lat="45.73236" lon="4.61305">
        <ele>664.40002441406</ele>
        <time>2022-03-16T10:20:07.000Z</time>
      </trkpt>
      <trkpt lat="45.73232" lon="4.61288">
        <ele>664.40002441406</ele>
        <time>2022-03-16T10:20:10.000Z</time>
      </trkpt>
      <trkpt lat="45.73231" lon="4.61275">
        <ele>664.79998779297</ele>
        <time>2022-03-16T10:20:12.000Z</time>
      </trkpt>
      <trkpt lat="45.73231" lon="4.6124">
        <ele>666.40002441406</ele>
        <time>2022-03-16T10:20:18.000Z</time>
      </trkpt>
      <trkpt lat="45.73232" lon="4.61217">
        <ele>667.20001220703</ele>
        <time>2022-03-16T10:20:23.000Z</time>
      </trkpt>
      <trkpt lat="45.7323" lon="4.61209">
        <ele>666.40002441406</ele>
        <time>2022-03-16T10:20:25.000Z</time>
      </trkpt>
      <trkpt lat="45.73228" lon="4.61206">
        <ele>665.79998779297</ele>
        <time>2022-03-16T10:20:26.000Z</time>
      </trkpt>
      <trkpt lat="45.73227" lon="4.61184">
        <ele>666.20001220703</ele>
        <time>2022-03-16T10:20:30.000Z</time>
      </trkpt>
      <trkpt lat="45.73227" lon="4.61169">
        <ele>666.79998779297</ele>
        <time>2022-03-16T10:20:33.000Z</time>
      </trkpt>
      <trkpt lat="45.73226" lon="4.61163">
        <ele>667.79998779297</ele>
        <time>2022-03-16T10:20:34.000Z</time>
      </trkpt>
      <trkpt lat="45.73222" lon="4.6114">
        <ele>671</ele>
        <time>2022-03-16T10:20:38.000Z</time>
      </trkpt>
      <trkpt lat="45.73219" lon="4.61128">
        <ele>672.40002441406</ele>
        <time>2022-03-16T10:20:41.000Z</time>
      </trkpt>
      <trkpt lat="45.73218" lon="4.61125">
        <ele>673</ele>
        <time>2022-03-16T10:20:42.000Z</time>
      </trkpt>
      <trkpt lat="45.73217" lon="4.61119">
        <ele>673.79998779297</ele>
        <time>2022-03-16T10:20:44.000Z</time>
      </trkpt>
      <trkpt lat="45.73217" lon="4.61116">
        <ele>674</ele>
        <time>2022-03-16T10:20:45.000Z</time>
      </trkpt>
      <trkpt lat="45.73213" lon="4.61101">
        <ele>676</ele>
        <time>2022-03-16T10:20:49.000Z</time>
      </trkpt>
      <trkpt lat="45.7321" lon="4.61094">
        <ele>676.79998779297</ele>
        <time>2022-03-16T10:20:53.000Z</time>
      </trkpt>
      <trkpt lat="45.7321" lon="4.61094">
        <ele>676.79998779297</ele>
        <time>2022-03-16T10:21:01.000Z</time>
      </trkpt>
      <trkpt lat="45.7321" lon="4.61094">
        <ele>676.79998779297</ele>
        <time>2022-03-16T10:21:14.000Z</time>
      </trkpt>
      <trkpt lat="45.73208" lon="4.61091">
        <ele>677</ele>
        <time>2022-03-16T10:21:38.000Z</time>
      </trkpt>
      <trkpt lat="45.73208" lon="4.61091">
        <ele>677</ele>
        <time>2022-03-16T10:21:52.000Z</time>
      </trkpt>
      <trkpt lat="45.73208" lon="4.61091">
        <ele>677</ele>
        <time>2022-03-16T10:22:11.000Z</time>
      </trkpt>
      <trkpt lat="45.73208" lon="4.6109">
        <ele>677.40002441406</ele>
        <time>2022-03-16T10:22:28.000Z</time>
      </trkpt>
      <trkpt lat="45.73206" lon="4.61088">
        <ele>677.40002441406</ele>
        <time>2022-03-16T10:22:36.000Z</time>
      </trkpt>
      <trkpt lat="45.73196" lon="4.61083">
        <ele>677.59997558594</ele>
        <time>2022-03-16T10:22:41.000Z</time>
      </trkpt>
      <trkpt lat="45.73188" lon="4.6108">
        <ele>678.40002441406</ele>
        <time>2022-03-16T10:22:46.000Z</time>
      </trkpt>
      <trkpt lat="45.73188" lon="4.6108">
        <ele>678.40002441406</ele>
        <time>2022-03-16T10:22:51.000Z</time>
      </trkpt>
      <trkpt lat="45.73188" lon="4.6108">
        <ele>678.40002441406</ele>
        <time>2022-03-16T10:22:57.000Z</time>
      </trkpt>
      <trkpt lat="45.73186" lon="4.61081">
        <ele>678.40002441406</ele>
        <time>2022-03-16T10:23:03.000Z</time>
      </trkpt>
      <trkpt lat="45.73183" lon="4.61082">
        <ele>678.40002441406</ele>
        <time>2022-03-16T10:23:08.000Z</time>
      </trkpt>
      <trkpt lat="45.73182" lon="4.61082">
        <ele>678.40002441406</ele>
        <time>2022-03-16T10:23:17.000Z</time>
      </trkpt>
      <trkpt lat="45.73182" lon="4.61082">
        <ele>678.40002441406</ele>
        <time>2022-03-16T10:23:35.000Z</time>
      </trkpt>
      <trkpt lat="45.73182" lon="4.61081">
        <ele>678.59997558594</ele>
        <time>2022-03-16T10:23:55.000Z</time>
      </trkpt>
      <trkpt lat="45.73182" lon="4.61081">
        <ele>678.59997558594</ele>
        <time>2022-03-16T10:24:01.000Z</time>
      </trkpt>
      <trkpt lat="45.73182" lon="4.61081">
        <ele>678.59997558594</ele>
        <time>2022-03-16T10:24:06.000Z</time>
      </trkpt>
      <trkpt lat="45.7318" lon="4.61083">
        <ele>678.20001220703</ele>
        <time>2022-03-16T10:24:07.000Z</time>
      </trkpt>
      <trkpt lat="45.73172" lon="4.61094">
        <ele>677</ele>
        <time>2022-03-16T10:24:10.000Z</time>
      </trkpt>
      <trkpt lat="45.73158" lon="4.61109">
        <ele>676.20001220703</ele>
        <time>2022-03-16T10:24:15.000Z</time>
      </trkpt>
      <trkpt lat="45.73142" lon="4.61124">
        <ele>675.40002441406</ele>
        <time>2022-03-16T10:24:20.000Z</time>
      </trkpt>
      <trkpt lat="45.73125" lon="4.61135">
        <ele>674</ele>
        <time>2022-03-16T10:24:25.000Z</time>
      </trkpt>
      <trkpt lat="45.73108" lon="4.61146">
        <ele>671.20001220703</ele>
        <time>2022-03-16T10:24:30.000Z</time>
      </trkpt>
      <trkpt lat="45.73098" lon="4.61152">
        <ele>669.79998779297</ele>
        <time>2022-03-16T10:24:33.000Z</time>
      </trkpt>
      <trkpt lat="45.73094" lon="4.61154">
        <ele>669.59997558594</ele>
        <time>2022-03-16T10:24:34.000Z</time>
      </trkpt>
      <trkpt lat="45.73089" lon="4.61157">
        <ele>669.40002441406</ele>
        <time>2022-03-16T10:24:35.000Z</time>
      </trkpt>
      <trkpt lat="45.73076" lon="4.61167">
        <ele>669.40002441406</ele>
        <time>2022-03-16T10:24:38.000Z</time>
      </trkpt>
      <trkpt lat="45.73072" lon="4.61171">
        <ele>669.40002441406</ele>
        <time>2022-03-16T10:24:39.000Z</time>
      </trkpt>
      <trkpt lat="45.73061" lon="4.61183">
        <ele>669.40002441406</ele>
        <time>2022-03-16T10:24:42.000Z</time>
      </trkpt>
      <trkpt lat="45.73058" lon="4.61188">
        <ele>669.59997558594</ele>
        <time>2022-03-16T10:24:43.000Z</time>
      </trkpt>
      <trkpt lat="45.73054" lon="4.61192">
        <ele>669.59997558594</ele>
        <time>2022-03-16T10:24:44.000Z</time>
      </trkpt>
      <trkpt lat="45.73044" lon="4.61205">
        <ele>669.20001220703</ele>
        <time>2022-03-16T10:24:47.000Z</time>
      </trkpt>
      <trkpt lat="45.73036" lon="4.61215">
        <ele>668.40002441406</ele>
        <time>2022-03-16T10:24:49.000Z</time>
      </trkpt>
      <trkpt lat="45.73027" lon="4.61226">
        <ele>667.59997558594</ele>
        <time>2022-03-16T10:24:51.000Z</time>
      </trkpt>
      <trkpt lat="45.73022" lon="4.61231">
        <ele>667</ele>
        <time>2022-03-16T10:24:52.000Z</time>
      </trkpt>
      <trkpt lat="45.73012" lon="4.6124">
        <ele>666.20001220703</ele>
        <time>2022-03-16T10:24:54.000Z</time>
      </trkpt>
      <trkpt lat="45.73007" lon="4.61244">
        <ele>666</ele>
        <time>2022-03-16T10:24:55.000Z</time>
      </trkpt>
      <trkpt lat="45.73002" lon="4.61246">
        <ele>665.79998779297</ele>
        <time>2022-03-16T10:24:56.000Z</time>
      </trkpt>
      <trkpt lat="45.72994" lon="4.61247">
        <ele>665.79998779297</ele>
        <time>2022-03-16T10:24:58.000Z</time>
      </trkpt>
      <trkpt lat="45.72984" lon="4.61247">
        <ele>666.20001220703</ele>
        <time>2022-03-16T10:25:02.000Z</time>
      </trkpt>
      <trkpt lat="45.72976" lon="4.61246">
        <ele>666.59997558594</ele>
        <time>2022-03-16T10:25:07.000Z</time>
      </trkpt>
      <trkpt lat="45.72972" lon="4.61246">
        <ele>666.79998779297</ele>
        <time>2022-03-16T10:25:09.000Z</time>
      </trkpt>
      <trkpt lat="45.72968" lon="4.61246">
        <ele>666.79998779297</ele>
        <time>2022-03-16T10:25:12.000Z</time>
      </trkpt>
      <trkpt lat="45.72957" lon="4.61247">
        <ele>666.59997558594</ele>
        <time>2022-03-16T10:25:17.000Z</time>
      </trkpt>
      <trkpt lat="45.72947" lon="4.61246">
        <ele>666.79998779297</ele>
        <time>2022-03-16T10:25:22.000Z</time>
      </trkpt>
      <trkpt lat="45.72934" lon="4.61243">
        <ele>667.59997558594</ele>
        <time>2022-03-16T10:25:28.000Z</time>
      </trkpt>
      <trkpt lat="45.72923" lon="4.61237">
        <ele>669</ele>
        <time>2022-03-16T10:25:33.000Z</time>
      </trkpt>
      <trkpt lat="45.72914" lon="4.61231">
        <ele>670</ele>
        <time>2022-03-16T10:25:37.000Z</time>
      </trkpt>
      <trkpt lat="45.72905" lon="4.61224">
        <ele>670.79998779297</ele>
        <time>2022-03-16T10:25:41.000Z</time>
      </trkpt>
      <trkpt lat="45.72903" lon="4.61222">
        <ele>671.20001220703</ele>
        <time>2022-03-16T10:25:42.000Z</time>
      </trkpt>
      <trkpt lat="45.72893" lon="4.61216">
        <ele>671.20001220703</ele>
        <time>2022-03-16T10:25:46.000Z</time>
      </trkpt>
      <trkpt lat="45.72878" lon="4.61207">
        <ele>669.79998779297</ele>
        <time>2022-03-16T10:25:51.000Z</time>
      </trkpt>
      <trkpt lat="45.72865" lon="4.61198">
        <ele>668.79998779297</ele>
        <time>2022-03-16T10:25:55.000Z</time>
      </trkpt>
      <trkpt lat="45.72848" lon="4.61186">
        <ele>669.20001220703</ele>
        <time>2022-03-16T10:26:00.000Z</time>
      </trkpt>
      <trkpt lat="45.72845" lon="4.61183">
        <ele>669.40002441406</ele>
        <time>2022-03-16T10:26:01.000Z</time>
      </trkpt>
      <trkpt lat="45.72839" lon="4.6118">
        <ele>669.59997558594</ele>
        <time>2022-03-16T10:26:03.000Z</time>
      </trkpt>
      <trkpt lat="45.72824" lon="4.61176">
        <ele>671.20001220703</ele>
        <time>2022-03-16T10:26:07.000Z</time>
      </trkpt>
      <trkpt lat="45.728" lon="4.61175">
        <ele>672.59997558594</ele>
        <time>2022-03-16T10:26:11.000Z</time>
      </trkpt>
      <trkpt lat="45.72774" lon="4.61185">
        <ele>674.40002441406</ele>
        <time>2022-03-16T10:26:15.000Z</time>
      </trkpt>
      <trkpt lat="45.72753" lon="4.61192">
        <ele>676.59997558594</ele>
        <time>2022-03-16T10:26:19.000Z</time>
      </trkpt>
      <trkpt lat="45.72742" lon="4.61195">
        <ele>679</ele>
        <time>2022-03-16T10:26:23.000Z</time>
      </trkpt>
      <trkpt lat="45.72733" lon="4.61203">
        <ele>679.79998779297</ele>
        <time>2022-03-16T10:26:26.000Z</time>
      </trkpt>
      <trkpt lat="45.72729" lon="4.61205">
        <ele>680.40002441406</ele>
        <time>2022-03-16T10:26:27.000Z</time>
      </trkpt>
      <trkpt lat="45.72713" lon="4.61214">
        <ele>681</ele>
        <time>2022-03-16T10:26:32.000Z</time>
      </trkpt>
      <trkpt lat="45.72704" lon="4.61218">
        <ele>681.40002441406</ele>
        <time>2022-03-16T10:26:36.000Z</time>
      </trkpt>
      <trkpt lat="45.72704" lon="4.61218">
        <ele>681.40002441406</ele>
        <time>2022-03-16T10:26:45.000Z</time>
      </trkpt>
      <trkpt lat="45.72704" lon="4.61217">
        <ele>681.59997558594</ele>
        <time>2022-03-16T10:26:52.000Z</time>
      </trkpt>
      <trkpt lat="45.72713" lon="4.6121">
        <ele>682</ele>
        <time>2022-03-16T10:26:57.000Z</time>
      </trkpt>
      <trkpt lat="45.72727" lon="4.612">
        <ele>681.79998779297</ele>
        <time>2022-03-16T10:27:02.000Z</time>
      </trkpt>
      <trkpt lat="45.72731" lon="4.61196">
        <ele>681.59997558594</ele>
        <time>2022-03-16T10:27:05.000Z</time>
      </trkpt>
      <trkpt lat="45.7273" lon="4.61197">
        <ele>681.59997558594</ele>
        <time>2022-03-16T10:27:09.000Z</time>
      </trkpt>
      <trkpt lat="45.72729" lon="4.61196">
        <ele>682.40002441406</ele>
        <time>2022-03-16T10:27:15.000Z</time>
      </trkpt>
      <trkpt lat="45.72728" lon="4.61194">
        <ele>682.79998779297</ele>
        <time>2022-03-16T10:27:25.000Z</time>
      </trkpt>
      <trkpt lat="45.72728" lon="4.61189">
        <ele>683.59997558594</ele>
        <time>2022-03-16T10:27:32.000Z</time>
      </trkpt>
      <trkpt lat="45.72727" lon="4.61186">
        <ele>684.40002441406</ele>
        <time>2022-03-16T10:27:36.000Z</time>
      </trkpt>
      <trkpt lat="45.72729" lon="4.61181">
        <ele>684.79998779297</ele>
        <time>2022-03-16T10:27:45.000Z</time>
      </trkpt>
      <trkpt lat="45.72731" lon="4.61176">
        <ele>685.20001220703</ele>
        <time>2022-03-16T10:27:50.000Z</time>
      </trkpt>
      <trkpt lat="45.72735" lon="4.61168">
        <ele>685.59997558594</ele>
        <time>2022-03-16T10:27:55.000Z</time>
      </trkpt>
      <trkpt lat="45.72737" lon="4.61165">
        <ele>685.79998779297</ele>
        <time>2022-03-16T10:28:02.000Z</time>
      </trkpt>
      <trkpt lat="45.72739" lon="4.61159">
        <ele>686.40002441406</ele>
        <time>2022-03-16T10:28:08.000Z</time>
      </trkpt>
      <trkpt lat="45.72741" lon="4.61158">
        <ele>686.20001220703</ele>
        <time>2022-03-16T10:28:14.000Z</time>
      </trkpt>
      <trkpt lat="45.72741" lon="4.61158">
        <ele>686.20001220703</ele>
        <time>2022-03-16T10:28:26.000Z</time>
      </trkpt>
      <trkpt lat="45.72742" lon="4.61156">
        <ele>686.20001220703</ele>
        <time>2022-03-16T10:28:39.000Z</time>
      </trkpt>
      <trkpt lat="45.72746" lon="4.61152">
        <ele>685.59997558594</ele>
        <time>2022-03-16T10:28:45.000Z</time>
      </trkpt>
      <trkpt lat="45.7275" lon="4.61139">
        <ele>686</ele>
        <time>2022-03-16T10:28:52.000Z</time>
      </trkpt>
      <trkpt lat="45.7275" lon="4.61131">
        <ele>687.20001220703</ele>
        <time>2022-03-16T10:28:56.000Z</time>
      </trkpt>
      <trkpt lat="45.72749" lon="4.61129">
        <ele>687.79998779297</ele>
        <time>2022-03-16T10:28:58.000Z</time>
      </trkpt>
      <trkpt lat="45.72749" lon="4.61125">
        <ele>688.20001220703</ele>
        <time>2022-03-16T10:29:00.000Z</time>
      </trkpt>
      <trkpt lat="45.72749" lon="4.61118">
        <ele>689.20001220703</ele>
        <time>2022-03-16T10:29:05.000Z</time>
      </trkpt>
      <trkpt lat="45.72751" lon="4.61107">
        <ele>690.59997558594</ele>
        <time>2022-03-16T10:29:12.000Z</time>
      </trkpt>
      <trkpt lat="45.72751" lon="4.611">
        <ele>691.40002441406</ele>
        <time>2022-03-16T10:29:16.000Z</time>
      </trkpt>
      <trkpt lat="45.72752" lon="4.61092">
        <ele>692.40002441406</ele>
        <time>2022-03-16T10:29:21.000Z</time>
      </trkpt>
      <trkpt lat="45.72753" lon="4.61084">
        <ele>693.20001220703</ele>
        <time>2022-03-16T10:29:26.000Z</time>
      </trkpt>
      <trkpt lat="45.72753" lon="4.6108">
        <ele>693.40002441406</ele>
        <time>2022-03-16T10:29:28.000Z</time>
      </trkpt>
      <trkpt lat="45.72756" lon="4.61075">
        <ele>693</ele>
        <time>2022-03-16T10:29:32.000Z</time>
      </trkpt>
      <trkpt lat="45.72758" lon="4.61066">
        <ele>693.20001220703</ele>
        <time>2022-03-16T10:29:38.000Z</time>
      </trkpt>
      <trkpt lat="45.72761" lon="4.6106">
        <ele>693.40002441406</ele>
        <time>2022-03-16T10:29:43.000Z</time>
      </trkpt>
      <trkpt lat="45.72763" lon="4.61056">
        <ele>693.59997558594</ele>
        <time>2022-03-16T10:29:46.000Z</time>
      </trkpt>
      <trkpt lat="45.72768" lon="4.61049">
        <ele>694.20001220703</ele>
        <time>2022-03-16T10:29:53.000Z</time>
      </trkpt>
      <trkpt lat="45.72775" lon="4.61041">
        <ele>694.79998779297</ele>
        <time>2022-03-16T10:30:00.000Z</time>
      </trkpt>
      <trkpt lat="45.72781" lon="4.61037">
        <ele>695</ele>
        <time>2022-03-16T10:30:05.000Z</time>
      </trkpt>
      <trkpt lat="45.72782" lon="4.61036">
        <ele>695.20001220703</ele>
        <time>2022-03-16T10:30:06.000Z</time>
      </trkpt>
      <trkpt lat="45.72789" lon="4.6103">
        <ele>696.20001220703</ele>
        <time>2022-03-16T10:30:13.000Z</time>
      </trkpt>
      <trkpt lat="45.72798" lon="4.61022">
        <ele>697.40002441406</ele>
        <time>2022-03-16T10:30:20.000Z</time>
      </trkpt>
      <trkpt lat="45.72808" lon="4.61014">
        <ele>699.59997558594</ele>
        <time>2022-03-16T10:30:28.000Z</time>
      </trkpt>
      <trkpt lat="45.72816" lon="4.61008">
        <ele>701.40002441406</ele>
        <time>2022-03-16T10:30:35.000Z</time>
      </trkpt>
      <trkpt lat="45.72817" lon="4.61008">
        <ele>701.59997558594</ele>
        <time>2022-03-16T10:30:36.000Z</time>
      </trkpt>
      <trkpt lat="45.72823" lon="4.6101">
        <ele>702.20001220703</ele>
        <time>2022-03-16T10:30:41.000Z</time>
      </trkpt>
      <trkpt lat="45.72832" lon="4.61017">
        <ele>702.20001220703</ele>
        <time>2022-03-16T10:30:48.000Z</time>
      </trkpt>
      <trkpt lat="45.72834" lon="4.61012">
        <ele>703.79998779297</ele>
        <time>2022-03-16T10:30:51.000Z</time>
      </trkpt>
      <trkpt lat="45.72833" lon="4.61011">
        <ele>703.79998779297</ele>
        <time>2022-03-16T10:30:52.000Z</time>
      </trkpt>
      <trkpt lat="45.72829" lon="4.61005">
        <ele>704.40002441406</ele>
        <time>2022-03-16T10:30:58.000Z</time>
      </trkpt>
      <trkpt lat="45.72824" lon="4.60999">
        <ele>704.79998779297</ele>
        <time>2022-03-16T10:31:03.000Z</time>
      </trkpt>
      <trkpt lat="45.7282" lon="4.60995">
        <ele>705.20001220703</ele>
        <time>2022-03-16T10:31:06.000Z</time>
      </trkpt>
      <trkpt lat="45.72817" lon="4.6099">
        <ele>705.79998779297</ele>
        <time>2022-03-16T10:31:09.000Z</time>
      </trkpt>
      <trkpt lat="45.72811" lon="4.60979">
        <ele>707</ele>
        <time>2022-03-16T10:31:16.000Z</time>
      </trkpt>
      <trkpt lat="45.72805" lon="4.60966">
        <ele>708.79998779297</ele>
        <time>2022-03-16T10:31:25.000Z</time>
      </trkpt>
      <trkpt lat="45.72796" lon="4.60957">
        <ele>709.20001220703</ele>
        <time>2022-03-16T10:31:32.000Z</time>
      </trkpt>
      <trkpt lat="45.72789" lon="4.60951">
        <ele>709.20001220703</ele>
        <time>2022-03-16T10:31:38.000Z</time>
      </trkpt>
      <trkpt lat="45.72779" lon="4.60945">
        <ele>710</ele>
        <time>2022-03-16T10:31:45.000Z</time>
      </trkpt>
      <trkpt lat="45.72769" lon="4.60942">
        <ele>711.20001220703</ele>
        <time>2022-03-16T10:31:52.000Z</time>
      </trkpt>
      <trkpt lat="45.72758" lon="4.60942">
        <ele>711.59997558594</ele>
        <time>2022-03-16T10:31:59.000Z</time>
      </trkpt>
      <trkpt lat="45.72746" lon="4.60942">
        <ele>712.79998779297</ele>
        <time>2022-03-16T10:32:06.000Z</time>
      </trkpt>
      <trkpt lat="45.72738" lon="4.60946">
        <ele>712.59997558594</ele>
        <time>2022-03-16T10:32:12.000Z</time>
      </trkpt>
      <trkpt lat="45.72727" lon="4.60952">
        <ele>712.79998779297</ele>
        <time>2022-03-16T10:32:19.000Z</time>
      </trkpt>
      <trkpt lat="45.72722" lon="4.6096">
        <ele>713.79998779297</ele>
        <time>2022-03-16T10:32:24.000Z</time>
      </trkpt>
      <trkpt lat="45.72714" lon="4.60965">
        <ele>715.40002441406</ele>
        <time>2022-03-16T10:32:30.000Z</time>
      </trkpt>
      <trkpt lat="45.72707" lon="4.60973">
        <ele>716.20001220703</ele>
        <time>2022-03-16T10:32:36.000Z</time>
      </trkpt>
      <trkpt lat="45.72706" lon="4.60975">
        <ele>716.20001220703</ele>
        <time>2022-03-16T10:32:37.000Z</time>
      </trkpt>
      <trkpt lat="45.72698" lon="4.60984">
        <ele>718.40002441406</ele>
        <time>2022-03-16T10:32:44.000Z</time>
      </trkpt>
      <trkpt lat="45.7269" lon="4.60992">
        <ele>720.40002441406</ele>
        <time>2022-03-16T10:32:52.000Z</time>
      </trkpt>
      <trkpt lat="45.72688" lon="4.60994">
        <ele>720.79998779297</ele>
        <time>2022-03-16T10:32:54.000Z</time>
      </trkpt>
      <trkpt lat="45.72685" lon="4.60995">
        <ele>721.20001220703</ele>
        <time>2022-03-16T10:32:57.000Z</time>
      </trkpt>
      <trkpt lat="45.72684" lon="4.60998">
        <ele>721.20001220703</ele>
        <time>2022-03-16T10:32:59.000Z</time>
      </trkpt>
      <trkpt lat="45.72682" lon="4.61001">
        <ele>721.40002441406</ele>
        <time>2022-03-16T10:33:01.000Z</time>
      </trkpt>
      <trkpt lat="45.72678" lon="4.61001">
        <ele>722.20001220703</ele>
        <time>2022-03-16T10:33:04.000Z</time>
      </trkpt>
      <trkpt lat="45.72675" lon="4.61006">
        <ele>722.40002441406</ele>
        <time>2022-03-16T10:33:07.000Z</time>
      </trkpt>
      <trkpt lat="45.72674" lon="4.61008">
        <ele>722.40002441406</ele>
        <time>2022-03-16T10:33:08.000Z</time>
      </trkpt>
      <trkpt lat="45.72669" lon="4.61008">
        <ele>722.79998779297</ele>
        <time>2022-03-16T10:33:12.000Z</time>
      </trkpt>
      <trkpt lat="45.72665" lon="4.61015">
        <ele>722.79998779297</ele>
        <time>2022-03-16T10:33:17.000Z</time>
      </trkpt>
      <trkpt lat="45.72654" lon="4.6102">
        <ele>722.79998779297</ele>
        <time>2022-03-16T10:33:25.000Z</time>
      </trkpt>
      <trkpt lat="45.72648" lon="4.61021">
        <ele>723</ele>
        <time>2022-03-16T10:33:30.000Z</time>
      </trkpt>
      <trkpt lat="45.72637" lon="4.61019">
        <ele>723.20001220703</ele>
        <time>2022-03-16T10:33:38.000Z</time>
      </trkpt>
      <trkpt lat="45.72629" lon="4.61014">
        <ele>723.79998779297</ele>
        <time>2022-03-16T10:33:45.000Z</time>
      </trkpt>
      <trkpt lat="45.72622" lon="4.61007">
        <ele>724.59997558594</ele>
        <time>2022-03-16T10:33:51.000Z</time>
      </trkpt>
      <trkpt lat="45.7262" lon="4.61003">
        <ele>725</ele>
        <time>2022-03-16T10:33:53.000Z</time>
      </trkpt>
      <trkpt lat="45.72619" lon="4.60998">
        <ele>725.40002441406</ele>
        <time>2022-03-16T10:33:56.000Z</time>
      </trkpt>
      <trkpt lat="45.72617" lon="4.60985">
        <ele>726.20001220703</ele>
        <time>2022-03-16T10:34:02.000Z</time>
      </trkpt>
      <trkpt lat="45.72621" lon="4.60971">
        <ele>727.40002441406</ele>
        <time>2022-03-16T10:34:09.000Z</time>
      </trkpt>
      <trkpt lat="45.72624" lon="4.60955">
        <ele>728.79998779297</ele>
        <time>2022-03-16T10:34:17.000Z</time>
      </trkpt>
      <trkpt lat="45.7263" lon="4.60941">
        <ele>730.20001220703</ele>
        <time>2022-03-16T10:34:24.000Z</time>
      </trkpt>
      <trkpt lat="45.72634" lon="4.60927">
        <ele>731.40002441406</ele>
        <time>2022-03-16T10:34:31.000Z</time>
      </trkpt>
      <trkpt lat="45.72638" lon="4.6091">
        <ele>732.59997558594</ele>
        <time>2022-03-16T10:34:39.000Z</time>
      </trkpt>
      <trkpt lat="45.72642" lon="4.60894">
        <ele>733.59997558594</ele>
        <time>2022-03-16T10:34:47.000Z</time>
      </trkpt>
      <trkpt lat="45.72645" lon="4.60879">
        <ele>735.40002441406</ele>
        <time>2022-03-16T10:34:55.000Z</time>
      </trkpt>
      <trkpt lat="45.72646" lon="4.60877">
        <ele>735.59997558594</ele>
        <time>2022-03-16T10:34:56.000Z</time>
      </trkpt>
      <trkpt lat="45.72648" lon="4.6087">
        <ele>736.59997558594</ele>
        <time>2022-03-16T10:35:00.000Z</time>
      </trkpt>
      <trkpt lat="45.72653" lon="4.60855">
        <ele>738</ele>
        <time>2022-03-16T10:35:09.000Z</time>
      </trkpt>
      <trkpt lat="45.72656" lon="4.6085">
        <ele>738.40002441406</ele>
        <time>2022-03-16T10:35:13.000Z</time>
      </trkpt>
      <trkpt lat="45.72658" lon="4.60848">
        <ele>738.79998779297</ele>
        <time>2022-03-16T10:35:15.000Z</time>
      </trkpt>
      <trkpt lat="45.72664" lon="4.60837">
        <ele>741</ele>
        <time>2022-03-16T10:35:24.000Z</time>
      </trkpt>
      <trkpt lat="45.7267" lon="4.6083">
        <ele>742.40002441406</ele>
        <time>2022-03-16T10:35:31.000Z</time>
      </trkpt>
      <trkpt lat="45.72671" lon="4.60829">
        <ele>742.40002441406</ele>
        <time>2022-03-16T10:35:32.000Z</time>
      </trkpt>
      <trkpt lat="45.72675" lon="4.60826">
        <ele>743.20001220703</ele>
        <time>2022-03-16T10:35:37.000Z</time>
      </trkpt>
      <trkpt lat="45.72682" lon="4.60821">
        <ele>744</ele>
        <time>2022-03-16T10:35:43.000Z</time>
      </trkpt>
      <trkpt lat="45.72682" lon="4.6082">
        <ele>744.20001220703</ele>
        <time>2022-03-16T10:35:44.000Z</time>
      </trkpt>
      <trkpt lat="45.72685" lon="4.60814">
        <ele>745</ele>
        <time>2022-03-16T10:35:49.000Z</time>
      </trkpt>
      <trkpt lat="45.72687" lon="4.60808">
        <ele>746</ele>
        <time>2022-03-16T10:35:53.000Z</time>
      </trkpt>
      <trkpt lat="45.72688" lon="4.60803">
        <ele>746.59997558594</ele>
        <time>2022-03-16T10:35:56.000Z</time>
      </trkpt>
      <trkpt lat="45.7269" lon="4.60792">
        <ele>748</ele>
        <time>2022-03-16T10:36:02.000Z</time>
      </trkpt>
      <trkpt lat="45.7269" lon="4.60786">
        <ele>748.59997558594</ele>
        <time>2022-03-16T10:36:05.000Z</time>
      </trkpt>
      <trkpt lat="45.72693" lon="4.60783">
        <ele>749.20001220703</ele>
        <time>2022-03-16T10:36:08.000Z</time>
      </trkpt>
      <trkpt lat="45.72696" lon="4.60773">
        <ele>750</ele>
        <time>2022-03-16T10:36:15.000Z</time>
      </trkpt>
      <trkpt lat="45.72699" lon="4.6076">
        <ele>751.20001220703</ele>
        <time>2022-03-16T10:36:23.000Z</time>
      </trkpt>
      <trkpt lat="45.72701" lon="4.60756">
        <ele>751.79998779297</ele>
        <time>2022-03-16T10:36:26.000Z</time>
      </trkpt>
      <trkpt lat="45.72701" lon="4.60752">
        <ele>752.20001220703</ele>
        <time>2022-03-16T10:36:28.000Z</time>
      </trkpt>
      <trkpt lat="45.72703" lon="4.60737">
        <ele>754</ele>
        <time>2022-03-16T10:36:37.000Z</time>
      </trkpt>
      <trkpt lat="45.72703" lon="4.6073">
        <ele>754.79998779297</ele>
        <time>2022-03-16T10:36:41.000Z</time>
      </trkpt>
      <trkpt lat="45.72705" lon="4.60726">
        <ele>755.59997558594</ele>
        <time>2022-03-16T10:36:44.000Z</time>
      </trkpt>
      <trkpt lat="45.72707" lon="4.6072">
        <ele>756.59997558594</ele>
        <time>2022-03-16T10:36:48.000Z</time>
      </trkpt>
      <trkpt lat="45.72707" lon="4.60717">
        <ele>757.20001220703</ele>
        <time>2022-03-16T10:36:50.000Z</time>
      </trkpt>
      <trkpt lat="45.72707" lon="4.6071">
        <ele>758.20001220703</ele>
        <time>2022-03-16T10:36:54.000Z</time>
      </trkpt>
      <trkpt lat="45.72708" lon="4.60707">
        <ele>758.59997558594</ele>
        <time>2022-03-16T10:36:56.000Z</time>
      </trkpt>
      <trkpt lat="45.72707" lon="4.60695">
        <ele>760.40002441406</ele>
        <time>2022-03-16T10:37:03.000Z</time>
      </trkpt>
      <trkpt lat="45.72708" lon="4.60694">
        <ele>760.59997558594</ele>
        <time>2022-03-16T10:37:04.000Z</time>
      </trkpt>
      <trkpt lat="45.72707" lon="4.60688">
        <ele>761.59997558594</ele>
        <time>2022-03-16T10:37:08.000Z</time>
      </trkpt>
      <trkpt lat="45.72706" lon="4.60677">
        <ele>763.40002441406</ele>
        <time>2022-03-16T10:37:14.000Z</time>
      </trkpt>
      <trkpt lat="45.72705" lon="4.60673">
        <ele>764</ele>
        <time>2022-03-16T10:37:17.000Z</time>
      </trkpt>
      <trkpt lat="45.72703" lon="4.60668">
        <ele>764.40002441406</ele>
        <time>2022-03-16T10:37:21.000Z</time>
      </trkpt>
      <trkpt lat="45.72699" lon="4.60662">
        <ele>764.79998779297</ele>
        <time>2022-03-16T10:37:25.000Z</time>
      </trkpt>
      <trkpt lat="45.72697" lon="4.60658">
        <ele>764.79998779297</ele>
        <time>2022-03-16T10:37:28.000Z</time>
      </trkpt>
      <trkpt lat="45.72695" lon="4.60656">
        <ele>764.40002441406</ele>
        <time>2022-03-16T10:37:30.000Z</time>
      </trkpt>
      <trkpt lat="45.72691" lon="4.60648">
        <ele>764.59997558594</ele>
        <time>2022-03-16T10:37:35.000Z</time>
      </trkpt>
      <trkpt lat="45.72686" lon="4.60638">
        <ele>764.59997558594</ele>
        <time>2022-03-16T10:37:42.000Z</time>
      </trkpt>
      <trkpt lat="45.72682" lon="4.60628">
        <ele>764.40002441406</ele>
        <time>2022-03-16T10:37:48.000Z</time>
      </trkpt>
      <trkpt lat="45.72682" lon="4.60626">
        <ele>764.40002441406</ele>
        <time>2022-03-16T10:37:49.000Z</time>
      </trkpt>
      <trkpt lat="45.72678" lon="4.60615">
        <ele>764</ele>
        <time>2022-03-16T10:37:53.000Z</time>
      </trkpt>
      <trkpt lat="45.72674" lon="4.60598">
        <ele>763.79998779297</ele>
        <time>2022-03-16T10:37:58.000Z</time>
      </trkpt>
      <trkpt lat="45.72667" lon="4.60571">
        <ele>764.40002441406</ele>
        <time>2022-03-16T10:38:04.000Z</time>
      </trkpt>
      <trkpt lat="45.72661" lon="4.60542">
        <ele>766.20001220703</ele>
        <time>2022-03-16T10:38:11.000Z</time>
      </trkpt>
      <trkpt lat="45.72655" lon="4.60516">
        <ele>767.20001220703</ele>
        <time>2022-03-16T10:38:17.000Z</time>
      </trkpt>
      <trkpt lat="45.72652" lon="4.60498">
        <ele>767.59997558594</ele>
        <time>2022-03-16T10:38:22.000Z</time>
      </trkpt>
      <trkpt lat="45.72647" lon="4.60474">
        <ele>767.59997558594</ele>
        <time>2022-03-16T10:38:28.000Z</time>
      </trkpt>
      <trkpt lat="45.72644" lon="4.60449">
        <ele>769.59997558594</ele>
        <time>2022-03-16T10:38:35.000Z</time>
      </trkpt>
      <trkpt lat="45.72645" lon="4.60437">
        <ele>771.20001220703</ele>
        <time>2022-03-16T10:38:40.000Z</time>
      </trkpt>
      <trkpt lat="45.72645" lon="4.60419">
        <ele>773</ele>
        <time>2022-03-16T10:38:48.000Z</time>
      </trkpt>
      <trkpt lat="45.72645" lon="4.60411">
        <ele>773.59997558594</ele>
        <time>2022-03-16T10:38:52.000Z</time>
      </trkpt>
      <trkpt lat="45.72645" lon="4.60408">
        <ele>773.79998779297</ele>
        <time>2022-03-16T10:38:54.000Z</time>
      </trkpt>
      <trkpt lat="45.72644" lon="4.60402">
        <ele>774</ele>
        <time>2022-03-16T10:38:57.000Z</time>
      </trkpt>
      <trkpt lat="45.72645" lon="4.60395">
        <ele>774.79998779297</ele>
        <time>2022-03-16T10:39:01.000Z</time>
      </trkpt>
      <trkpt lat="45.72645" lon="4.60393">
        <ele>775</ele>
        <time>2022-03-16T10:39:02.000Z</time>
      </trkpt>
      <trkpt lat="45.72646" lon="4.60389">
        <ele>775.40002441406</ele>
        <time>2022-03-16T10:39:04.000Z</time>
      </trkpt>
      <trkpt lat="45.72645" lon="4.60385">
        <ele>776</ele>
        <time>2022-03-16T10:39:06.000Z</time>
      </trkpt>
      <trkpt lat="45.72646" lon="4.60379">
        <ele>777</ele>
        <time>2022-03-16T10:39:10.000Z</time>
      </trkpt>
      <trkpt lat="45.72647" lon="4.60376">
        <ele>777.59997558594</ele>
        <time>2022-03-16T10:39:12.000Z</time>
      </trkpt>
      <trkpt lat="45.72646" lon="4.60375">
        <ele>777.79998779297</ele>
        <time>2022-03-16T10:39:13.000Z</time>
      </trkpt>
      <trkpt lat="45.72644" lon="4.60367">
        <ele>778.40002441406</ele>
        <time>2022-03-16T10:39:18.000Z</time>
      </trkpt>
      <trkpt lat="45.72643" lon="4.60363">
        <ele>778.59997558594</ele>
        <time>2022-03-16T10:39:21.000Z</time>
      </trkpt>
      <trkpt lat="45.72643" lon="4.6036">
        <ele>779.40002441406</ele>
        <time>2022-03-16T10:39:23.000Z</time>
      </trkpt>
      <trkpt lat="45.72644" lon="4.60358">
        <ele>779.79998779297</ele>
        <time>2022-03-16T10:39:24.000Z</time>
      </trkpt>
      <trkpt lat="45.72648" lon="4.60353">
        <ele>781</ele>
        <time>2022-03-16T10:39:29.000Z</time>
      </trkpt>
      <trkpt lat="45.72648" lon="4.60351">
        <ele>781.40002441406</ele>
        <time>2022-03-16T10:39:30.000Z</time>
      </trkpt>
      <trkpt lat="45.72649" lon="4.60347">
        <ele>782.20001220703</ele>
        <time>2022-03-16T10:39:32.000Z</time>
      </trkpt>
      <trkpt lat="45.7265" lon="4.60346">
        <ele>782.40002441406</ele>
        <time>2022-03-16T10:39:33.000Z</time>
      </trkpt>
      <trkpt lat="45.72652" lon="4.60343">
        <ele>783.40002441406</ele>
        <time>2022-03-16T10:39:36.000Z</time>
      </trkpt>
      <trkpt lat="45.72658" lon="4.60343">
        <ele>784.40002441406</ele>
        <time>2022-03-16T10:39:41.000Z</time>
      </trkpt>
      <trkpt lat="45.7266" lon="4.60344">
        <ele>784.59997558594</ele>
        <time>2022-03-16T10:39:43.000Z</time>
      </trkpt>
      <trkpt lat="45.72661" lon="4.60344">
        <ele>784.79998779297</ele>
        <time>2022-03-16T10:39:44.000Z</time>
      </trkpt>
      <trkpt lat="45.72665" lon="4.60345">
        <ele>785.40002441406</ele>
        <time>2022-03-16T10:39:48.000Z</time>
      </trkpt>
      <trkpt lat="45.72671" lon="4.60347">
        <ele>786</ele>
        <time>2022-03-16T10:39:54.000Z</time>
      </trkpt>
      <trkpt lat="45.72677" lon="4.60348">
        <ele>787.20001220703</ele>
        <time>2022-03-16T10:40:00.000Z</time>
      </trkpt>
      <trkpt lat="45.7268" lon="4.6035">
        <ele>787.59997558594</ele>
        <time>2022-03-16T10:40:03.000Z</time>
      </trkpt>
      <trkpt lat="45.72683" lon="4.60353">
        <ele>787.59997558594</ele>
        <time>2022-03-16T10:40:06.000Z</time>
      </trkpt>
      <trkpt lat="45.72684" lon="4.60354">
        <ele>787.79998779297</ele>
        <time>2022-03-16T10:40:11.000Z</time>
      </trkpt>
      <trkpt lat="45.72684" lon="4.60354">
        <ele>787.79998779297</ele>
        <time>2022-03-16T10:40:23.000Z</time>
      </trkpt>
      <trkpt lat="45.72684" lon="4.60354">
        <ele>787.79998779297</ele>
        <time>2022-03-16T10:40:31.000Z</time>
      </trkpt>
      <trkpt lat="45.72684" lon="4.60354">
        <ele>787.79998779297</ele>
        <time>2022-03-16T10:40:44.000Z</time>
      </trkpt>
      <trkpt lat="45.72684" lon="4.60355">
        <ele>787.79998779297</ele>
        <time>2022-03-16T10:41:06.000Z</time>
      </trkpt>
      <trkpt lat="45.72684" lon="4.60355">
        <ele>787.79998779297</ele>
        <time>2022-03-16T10:41:18.000Z</time>
      </trkpt>
      <trkpt lat="45.72687" lon="4.60355">
        <ele>788.40002441406</ele>
        <time>2022-03-16T10:41:20.000Z</time>
      </trkpt>
      <trkpt lat="45.72697" lon="4.60358">
        <ele>790</ele>
        <time>2022-03-16T10:41:27.000Z</time>
      </trkpt>
      <trkpt lat="45.72703" lon="4.6036">
        <ele>791</ele>
        <time>2022-03-16T10:41:32.000Z</time>
      </trkpt>
      <trkpt lat="45.72711" lon="4.60362">
        <ele>792.40002441406</ele>
        <time>2022-03-16T10:41:38.000Z</time>
      </trkpt>
      <trkpt lat="45.72718" lon="4.60364">
        <ele>793.59997558594</ele>
        <time>2022-03-16T10:41:44.000Z</time>
      </trkpt>
      <trkpt lat="45.72724" lon="4.60365">
        <ele>794.79998779297</ele>
        <time>2022-03-16T10:41:50.000Z</time>
      </trkpt>
      <trkpt lat="45.72725" lon="4.60365">
        <ele>795.20001220703</ele>
        <time>2022-03-16T10:41:51.000Z</time>
      </trkpt>
      <trkpt lat="45.72732" lon="4.60362">
        <ele>796.79998779297</ele>
        <time>2022-03-16T10:41:57.000Z</time>
      </trkpt>
      <trkpt lat="45.72733" lon="4.6036">
        <ele>797.20001220703</ele>
        <time>2022-03-16T10:41:58.000Z</time>
      </trkpt>
      <trkpt lat="45.72737" lon="4.60355">
        <ele>798.59997558594</ele>
        <time>2022-03-16T10:42:04.000Z</time>
      </trkpt>
      <trkpt lat="45.72744" lon="4.60346">
        <ele>801</ele>
        <time>2022-03-16T10:42:13.000Z</time>
      </trkpt>
      <trkpt lat="45.72749" lon="4.60341">
        <ele>802.59997558594</ele>
        <time>2022-03-16T10:42:18.000Z</time>
      </trkpt>
      <trkpt lat="45.72749" lon="4.6034">
        <ele>803</ele>
        <time>2022-03-16T10:42:19.000Z</time>
      </trkpt>
      <trkpt lat="45.72751" lon="4.60335">
        <ele>804</ele>
        <time>2022-03-16T10:42:25.000Z</time>
      </trkpt>
      <trkpt lat="45.72754" lon="4.60332">
        <ele>804.79998779297</ele>
        <time>2022-03-16T10:42:30.000Z</time>
      </trkpt>
      <trkpt lat="45.72758" lon="4.60326">
        <ele>806.20001220703</ele>
        <time>2022-03-16T10:42:37.000Z</time>
      </trkpt>
      <trkpt lat="45.72759" lon="4.60322">
        <ele>806.79998779297</ele>
        <time>2022-03-16T10:42:44.000Z</time>
      </trkpt>
      <trkpt lat="45.72762" lon="4.60316">
        <ele>807.79998779297</ele>
        <time>2022-03-16T10:42:52.000Z</time>
      </trkpt>
      <trkpt lat="45.72764" lon="4.6031">
        <ele>808.40002441406</ele>
        <time>2022-03-16T10:42:59.000Z</time>
      </trkpt>
      <trkpt lat="45.72769" lon="4.60303">
        <ele>809.20001220703</ele>
        <time>2022-03-16T10:43:08.000Z</time>
      </trkpt>
      <trkpt lat="45.72772" lon="4.60297">
        <ele>810</ele>
        <time>2022-03-16T10:43:15.000Z</time>
      </trkpt>
      <trkpt lat="45.72775" lon="4.60292">
        <ele>810.59997558594</ele>
        <time>2022-03-16T10:43:20.000Z</time>
      </trkpt>
      <trkpt lat="45.72777" lon="4.6029">
        <ele>810.79998779297</ele>
        <time>2022-03-16T10:43:22.000Z</time>
      </trkpt>
      <trkpt lat="45.72784" lon="4.60284">
        <ele>811.79998779297</ele>
        <time>2022-03-16T10:43:30.000Z</time>
      </trkpt>
      <trkpt lat="45.72786" lon="4.60281">
        <ele>811.79998779297</ele>
        <time>2022-03-16T10:43:37.000Z</time>
      </trkpt>
      <trkpt lat="45.72786" lon="4.60281">
        <ele>811.79998779297</ele>
        <time>2022-03-16T10:43:57.000Z</time>
      </trkpt>
      <trkpt lat="45.72788" lon="4.6028">
        <ele>811.79998779297</ele>
        <time>2022-03-16T10:44:16.000Z</time>
      </trkpt>
      <trkpt lat="45.72789" lon="4.60278">
        <ele>811.59997558594</ele>
        <time>2022-03-16T10:44:18.000Z</time>
      </trkpt>
      <trkpt lat="45.72791" lon="4.60274">
        <ele>811.59997558594</ele>
        <time>2022-03-16T10:44:22.000Z</time>
      </trkpt>
      <trkpt lat="45.72791" lon="4.60271">
        <ele>811.59997558594</ele>
        <time>2022-03-16T10:44:25.000Z</time>
      </trkpt>
      <trkpt lat="45.7279" lon="4.60269">
        <ele>811.59997558594</ele>
        <time>2022-03-16T10:44:28.000Z</time>
      </trkpt>
      <trkpt lat="45.7279" lon="4.60269">
        <ele>811.59997558594</ele>
        <time>2022-03-16T10:44:42.000Z</time>
      </trkpt>
      <trkpt lat="45.7279" lon="4.60269">
        <ele>811.59997558594</ele>
        <time>2022-03-16T10:44:53.000Z</time>
      </trkpt>
      <trkpt lat="45.7279" lon="4.60269">
        <ele>811.59997558594</ele>
        <time>2022-03-16T10:45:01.000Z</time>
      </trkpt>
      <trkpt lat="45.72788" lon="4.60267">
        <ele>811.59997558594</ele>
        <time>2022-03-16T10:45:09.000Z</time>
      </trkpt>
      <trkpt lat="45.72788" lon="4.60265">
        <ele>811.79998779297</ele>
        <time>2022-03-16T10:45:10.000Z</time>
      </trkpt>
      <trkpt lat="45.72784" lon="4.60261">
        <ele>812</ele>
        <time>2022-03-16T10:45:13.000Z</time>
      </trkpt>
      <trkpt lat="45.72781" lon="4.60259">
        <ele>812</ele>
        <time>2022-03-16T10:45:16.000Z</time>
      </trkpt>
      <trkpt lat="45.72778" lon="4.60255">
        <ele>811.79998779297</ele>
        <time>2022-03-16T10:45:20.000Z</time>
      </trkpt>
      <trkpt lat="45.72777" lon="4.60254">
        <ele>811.79998779297</ele>
        <time>2022-03-16T10:45:21.000Z</time>
      </trkpt>
      <trkpt lat="45.72769" lon="4.60243">
        <ele>812.20001220703</ele>
        <time>2022-03-16T10:45:28.000Z</time>
      </trkpt>
      <trkpt lat="45.7276" lon="4.60235">
        <ele>812.40002441406</ele>
        <time>2022-03-16T10:45:35.000Z</time>
      </trkpt>
      <trkpt lat="45.72754" lon="4.60227">
        <ele>812.59997558594</ele>
        <time>2022-03-16T10:45:41.000Z</time>
      </trkpt>
      <trkpt lat="45.72743" lon="4.60215">
        <ele>813.20001220703</ele>
        <time>2022-03-16T10:45:50.000Z</time>
      </trkpt>
      <trkpt lat="45.72735" lon="4.60202">
        <ele>813.79998779297</ele>
        <time>2022-03-16T10:45:58.000Z</time>
      </trkpt>
      <trkpt lat="45.72732" lon="4.60191">
        <ele>814.79998779297</ele>
        <time>2022-03-16T10:46:04.000Z</time>
      </trkpt>
      <trkpt lat="45.72731" lon="4.60178">
        <ele>816.20001220703</ele>
        <time>2022-03-16T10:46:11.000Z</time>
      </trkpt>
      <trkpt lat="45.72734" lon="4.60163">
        <ele>817.79998779297</ele>
        <time>2022-03-16T10:46:19.000Z</time>
      </trkpt>
      <trkpt lat="45.72738" lon="4.6015">
        <ele>819</ele>
        <time>2022-03-16T10:46:26.000Z</time>
      </trkpt>
      <trkpt lat="45.72739" lon="4.60149">
        <ele>819.20001220703</ele>
        <time>2022-03-16T10:46:27.000Z</time>
      </trkpt>
      <trkpt lat="45.72743" lon="4.60142">
        <ele>820</ele>
        <time>2022-03-16T10:46:32.000Z</time>
      </trkpt>
      <trkpt lat="45.72748" lon="4.60131">
        <ele>821.40002441406</ele>
        <time>2022-03-16T10:46:39.000Z</time>
      </trkpt>
      <trkpt lat="45.72756" lon="4.6012">
        <ele>822.40002441406</ele>
        <time>2022-03-16T10:46:47.000Z</time>
      </trkpt>
      <trkpt lat="45.72762" lon="4.60109">
        <ele>823.40002441406</ele>
        <time>2022-03-16T10:46:54.000Z</time>
      </trkpt>
      <trkpt lat="45.72769" lon="4.601">
        <ele>824</ele>
        <time>2022-03-16T10:47:01.000Z</time>
      </trkpt>
      <trkpt lat="45.72778" lon="4.60091">
        <ele>824.59997558594</ele>
        <time>2022-03-16T10:47:08.000Z</time>
      </trkpt>
      <trkpt lat="45.72789" lon="4.60089">
        <ele>824.40002441406</ele>
        <time>2022-03-16T10:47:13.000Z</time>
      </trkpt>
      <trkpt lat="45.72815" lon="4.60088">
        <ele>823.59997558594</ele>
        <time>2022-03-16T10:47:21.000Z</time>
      </trkpt>
      <trkpt lat="45.72838" lon="4.60082">
        <ele>823.59997558594</ele>
        <time>2022-03-16T10:47:28.000Z</time>
      </trkpt>
      <trkpt lat="45.72861" lon="4.60071">
        <ele>824.40002441406</ele>
        <time>2022-03-16T10:47:35.000Z</time>
      </trkpt>
      <trkpt lat="45.72876" lon="4.60066">
        <ele>825</ele>
        <time>2022-03-16T10:47:39.000Z</time>
      </trkpt>
      <trkpt lat="45.72893" lon="4.60063">
        <ele>824.20001220703</ele>
        <time>2022-03-16T10:47:43.000Z</time>
      </trkpt>
      <trkpt lat="45.72914" lon="4.60058">
        <ele>825</ele>
        <time>2022-03-16T10:47:48.000Z</time>
      </trkpt>
      <trkpt lat="45.72927" lon="4.60052">
        <ele>826</ele>
        <time>2022-03-16T10:47:52.000Z</time>
      </trkpt>
      <trkpt lat="45.72935" lon="4.6005">
        <ele>826</ele>
        <time>2022-03-16T10:47:56.000Z</time>
      </trkpt>
      <trkpt lat="45.72935" lon="4.6005">
        <ele>826</ele>
        <time>2022-03-16T10:48:09.000Z</time>
      </trkpt>
      <trkpt lat="45.72935" lon="4.6005">
        <ele>826</ele>
        <time>2022-03-16T10:48:12.000Z</time>
      </trkpt>
      <trkpt lat="45.72942" lon="4.60048">
        <ele>825.59997558594</ele>
        <time>2022-03-16T10:48:14.000Z</time>
      </trkpt>
      <trkpt lat="45.72954" lon="4.60044">
        <ele>825.20001220703</ele>
        <time>2022-03-16T10:48:18.000Z</time>
      </trkpt>
      <trkpt lat="45.72956" lon="4.60044">
        <ele>825</ele>
        <time>2022-03-16T10:48:19.000Z</time>
      </trkpt>
      <trkpt lat="45.72958" lon="4.60044">
        <ele>824.59997558594</ele>
        <time>2022-03-16T10:48:20.000Z</time>
      </trkpt>
      <trkpt lat="45.72971" lon="4.60046">
        <ele>822</ele>
        <time>2022-03-16T10:48:23.000Z</time>
      </trkpt>
      <trkpt lat="45.72987" lon="4.60052">
        <ele>819.40002441406</ele>
        <time>2022-03-16T10:48:26.000Z</time>
      </trkpt>
      <trkpt lat="45.72994" lon="4.60056">
        <ele>818.59997558594</ele>
        <time>2022-03-16T10:48:27.000Z</time>
      </trkpt>
      <trkpt lat="45.7301" lon="4.60067">
        <ele>816.79998779297</ele>
        <time>2022-03-16T10:48:30.000Z</time>
      </trkpt>
      <trkpt lat="45.73019" lon="4.60074">
        <ele>816.20001220703</ele>
        <time>2022-03-16T10:48:32.000Z</time>
      </trkpt>
      <trkpt lat="45.7304" lon="4.60098">
        <ele>814.79998779297</ele>
        <time>2022-03-16T10:48:38.000Z</time>
      </trkpt>
      <trkpt lat="45.73051" lon="4.60113">
        <ele>815.20001220703</ele>
        <time>2022-03-16T10:48:41.000Z</time>
      </trkpt>
      <trkpt lat="45.73063" lon="4.60129">
        <ele>814</ele>
        <time>2022-03-16T10:48:44.000Z</time>
      </trkpt>
      <trkpt lat="45.73072" lon="4.60139">
        <ele>812.59997558594</ele>
        <time>2022-03-16T10:48:46.000Z</time>
      </trkpt>
      <trkpt lat="45.7309" lon="4.6016">
        <ele>809.40002441406</ele>
        <time>2022-03-16T10:48:50.000Z</time>
      </trkpt>
      <trkpt lat="45.73095" lon="4.60166">
        <ele>809</ele>
        <time>2022-03-16T10:48:52.000Z</time>
      </trkpt>
      <trkpt lat="45.73095" lon="4.60166">
        <ele>809</ele>
        <time>2022-03-16T10:49:03.000Z</time>
      </trkpt>
      <trkpt lat="45.73095" lon="4.60166">
        <ele>809</ele>
        <time>2022-03-16T10:49:19.000Z</time>
      </trkpt>
      <trkpt lat="45.73095" lon="4.60166">
        <ele>809</ele>
        <time>2022-03-16T10:49:37.000Z</time>
      </trkpt>
      <trkpt lat="45.73095" lon="4.60166">
        <ele>809</ele>
        <time>2022-03-16T10:49:56.000Z</time>
      </trkpt>
      <trkpt lat="45.73097" lon="4.60168">
        <ele>809</ele>
        <time>2022-03-16T10:50:09.000Z</time>
      </trkpt>
      <trkpt lat="45.73108" lon="4.6018">
        <ele>808.20001220703</ele>
        <time>2022-03-16T10:50:14.000Z</time>
      </trkpt>
      <trkpt lat="45.7311" lon="4.60186">
        <ele>807.20001220703</ele>
        <time>2022-03-16T10:50:18.000Z</time>
      </trkpt>
      <trkpt lat="45.7311" lon="4.60186">
        <ele>807.20001220703</ele>
        <time>2022-03-16T10:50:24.000Z</time>
      </trkpt>
      <trkpt lat="45.7311" lon="4.60186">
        <ele>807.20001220703</ele>
        <time>2022-03-16T10:50:34.000Z</time>
      </trkpt>
      <trkpt lat="45.7311" lon="4.60186">
        <ele>807.20001220703</ele>
        <time>2022-03-16T10:50:53.000Z</time>
      </trkpt>
      <trkpt lat="45.73112" lon="4.60186">
        <ele>807.59997558594</ele>
        <time>2022-03-16T10:51:21.000Z</time>
      </trkpt>
      <trkpt lat="45.73112" lon="4.60186">
        <ele>807.59997558594</ele>
        <time>2022-03-16T10:51:50.000Z</time>
      </trkpt>
      <trkpt lat="45.73112" lon="4.60186">
        <ele>807.59997558594</ele>
        <time>2022-03-16T10:52:08.000Z</time>
      </trkpt>
      <trkpt lat="45.73112" lon="4.60186">
        <ele>807.59997558594</ele>
        <time>2022-03-16T10:52:36.000Z</time>
      </trkpt>
      <trkpt lat="45.73112" lon="4.60187">
        <ele>807.40002441406</ele>
        <time>2022-03-16T10:52:58.000Z</time>
      </trkpt>
      <trkpt lat="45.73112" lon="4.60187">
        <ele>807.40002441406</ele>
        <time>2022-03-16T10:53:22.000Z</time>
      </trkpt>
      <trkpt lat="45.73113" lon="4.60187">
        <ele>807.40002441406</ele>
        <time>2022-03-16T10:53:55.000Z</time>
      </trkpt>
      <trkpt lat="45.73113" lon="4.60188">
        <ele>807.40002441406</ele>
        <time>2022-03-16T10:54:23.000Z</time>
      </trkpt>
      <trkpt lat="45.73113" lon="4.60188">
        <ele>807.40002441406</ele>
        <time>2022-03-16T10:54:53.000Z</time>
      </trkpt>
      <trkpt lat="45.73113" lon="4.60188">
        <ele>807.20001220703</ele>
        <time>2022-03-16T10:55:23.000Z</time>
      </trkpt>
      <trkpt lat="45.73113" lon="4.60188">
        <ele>807.40002441406</ele>
        <time>2022-03-16T10:55:51.000Z</time>
      </trkpt>
      <trkpt lat="45.73113" lon="4.60188">
        <ele>807.40002441406</ele>
        <time>2022-03-16T10:56:15.000Z</time>
      </trkpt>
      <trkpt lat="45.73113" lon="4.60188">
        <ele>807.40002441406</ele>
        <time>2022-03-16T10:56:39.000Z</time>
      </trkpt>
      <trkpt lat="45.73113" lon="4.60188">
        <ele>807.40002441406</ele>
        <time>2022-03-16T10:56:57.000Z</time>
      </trkpt>
      <trkpt lat="45.73113" lon="4.60188">
        <ele>807.40002441406</ele>
        <time>2022-03-16T10:57:20.000Z</time>
      </trkpt>
      <trkpt lat="45.73113" lon="4.60188">
        <ele>807.40002441406</ele>
        <time>2022-03-16T10:57:44.000Z</time>
      </trkpt>
      <trkpt lat="45.73113" lon="4.60188">
        <ele>807.40002441406</ele>
        <time>2022-03-16T10:58:04.000Z</time>
      </trkpt>
      <trkpt lat="45.73114" lon="4.60189">
        <ele>807.40002441406</ele>
        <time>2022-03-16T10:58:33.000Z</time>
      </trkpt>
      <trkpt lat="45.73114" lon="4.60189">
        <ele>807.20001220703</ele>
        <time>2022-03-16T10:58:57.000Z</time>
      </trkpt>
      <trkpt lat="45.73114" lon="4.60189">
        <ele>807.20001220703</ele>
        <time>2022-03-16T10:59:21.000Z</time>
      </trkpt>
      <trkpt lat="45.73114" lon="4.60188">
        <ele>807.40002441406</ele>
        <time>2022-03-16T10:59:43.000Z</time>
      </trkpt>
      <trkpt lat="45.73114" lon="4.60188">
        <ele>807.40002441406</ele>
        <time>2022-03-16T11:00:03.000Z</time>
      </trkpt>
      <trkpt lat="45.73114" lon="4.60189">
        <ele>807.40002441406</ele>
        <time>2022-03-16T11:00:23.000Z</time>
      </trkpt>
      <trkpt lat="45.73114" lon="4.60189">
        <ele>807.40002441406</ele>
        <time>2022-03-16T11:00:44.000Z</time>
      </trkpt>
      <trkpt lat="45.73114" lon="4.60188">
        <ele>807.40002441406</ele>
        <time>2022-03-16T11:01:08.000Z</time>
      </trkpt>
      <trkpt lat="45.73114" lon="4.60188">
        <ele>807.40002441406</ele>
        <time>2022-03-16T11:01:34.000Z</time>
      </trkpt>
      <trkpt lat="45.73113" lon="4.60189">
        <ele>807.40002441406</ele>
        <time>2022-03-16T11:01:59.000Z</time>
      </trkpt>
      <trkpt lat="45.73114" lon="4.60188">
        <ele>807.59997558594</ele>
        <time>2022-03-16T11:02:21.000Z</time>
      </trkpt>
      <trkpt lat="45.73114" lon="4.60188">
        <ele>807.59997558594</ele>
        <time>2022-03-16T11:02:44.000Z</time>
      </trkpt>
      <trkpt lat="45.73115" lon="4.60189">
        <ele>807.79998779297</ele>
        <time>2022-03-16T11:03:11.000Z</time>
      </trkpt>
      <trkpt lat="45.73116" lon="4.60188">
        <ele>807.79998779297</ele>
        <time>2022-03-16T11:03:37.000Z</time>
      </trkpt>
      <trkpt lat="45.73116" lon="4.60188">
        <ele>807.79998779297</ele>
        <time>2022-03-16T11:04:01.000Z</time>
      </trkpt>
      <trkpt lat="45.73115" lon="4.60189">
        <ele>807.79998779297</ele>
        <time>2022-03-16T11:04:28.000Z</time>
      </trkpt>
      <trkpt lat="45.73115" lon="4.60189">
        <ele>807.79998779297</ele>
        <time>2022-03-16T11:04:54.000Z</time>
      </trkpt>
      <trkpt lat="45.73114" lon="4.60189">
        <ele>807.40002441406</ele>
        <time>2022-03-16T11:05:16.000Z</time>
      </trkpt>
      <trkpt lat="45.73115" lon="4.60189">
        <ele>807.40002441406</ele>
        <time>2022-03-16T11:05:42.000Z</time>
      </trkpt>
      <trkpt lat="45.73115" lon="4.60189">
        <ele>807.40002441406</ele>
        <time>2022-03-16T11:06:02.000Z</time>
      </trkpt>
      <trkpt lat="45.73114" lon="4.60189">
        <ele>807.40002441406</ele>
        <time>2022-03-16T11:06:19.000Z</time>
      </trkpt>
      <trkpt lat="45.73114" lon="4.60189">
        <ele>807.40002441406</ele>
        <time>2022-03-16T11:06:41.000Z</time>
      </trkpt>
      <trkpt lat="45.73114" lon="4.60189">
        <ele>807.40002441406</ele>
        <time>2022-03-16T11:07:06.000Z</time>
      </trkpt>
      <trkpt lat="45.73114" lon="4.60189">
        <ele>807.40002441406</ele>
        <time>2022-03-16T11:07:28.000Z</time>
      </trkpt>
      <trkpt lat="45.73114" lon="4.60189">
        <ele>807.40002441406</ele>
        <time>2022-03-16T11:07:40.000Z</time>
      </trkpt>
      <trkpt lat="45.73114" lon="4.60189">
        <ele>807.40002441406</ele>
        <time>2022-03-16T11:07:53.000Z</time>
      </trkpt>
      <trkpt lat="45.73114" lon="4.60189">
        <ele>807.40002441406</ele>
        <time>2022-03-16T11:08:02.000Z</time>
      </trkpt>
      <trkpt lat="45.73114" lon="4.60189">
        <ele>807.40002441406</ele>
        <time>2022-03-16T11:08:06.000Z</time>
      </trkpt>
      <trkpt lat="45.73116" lon="4.60194">
        <ele>806.40002441406</ele>
        <time>2022-03-16T11:08:08.000Z</time>
      </trkpt>
      <trkpt lat="45.73122" lon="4.60208">
        <ele>805.40002441406</ele>
        <time>2022-03-16T11:08:12.000Z</time>
      </trkpt>
      <trkpt lat="45.73128" lon="4.60221">
        <ele>804.40002441406</ele>
        <time>2022-03-16T11:08:14.000Z</time>
      </trkpt>
      <trkpt lat="45.73131" lon="4.60228">
        <ele>803.79998779297</ele>
        <time>2022-03-16T11:08:15.000Z</time>
      </trkpt>
      <trkpt lat="45.73135" lon="4.60235">
        <ele>803.40002441406</ele>
        <time>2022-03-16T11:08:16.000Z</time>
      </trkpt>
      <trkpt lat="45.73145" lon="4.60255">
        <ele>802.40002441406</ele>
        <time>2022-03-16T11:08:19.000Z</time>
      </trkpt>
      <trkpt lat="45.73151" lon="4.6027">
        <ele>801.59997558594</ele>
        <time>2022-03-16T11:08:21.000Z</time>
      </trkpt>
      <trkpt lat="45.73158" lon="4.60283">
        <ele>801.40002441406</ele>
        <time>2022-03-16T11:08:23.000Z</time>
      </trkpt>
      <trkpt lat="45.73161" lon="4.60288">
        <ele>801.59997558594</ele>
        <time>2022-03-16T11:08:24.000Z</time>
      </trkpt>
      <trkpt lat="45.73171" lon="4.60304">
        <ele>802.20001220703</ele>
        <time>2022-03-16T11:08:28.000Z</time>
      </trkpt>
      <trkpt lat="45.7318" lon="4.60316">
        <ele>803.59997558594</ele>
        <time>2022-03-16T11:08:33.000Z</time>
      </trkpt>
      <trkpt lat="45.73188" lon="4.60326">
        <ele>805.20001220703</ele>
        <time>2022-03-16T11:08:38.000Z</time>
      </trkpt>
      <trkpt lat="45.73193" lon="4.60331">
        <ele>806.59997558594</ele>
        <time>2022-03-16T11:08:42.000Z</time>
      </trkpt>
      <trkpt lat="45.732" lon="4.60341">
        <ele>808</ele>
        <time>2022-03-16T11:08:47.000Z</time>
      </trkpt>
      <trkpt lat="45.73201" lon="4.60342">
        <ele>808.40002441406</ele>
        <time>2022-03-16T11:08:48.000Z</time>
      </trkpt>
      <trkpt lat="45.73206" lon="4.60346">
        <ele>809.59997558594</ele>
        <time>2022-03-16T11:08:53.000Z</time>
      </trkpt>
      <trkpt lat="45.73208" lon="4.60347">
        <ele>810</ele>
        <time>2022-03-16T11:08:54.000Z</time>
      </trkpt>
      <trkpt lat="45.73212" lon="4.60353">
        <ele>810.79998779297</ele>
        <time>2022-03-16T11:08:58.000Z</time>
      </trkpt>
      <trkpt lat="45.73213" lon="4.60354">
        <ele>811</ele>
        <time>2022-03-16T11:09:02.000Z</time>
      </trkpt>
      <trkpt lat="45.73219" lon="4.6036">
        <ele>812.20001220703</ele>
        <time>2022-03-16T11:09:06.000Z</time>
      </trkpt>
      <trkpt lat="45.73224" lon="4.60365">
        <ele>813.40002441406</ele>
        <time>2022-03-16T11:09:11.000Z</time>
      </trkpt>
      <trkpt lat="45.73231" lon="4.60371">
        <ele>814.40002441406</ele>
        <time>2022-03-16T11:09:15.000Z</time>
      </trkpt>
      <trkpt lat="45.73235" lon="4.60378">
        <ele>815</ele>
        <time>2022-03-16T11:09:20.000Z</time>
      </trkpt>
      <trkpt lat="45.73239" lon="4.60383">
        <ele>815.40002441406</ele>
        <time>2022-03-16T11:09:24.000Z</time>
      </trkpt>
      <trkpt lat="45.73244" lon="4.60387">
        <ele>816.40002441406</ele>
        <time>2022-03-16T11:09:29.000Z</time>
      </trkpt>
      <trkpt lat="45.73246" lon="4.60389">
        <ele>816.79998779297</ele>
        <time>2022-03-16T11:09:32.000Z</time>
      </trkpt>
      <trkpt lat="45.73249" lon="4.6039">
        <ele>817.79998779297</ele>
        <time>2022-03-16T11:09:34.000Z</time>
      </trkpt>
      <trkpt lat="45.73253" lon="4.60393">
        <ele>818.40002441406</ele>
        <time>2022-03-16T11:09:37.000Z</time>
      </trkpt>
      <trkpt lat="45.73255" lon="4.60394">
        <ele>818.79998779297</ele>
        <time>2022-03-16T11:09:39.000Z</time>
      </trkpt>
      <trkpt lat="45.73261" lon="4.60398">
        <ele>820</ele>
        <time>2022-03-16T11:09:45.000Z</time>
      </trkpt>
      <trkpt lat="45.73267" lon="4.60401">
        <ele>820.79998779297</ele>
        <time>2022-03-16T11:09:50.000Z</time>
      </trkpt>
      <trkpt lat="45.73269" lon="4.60403">
        <ele>821.20001220703</ele>
        <time>2022-03-16T11:09:52.000Z</time>
      </trkpt>
      <trkpt lat="45.73271" lon="4.60404">
        <ele>821.59997558594</ele>
        <time>2022-03-16T11:09:55.000Z</time>
      </trkpt>
      <trkpt lat="45.73275" lon="4.60407">
        <ele>822.20001220703</ele>
        <time>2022-03-16T11:10:01.000Z</time>
      </trkpt>
      <trkpt lat="45.73279" lon="4.60412">
        <ele>822</ele>
        <time>2022-03-16T11:10:05.000Z</time>
      </trkpt>
      <trkpt lat="45.73281" lon="4.60415">
        <ele>822</ele>
        <time>2022-03-16T11:10:08.000Z</time>
      </trkpt>
      <trkpt lat="45.73288" lon="4.6042">
        <ele>822.79998779297</ele>
        <time>2022-03-16T11:10:14.000Z</time>
      </trkpt>
      <trkpt lat="45.73292" lon="4.60424">
        <ele>823.20001220703</ele>
        <time>2022-03-16T11:10:18.000Z</time>
      </trkpt>
      <trkpt lat="45.73299" lon="4.60429">
        <ele>824</ele>
        <time>2022-03-16T11:10:23.000Z</time>
      </trkpt>
      <trkpt lat="45.73306" lon="4.60433">
        <ele>825</ele>
        <time>2022-03-16T11:10:28.000Z</time>
      </trkpt>
      <trkpt lat="45.73315" lon="4.60437">
        <ele>826.40002441406</ele>
        <time>2022-03-16T11:10:33.000Z</time>
      </trkpt>
      <trkpt lat="45.73323" lon="4.60442">
        <ele>827.40002441406</ele>
        <time>2022-03-16T11:10:39.000Z</time>
      </trkpt>
      <trkpt lat="45.73328" lon="4.60444">
        <ele>828.20001220703</ele>
        <time>2022-03-16T11:10:43.000Z</time>
      </trkpt>
      <trkpt lat="45.73332" lon="4.60447">
        <ele>828.40002441406</ele>
        <time>2022-03-16T11:10:47.000Z</time>
      </trkpt>
      <trkpt lat="45.73341" lon="4.60452">
        <ele>829.20001220703</ele>
        <time>2022-03-16T11:10:53.000Z</time>
      </trkpt>
      <trkpt lat="45.73351" lon="4.60454">
        <ele>830.20001220703</ele>
        <time>2022-03-16T11:10:58.000Z</time>
      </trkpt>
      <trkpt lat="45.73361" lon="4.60456">
        <ele>831.20001220703</ele>
        <time>2022-03-16T11:11:04.000Z</time>
      </trkpt>
      <trkpt lat="45.73368" lon="4.60458">
        <ele>831.79998779297</ele>
        <time>2022-03-16T11:11:08.000Z</time>
      </trkpt>
      <trkpt lat="45.73378" lon="4.60461">
        <ele>832</ele>
        <time>2022-03-16T11:11:12.000Z</time>
      </trkpt>
      <trkpt lat="45.73387" lon="4.60463">
        <ele>832.59997558594</ele>
        <time>2022-03-16T11:11:15.000Z</time>
      </trkpt>
      <trkpt lat="45.73403" lon="4.60465">
        <ele>833.59997558594</ele>
        <time>2022-03-16T11:11:20.000Z</time>
      </trkpt>
      <trkpt lat="45.7342" lon="4.60466">
        <ele>833.79998779297</ele>
        <time>2022-03-16T11:11:26.000Z</time>
      </trkpt>
      <trkpt lat="45.73437" lon="4.60465">
        <ele>834.20001220703</ele>
        <time>2022-03-16T11:11:33.000Z</time>
      </trkpt>
      <trkpt lat="45.7344" lon="4.60465">
        <ele>834.20001220703</ele>
        <time>2022-03-16T11:11:35.000Z</time>
      </trkpt>
      <trkpt lat="45.73447" lon="4.60464">
        <ele>834.20001220703</ele>
        <time>2022-03-16T11:11:38.000Z</time>
      </trkpt>
      <trkpt lat="45.73453" lon="4.60459">
        <ele>834.79998779297</ele>
        <time>2022-03-16T11:11:41.000Z</time>
      </trkpt>
      <trkpt lat="45.73457" lon="4.60454">
        <ele>835.59997558594</ele>
        <time>2022-03-16T11:11:44.000Z</time>
      </trkpt>
      <trkpt lat="45.73463" lon="4.60452">
        <ele>835.79998779297</ele>
        <time>2022-03-16T11:11:47.000Z</time>
      </trkpt>
      <trkpt lat="45.73466" lon="4.60451">
        <ele>835.79998779297</ele>
        <time>2022-03-16T11:11:48.000Z</time>
      </trkpt>
      <trkpt lat="45.73473" lon="4.60449">
        <ele>835.79998779297</ele>
        <time>2022-03-16T11:11:50.000Z</time>
      </trkpt>
      <trkpt lat="45.73483" lon="4.60448">
        <ele>835.59997558594</ele>
        <time>2022-03-16T11:11:52.000Z</time>
      </trkpt>
      <trkpt lat="45.73501" lon="4.60447">
        <ele>834.40002441406</ele>
        <time>2022-03-16T11:11:56.000Z</time>
      </trkpt>
      <trkpt lat="45.73512" lon="4.60448">
        <ele>833.59997558594</ele>
        <time>2022-03-16T11:11:58.000Z</time>
      </trkpt>
      <trkpt lat="45.73523" lon="4.60453">
        <ele>832</ele>
        <time>2022-03-16T11:12:00.000Z</time>
      </trkpt>
      <trkpt lat="45.7355" lon="4.60457">
        <ele>829.40002441406</ele>
        <time>2022-03-16T11:12:04.000Z</time>
      </trkpt>
      <trkpt lat="45.73564" lon="4.60458">
        <ele>828.40002441406</ele>
        <time>2022-03-16T11:12:06.000Z</time>
      </trkpt>
      <trkpt lat="45.73579" lon="4.60462">
        <ele>826.79998779297</ele>
        <time>2022-03-16T11:12:08.000Z</time>
      </trkpt>
      <trkpt lat="45.73586" lon="4.60464">
        <ele>826.20001220703</ele>
        <time>2022-03-16T11:12:09.000Z</time>
      </trkpt>
      <trkpt lat="45.73599" lon="4.60464">
        <ele>825</ele>
        <time>2022-03-16T11:12:11.000Z</time>
      </trkpt>
      <trkpt lat="45.73623" lon="4.60458">
        <ele>825</ele>
        <time>2022-03-16T11:12:16.000Z</time>
      </trkpt>
      <trkpt lat="45.73651" lon="4.60444">
        <ele>826.59997558594</ele>
        <time>2022-03-16T11:12:22.000Z</time>
      </trkpt>
      <trkpt lat="45.73668" lon="4.60435">
        <ele>828</ele>
        <time>2022-03-16T11:12:27.000Z</time>
      </trkpt>
      <trkpt lat="45.73674" lon="4.60443">
        <ele>826.59997558594</ele>
        <time>2022-03-16T11:12:29.000Z</time>
      </trkpt>
      <trkpt lat="45.7368" lon="4.60451">
        <ele>824.79998779297</ele>
        <time>2022-03-16T11:12:31.000Z</time>
      </trkpt>
      <trkpt lat="45.73684" lon="4.60454">
        <ele>824.20001220703</ele>
        <time>2022-03-16T11:12:32.000Z</time>
      </trkpt>
      <trkpt lat="45.73693" lon="4.6046">
        <ele>822.59997558594</ele>
        <time>2022-03-16T11:12:34.000Z</time>
      </trkpt>
      <trkpt lat="45.73702" lon="4.60459">
        <ele>821.79998779297</ele>
        <time>2022-03-16T11:12:36.000Z</time>
      </trkpt>
      <trkpt lat="45.73715" lon="4.60448">
        <ele>821.40002441406</ele>
        <time>2022-03-16T11:12:40.000Z</time>
      </trkpt>
      <trkpt lat="45.73729" lon="4.60436">
        <ele>820.79998779297</ele>
        <time>2022-03-16T11:12:45.000Z</time>
      </trkpt>
      <trkpt lat="45.73737" lon="4.60427">
        <ele>821.40002441406</ele>
        <time>2022-03-16T11:12:50.000Z</time>
      </trkpt>
      <trkpt lat="45.73746" lon="4.60419">
        <ele>821.40002441406</ele>
        <time>2022-03-16T11:12:55.000Z</time>
      </trkpt>
      <trkpt lat="45.73748" lon="4.60417">
        <ele>821.59997558594</ele>
        <time>2022-03-16T11:12:57.000Z</time>
      </trkpt>
      <trkpt lat="45.73754" lon="4.60409">
        <ele>822.20001220703</ele>
        <time>2022-03-16T11:13:00.000Z</time>
      </trkpt>
      <trkpt lat="45.73761" lon="4.604">
        <ele>823.20001220703</ele>
        <time>2022-03-16T11:13:05.000Z</time>
      </trkpt>
      <trkpt lat="45.73763" lon="4.60398">
        <ele>823.40002441406</ele>
        <time>2022-03-16T11:13:06.000Z</time>
      </trkpt>
      <trkpt lat="45.73768" lon="4.60388">
        <ele>824</ele>
        <time>2022-03-16T11:13:11.000Z</time>
      </trkpt>
      <trkpt lat="45.73768" lon="4.60383">
        <ele>824.59997558594</ele>
        <time>2022-03-16T11:13:13.000Z</time>
      </trkpt>
      <trkpt lat="45.73768" lon="4.60377">
        <ele>825.20001220703</ele>
        <time>2022-03-16T11:13:15.000Z</time>
      </trkpt>
      <trkpt lat="45.73771" lon="4.60369">
        <ele>826</ele>
        <time>2022-03-16T11:13:18.000Z</time>
      </trkpt>
      <trkpt lat="45.73772" lon="4.60361">
        <ele>826.79998779297</ele>
        <time>2022-03-16T11:13:21.000Z</time>
      </trkpt>
      <trkpt lat="45.73773" lon="4.60357">
        <ele>827.20001220703</ele>
        <time>2022-03-16T11:13:23.000Z</time>
      </trkpt>
      <trkpt lat="45.73773" lon="4.60349">
        <ele>827.79998779297</ele>
        <time>2022-03-16T11:13:26.000Z</time>
      </trkpt>
      <trkpt lat="45.73778" lon="4.60341">
        <ele>828</ele>
        <time>2022-03-16T11:13:31.000Z</time>
      </trkpt>
      <trkpt lat="45.73781" lon="4.60323">
        <ele>828.79998779297</ele>
        <time>2022-03-16T11:13:38.000Z</time>
      </trkpt>
      <trkpt lat="45.73782" lon="4.60314">
        <ele>829</ele>
        <time>2022-03-16T11:13:42.000Z</time>
      </trkpt>
      <trkpt lat="45.73782" lon="4.60313">
        <ele>829</ele>
        <time>2022-03-16T11:13:43.000Z</time>
      </trkpt>
      <trkpt lat="45.73784" lon="4.60302">
        <ele>829</ele>
        <time>2022-03-16T11:13:48.000Z</time>
      </trkpt>
      <trkpt lat="45.73785" lon="4.60289">
        <ele>829</ele>
        <time>2022-03-16T11:13:54.000Z</time>
      </trkpt>
      <trkpt lat="45.73784" lon="4.60277">
        <ele>828.79998779297</ele>
        <time>2022-03-16T11:14:00.000Z</time>
      </trkpt>
      <trkpt lat="45.73786" lon="4.6026">
        <ele>828</ele>
        <time>2022-03-16T11:14:07.000Z</time>
      </trkpt>
      <trkpt lat="45.73786" lon="4.60254">
        <ele>828</ele>
        <time>2022-03-16T11:14:09.000Z</time>
      </trkpt>
      <trkpt lat="45.73785" lon="4.60249">
        <ele>827.79998779297</ele>
        <time>2022-03-16T11:14:11.000Z</time>
      </trkpt>
      <trkpt lat="45.73785" lon="4.60247">
        <ele>827.79998779297</ele>
        <time>2022-03-16T11:14:12.000Z</time>
      </trkpt>
      <trkpt lat="45.73788" lon="4.60235">
        <ele>827.20001220703</ele>
        <time>2022-03-16T11:14:16.000Z</time>
      </trkpt>
      <trkpt lat="45.73796" lon="4.60225">
        <ele>826.59997558594</ele>
        <time>2022-03-16T11:14:21.000Z</time>
      </trkpt>
      <trkpt lat="45.738" lon="4.60222">
        <ele>826.20001220703</ele>
        <time>2022-03-16T11:14:24.000Z</time>
      </trkpt>
      <trkpt lat="45.73801" lon="4.60223">
        <ele>826.20001220703</ele>
        <time>2022-03-16T11:14:25.000Z</time>
      </trkpt>
      <trkpt lat="45.73807" lon="4.60228">
        <ele>826.20001220703</ele>
        <time>2022-03-16T11:14:29.000Z</time>
      </trkpt>
      <trkpt lat="45.73811" lon="4.60226">
        <ele>826</ele>
        <time>2022-03-16T11:14:31.000Z</time>
      </trkpt>
      <trkpt lat="45.73819" lon="4.60229">
        <ele>826.40002441406</ele>
        <time>2022-03-16T11:14:35.000Z</time>
      </trkpt>
      <trkpt lat="45.73827" lon="4.60236">
        <ele>827</ele>
        <time>2022-03-16T11:14:40.000Z</time>
      </trkpt>
      <trkpt lat="45.73829" lon="4.60237">
        <ele>827.20001220703</ele>
        <time>2022-03-16T11:14:41.000Z</time>
      </trkpt>
      <trkpt lat="45.73833" lon="4.60239">
        <ele>827.59997558594</ele>
        <time>2022-03-16T11:14:43.000Z</time>
      </trkpt>
      <trkpt lat="45.73843" lon="4.6024">
        <ele>828.40002441406</ele>
        <time>2022-03-16T11:14:48.000Z</time>
      </trkpt>
      <trkpt lat="45.7385" lon="4.60244">
        <ele>829.79998779297</ele>
        <time>2022-03-16T11:14:52.000Z</time>
      </trkpt>
      <trkpt lat="45.73856" lon="4.60248">
        <ele>830.79998779297</ele>
        <time>2022-03-16T11:14:56.000Z</time>
      </trkpt>
      <trkpt lat="45.73865" lon="4.60256">
        <ele>832.40002441406</ele>
        <time>2022-03-16T11:15:02.000Z</time>
      </trkpt>
      <trkpt lat="45.73873" lon="4.60262">
        <ele>833.59997558594</ele>
        <time>2022-03-16T11:15:07.000Z</time>
      </trkpt>
      <trkpt lat="45.73882" lon="4.60267">
        <ele>835</ele>
        <time>2022-03-16T11:15:12.000Z</time>
      </trkpt>
      <trkpt lat="45.7389" lon="4.60271">
        <ele>836.40002441406</ele>
        <time>2022-03-16T11:15:18.000Z</time>
      </trkpt>
      <trkpt lat="45.7389" lon="4.60271">
        <ele>836.40002441406</ele>
        <time>2022-03-16T11:15:26.000Z</time>
      </trkpt>
      <trkpt lat="45.7389" lon="4.60271">
        <ele>836.40002441406</ele>
        <time>2022-03-16T11:15:43.000Z</time>
      </trkpt>
      <trkpt lat="45.7389" lon="4.60272">
        <ele>836.40002441406</ele>
        <time>2022-03-16T11:16:05.000Z</time>
      </trkpt>
      <trkpt lat="45.7389" lon="4.60272">
        <ele>836.40002441406</ele>
        <time>2022-03-16T11:16:11.000Z</time>
      </trkpt>
      <trkpt lat="45.73891" lon="4.60272">
        <ele>836.59997558594</ele>
        <time>2022-03-16T11:16:13.000Z</time>
      </trkpt>
      <trkpt lat="45.73895" lon="4.60273">
        <ele>837</ele>
        <time>2022-03-16T11:16:15.000Z</time>
      </trkpt>
      <trkpt lat="45.73907" lon="4.60281">
        <ele>837.40002441406</ele>
        <time>2022-03-16T11:16:20.000Z</time>
      </trkpt>
      <trkpt lat="45.73911" lon="4.60285">
        <ele>837.40002441406</ele>
        <time>2022-03-16T11:16:23.000Z</time>
      </trkpt>
      <trkpt lat="45.73923" lon="4.60294">
        <ele>837.59997558594</ele>
        <time>2022-03-16T11:16:28.000Z</time>
      </trkpt>
      <trkpt lat="45.73938" lon="4.60304">
        <ele>838.79998779297</ele>
        <time>2022-03-16T11:16:34.000Z</time>
      </trkpt>
      <trkpt lat="45.73954" lon="4.60313">
        <ele>840.20001220703</ele>
        <time>2022-03-16T11:16:40.000Z</time>
      </trkpt>
      <trkpt lat="45.73969" lon="4.60319">
        <ele>841.79998779297</ele>
        <time>2022-03-16T11:16:46.000Z</time>
      </trkpt>
      <trkpt lat="45.73987" lon="4.6033">
        <ele>842.79998779297</ele>
        <time>2022-03-16T11:16:53.000Z</time>
      </trkpt>
      <trkpt lat="45.74" lon="4.60341">
        <ele>843.20001220703</ele>
        <time>2022-03-16T11:16:58.000Z</time>
      </trkpt>
      <trkpt lat="45.74011" lon="4.60358">
        <ele>843.20001220703</ele>
        <time>2022-03-16T11:17:04.000Z</time>
      </trkpt>
      <trkpt lat="45.74016" lon="4.60365">
        <ele>843</ele>
        <time>2022-03-16T11:17:08.000Z</time>
      </trkpt>
      <trkpt lat="45.74018" lon="4.60367">
        <ele>842.79998779297</ele>
        <time>2022-03-16T11:17:09.000Z</time>
      </trkpt>
      <trkpt lat="45.74022" lon="4.60376">
        <ele>842.40002441406</ele>
        <time>2022-03-16T11:17:12.000Z</time>
      </trkpt>
      <trkpt lat="45.74024" lon="4.60378">
        <ele>842.20001220703</ele>
        <time>2022-03-16T11:17:16.000Z</time>
      </trkpt>
      <trkpt lat="45.74023" lon="4.60379">
        <ele>842.20001220703</ele>
        <time>2022-03-16T11:17:24.000Z</time>
      </trkpt>
      <trkpt lat="45.74024" lon="4.60376">
        <ele>842.20001220703</ele>
        <time>2022-03-16T11:17:26.000Z</time>
      </trkpt>
      <trkpt lat="45.74025" lon="4.60372">
        <ele>842</ele>
        <time>2022-03-16T11:17:28.000Z</time>
      </trkpt>
      <trkpt lat="45.74029" lon="4.60366">
        <ele>841.59997558594</ele>
        <time>2022-03-16T11:17:30.000Z</time>
      </trkpt>
      <trkpt lat="45.74033" lon="4.60364">
        <ele>841.20001220703</ele>
        <time>2022-03-16T11:17:31.000Z</time>
      </trkpt>
      <trkpt lat="45.7404" lon="4.60358">
        <ele>839.40002441406</ele>
        <time>2022-03-16T11:17:35.000Z</time>
      </trkpt>
      <trkpt lat="45.74047" lon="4.60356">
        <ele>838</ele>
        <time>2022-03-16T11:17:39.000Z</time>
      </trkpt>
      <trkpt lat="45.7405" lon="4.60357">
        <ele>837.40002441406</ele>
        <time>2022-03-16T11:17:40.000Z</time>
      </trkpt>
      <trkpt lat="45.7406" lon="4.6036">
        <ele>835.40002441406</ele>
        <time>2022-03-16T11:17:42.000Z</time>
      </trkpt>
      <trkpt lat="45.74071" lon="4.60364">
        <ele>833.40002441406</ele>
        <time>2022-03-16T11:17:44.000Z</time>
      </trkpt>
      <trkpt lat="45.74081" lon="4.60369">
        <ele>831.40002441406</ele>
        <time>2022-03-16T11:17:47.000Z</time>
      </trkpt>
      <trkpt lat="45.74081" lon="4.6037">
        <ele>831.40002441406</ele>
        <time>2022-03-16T11:17:53.000Z</time>
      </trkpt>
      <trkpt lat="45.7479" lon="4.61166">
        <ele>736.40002441406</ele>
        <time>2022-03-16T11:24:02.000Z</time>
      </trkpt>
      <trkpt lat="45.7479" lon="4.61162">
        <ele>736</ele>
        <time>2022-03-16T11:24:04.000Z</time>
      </trkpt>
      <trkpt lat="45.74791" lon="4.6115">
        <ele>734.59997558594</ele>
        <time>2022-03-16T11:24:10.000Z</time>
      </trkpt>
      <trkpt lat="45.74792" lon="4.61134">
        <ele>733.59997558594</ele>
        <time>2022-03-16T11:24:16.000Z</time>
      </trkpt>
      <trkpt lat="45.74793" lon="4.61127">
        <ele>733</ele>
        <time>2022-03-16T11:24:21.000Z</time>
      </trkpt>
      <trkpt lat="45.74796" lon="4.6113">
        <ele>733.40002441406</ele>
        <time>2022-03-16T11:24:36.000Z</time>
      </trkpt>
      <trkpt lat="45.74795" lon="4.61125">
        <ele>733</ele>
        <time>2022-03-16T11:24:56.000Z</time>
      </trkpt>
      <trkpt lat="45.74797" lon="4.61129">
        <ele>733.40002441406</ele>
        <time>2022-03-16T11:25:15.000Z</time>
      </trkpt>
      <trkpt lat="45.74792" lon="4.61115">
        <ele>732.20001220703</ele>
        <time>2022-03-16T11:25:19.000Z</time>
      </trkpt>
      <trkpt lat="45.74796" lon="4.61101">
        <ele>730.79998779297</ele>
        <time>2022-03-16T11:25:21.000Z</time>
      </trkpt>
      <trkpt lat="45.74805" lon="4.61091">
        <ele>731.20001220703</ele>
        <time>2022-03-16T11:25:24.000Z</time>
      </trkpt>
      <trkpt lat="45.74808" lon="4.61085">
        <ele>731</ele>
        <time>2022-03-16T11:25:27.000Z</time>
      </trkpt>
      <trkpt lat="45.74811" lon="4.61075">
        <ele>729.79998779297</ele>
        <time>2022-03-16T11:25:29.000Z</time>
      </trkpt>
      <trkpt lat="45.7482" lon="4.61054">
        <ele>727.79998779297</ele>
        <time>2022-03-16T11:25:32.000Z</time>
      </trkpt>
      <trkpt lat="45.74823" lon="4.61048">
        <ele>727.40002441406</ele>
        <time>2022-03-16T11:25:33.000Z</time>
      </trkpt>
      <trkpt lat="45.7483" lon="4.61035">
        <ele>726.20001220703</ele>
        <time>2022-03-16T11:25:35.000Z</time>
      </trkpt>
      <trkpt lat="45.74836" lon="4.6102">
        <ele>723.59997558594</ele>
        <time>2022-03-16T11:25:37.000Z</time>
      </trkpt>
      <trkpt lat="45.74839" lon="4.61011">
        <ele>721.79998779297</ele>
        <time>2022-03-16T11:25:38.000Z</time>
      </trkpt>
      <trkpt lat="45.74846" lon="4.60994">
        <ele>719.79998779297</ele>
        <time>2022-03-16T11:25:40.000Z</time>
      </trkpt>
      <trkpt lat="45.7485" lon="4.60987">
        <ele>719.40002441406</ele>
        <time>2022-03-16T11:25:41.000Z</time>
      </trkpt>
      <trkpt lat="45.74853" lon="4.60978">
        <ele>718.40002441406</ele>
        <time>2022-03-16T11:25:42.000Z</time>
      </trkpt>
      <trkpt lat="45.74866" lon="4.60949">
        <ele>715.79998779297</ele>
        <time>2022-03-16T11:25:45.000Z</time>
      </trkpt>
      <trkpt lat="45.74874" lon="4.60917">
        <ele>712.20001220703</ele>
        <time>2022-03-16T11:25:48.000Z</time>
      </trkpt>
      <trkpt lat="45.74878" lon="4.60906">
        <ele>711.40002441406</ele>
        <time>2022-03-16T11:25:49.000Z</time>
      </trkpt>
      <trkpt lat="45.74885" lon="4.60887">
        <ele>710.40002441406</ele>
        <time>2022-03-16T11:25:51.000Z</time>
      </trkpt>
      <trkpt lat="45.7489" lon="4.60864">
        <ele>708.40002441406</ele>
        <time>2022-03-16T11:25:53.000Z</time>
      </trkpt>
      <trkpt lat="45.74894" lon="4.60841">
        <ele>704.40002441406</ele>
        <time>2022-03-16T11:25:55.000Z</time>
      </trkpt>
      <trkpt lat="45.74899" lon="4.60822">
        <ele>701</ele>
        <time>2022-03-16T11:25:57.000Z</time>
      </trkpt>
      <trkpt lat="45.74907" lon="4.60805">
        <ele>699.59997558594</ele>
        <time>2022-03-16T11:25:59.000Z</time>
      </trkpt>
      <trkpt lat="45.74917" lon="4.60793">
        <ele>700</ele>
        <time>2022-03-16T11:26:01.000Z</time>
      </trkpt>
      <trkpt lat="45.74921" lon="4.60776">
        <ele>697.59997558594</ele>
        <time>2022-03-16T11:26:04.000Z</time>
      </trkpt>
      <trkpt lat="45.74924" lon="4.60764">
        <ele>696</ele>
        <time>2022-03-16T11:26:06.000Z</time>
      </trkpt>
      <trkpt lat="45.74933" lon="4.60757">
        <ele>695.20001220703</ele>
        <time>2022-03-16T11:26:08.000Z</time>
      </trkpt>
      <trkpt lat="45.74943" lon="4.60756">
        <ele>695.40002441406</ele>
        <time>2022-03-16T11:26:10.000Z</time>
      </trkpt>
      <trkpt lat="45.74948" lon="4.60757">
        <ele>696</ele>
        <time>2022-03-16T11:26:11.000Z</time>
      </trkpt>
      <trkpt lat="45.74976" lon="4.6077">
        <ele>700.20001220703</ele>
        <time>2022-03-16T11:26:16.000Z</time>
      </trkpt>
      <trkpt lat="45.7499" lon="4.60776">
        <ele>701.40002441406</ele>
        <time>2022-03-16T11:26:19.000Z</time>
      </trkpt>
      <trkpt lat="45.74998" lon="4.6078">
        <ele>702</ele>
        <time>2022-03-16T11:26:21.000Z</time>
      </trkpt>
      <trkpt lat="45.75017" lon="4.60786">
        <ele>703.20001220703</ele>
        <time>2022-03-16T11:26:27.000Z</time>
      </trkpt>
      <trkpt lat="45.75032" lon="4.60786">
        <ele>702.59997558594</ele>
        <time>2022-03-16T11:26:32.000Z</time>
      </trkpt>
      <trkpt lat="45.7505" lon="4.60787">
        <ele>702.20001220703</ele>
        <time>2022-03-16T11:26:37.000Z</time>
      </trkpt>
      <trkpt lat="45.75062" lon="4.60788">
        <ele>701.20001220703</ele>
        <time>2022-03-16T11:26:40.000Z</time>
      </trkpt>
      <trkpt lat="45.75067" lon="4.60789">
        <ele>701</ele>
        <time>2022-03-16T11:26:41.000Z</time>
      </trkpt>
      <trkpt lat="45.75084" lon="4.60792">
        <ele>699.79998779297</ele>
        <time>2022-03-16T11:26:45.000Z</time>
      </trkpt>
      <trkpt lat="45.75098" lon="4.60792">
        <ele>698.59997558594</ele>
        <time>2022-03-16T11:26:49.000Z</time>
      </trkpt>
      <trkpt lat="45.75116" lon="4.60792">
        <ele>696.79998779297</ele>
        <time>2022-03-16T11:26:55.000Z</time>
      </trkpt>
      <trkpt lat="45.75121" lon="4.60791">
        <ele>696.59997558594</ele>
        <time>2022-03-16T11:26:57.000Z</time>
      </trkpt>
      <trkpt lat="45.75128" lon="4.60789">
        <ele>696.59997558594</ele>
        <time>2022-03-16T11:27:00.000Z</time>
      </trkpt>
      <trkpt lat="45.75138" lon="4.60787">
        <ele>695.79998779297</ele>
        <time>2022-03-16T11:27:04.000Z</time>
      </trkpt>
      <trkpt lat="45.75141" lon="4.60786">
        <ele>695.79998779297</ele>
        <time>2022-03-16T11:27:06.000Z</time>
      </trkpt>
      <trkpt lat="45.75149" lon="4.60784">
        <ele>695.40002441406</ele>
        <time>2022-03-16T11:27:12.000Z</time>
      </trkpt>
      <trkpt lat="45.7516" lon="4.60781">
        <ele>695.59997558594</ele>
        <time>2022-03-16T11:27:17.000Z</time>
      </trkpt>
      <trkpt lat="45.75177" lon="4.60781">
        <ele>697.40002441406</ele>
        <time>2022-03-16T11:27:23.000Z</time>
      </trkpt>
      <trkpt lat="45.75186" lon="4.60783">
        <ele>698.40002441406</ele>
        <time>2022-03-16T11:27:27.000Z</time>
      </trkpt>
      <trkpt lat="45.7519" lon="4.60786">
        <ele>699.79998779297</ele>
        <time>2022-03-16T11:27:29.000Z</time>
      </trkpt>
      <trkpt lat="45.752" lon="4.6079">
        <ele>701.79998779297</ele>
        <time>2022-03-16T11:27:33.000Z</time>
      </trkpt>
      <trkpt lat="45.75208" lon="4.60799">
        <ele>703.79998779297</ele>
        <time>2022-03-16T11:27:37.000Z</time>
      </trkpt>
      <trkpt lat="45.7521" lon="4.60802">
        <ele>704.40002441406</ele>
        <time>2022-03-16T11:27:38.000Z</time>
      </trkpt>
      <trkpt lat="45.7522" lon="4.60813">
        <ele>705.59997558594</ele>
        <time>2022-03-16T11:27:43.000Z</time>
      </trkpt>
      <trkpt lat="45.75232" lon="4.60832">
        <ele>706.59997558594</ele>
        <time>2022-03-16T11:27:49.000Z</time>
      </trkpt>
      <trkpt lat="45.75241" lon="4.60846">
        <ele>706.20001220703</ele>
        <time>2022-03-16T11:27:53.000Z</time>
      </trkpt>
      <trkpt lat="45.75251" lon="4.60863">
        <ele>706.20001220703</ele>
        <time>2022-03-16T11:27:58.000Z</time>
      </trkpt>
      <trkpt lat="45.75262" lon="4.60877">
        <ele>705.59997558594</ele>
        <time>2022-03-16T11:28:04.000Z</time>
      </trkpt>
      <trkpt lat="45.75269" lon="4.60894">
        <ele>707</ele>
        <time>2022-03-16T11:28:09.000Z</time>
      </trkpt>
      <trkpt lat="45.75279" lon="4.60914">
        <ele>709</ele>
        <time>2022-03-16T11:28:15.000Z</time>
      </trkpt>
      <trkpt lat="45.75287" lon="4.60928">
        <ele>709.59997558594</ele>
        <time>2022-03-16T11:28:20.000Z</time>
      </trkpt>
      <trkpt lat="45.75293" lon="4.60939">
        <ele>710.20001220703</ele>
        <time>2022-03-16T11:28:25.000Z</time>
      </trkpt>
      <trkpt lat="45.75297" lon="4.60945">
        <ele>710</ele>
        <time>2022-03-16T11:28:30.000Z</time>
      </trkpt>
      <trkpt lat="45.75301" lon="4.60957">
        <ele>711.59997558594</ele>
        <time>2022-03-16T11:28:35.000Z</time>
      </trkpt>
      <trkpt lat="45.75302" lon="4.60959">
        <ele>711.59997558594</ele>
        <time>2022-03-16T11:28:36.000Z</time>
      </trkpt>
      <trkpt lat="45.75307" lon="4.60967">
        <ele>711.20001220703</ele>
        <time>2022-03-16T11:28:40.000Z</time>
      </trkpt>
      <trkpt lat="45.75317" lon="4.60981">
        <ele>709.59997558594</ele>
        <time>2022-03-16T11:28:45.000Z</time>
      </trkpt>
      <trkpt lat="45.75327" lon="4.60996">
        <ele>707.20001220703</ele>
        <time>2022-03-16T11:28:50.000Z</time>
      </trkpt>
      <trkpt lat="45.75338" lon="4.61009">
        <ele>704.20001220703</ele>
        <time>2022-03-16T11:28:55.000Z</time>
      </trkpt>
      <trkpt lat="45.75357" lon="4.6102">
        <ele>701.20001220703</ele>
        <time>2022-03-16T11:29:00.000Z</time>
      </trkpt>
      <trkpt lat="45.75373" lon="4.61025">
        <ele>699.20001220703</ele>
        <time>2022-03-16T11:29:03.000Z</time>
      </trkpt>
      <trkpt lat="45.75382" lon="4.61025">
        <ele>698.20001220703</ele>
        <time>2022-03-16T11:29:04.000Z</time>
      </trkpt>
      <trkpt lat="45.75399" lon="4.61027">
        <ele>697.20001220703</ele>
        <time>2022-03-16T11:29:06.000Z</time>
      </trkpt>
      <trkpt lat="45.75418" lon="4.61029">
        <ele>696</ele>
        <time>2022-03-16T11:29:08.000Z</time>
      </trkpt>
      <trkpt lat="45.75436" lon="4.61034">
        <ele>696.59997558594</ele>
        <time>2022-03-16T11:29:10.000Z</time>
      </trkpt>
      <trkpt lat="45.75451" lon="4.61042">
        <ele>698.59997558594</ele>
        <time>2022-03-16T11:29:13.000Z</time>
      </trkpt>
      <trkpt lat="45.75457" lon="4.61045">
        <ele>699</ele>
        <time>2022-03-16T11:29:15.000Z</time>
      </trkpt>
      <trkpt lat="45.7546" lon="4.61049">
        <ele>699.79998779297</ele>
        <time>2022-03-16T11:29:17.000Z</time>
      </trkpt>
      <trkpt lat="45.7547" lon="4.61056">
        <ele>701.20001220703</ele>
        <time>2022-03-16T11:29:23.000Z</time>
      </trkpt>
      <trkpt lat="45.75479" lon="4.61062">
        <ele>702</ele>
        <time>2022-03-16T11:29:28.000Z</time>
      </trkpt>
      <trkpt lat="45.75484" lon="4.61064">
        <ele>702.20001220703</ele>
        <time>2022-03-16T11:29:32.000Z</time>
      </trkpt>
      <trkpt lat="45.75487" lon="4.61068">
        <ele>702.79998779297</ele>
        <time>2022-03-16T11:29:36.000Z</time>
      </trkpt>
      <trkpt lat="45.75489" lon="4.61069">
        <ele>703</ele>
        <time>2022-03-16T11:29:38.000Z</time>
      </trkpt>
      <trkpt lat="45.755" lon="4.61078">
        <ele>704.40002441406</ele>
        <time>2022-03-16T11:29:45.000Z</time>
      </trkpt>
      <trkpt lat="45.75507" lon="4.61083">
        <ele>705.20001220703</ele>
        <time>2022-03-16T11:29:52.000Z</time>
      </trkpt>
      <trkpt lat="45.75513" lon="4.61086">
        <ele>705.40002441406</ele>
        <time>2022-03-16T11:29:57.000Z</time>
      </trkpt>
      <trkpt lat="45.75518" lon="4.61089">
        <ele>705.59997558594</ele>
        <time>2022-03-16T11:30:02.000Z</time>
      </trkpt>
      <trkpt lat="45.75522" lon="4.61093">
        <ele>706.20001220703</ele>
        <time>2022-03-16T11:30:07.000Z</time>
      </trkpt>
      <trkpt lat="45.75531" lon="4.61098">
        <ele>706.79998779297</ele>
        <time>2022-03-16T11:30:13.000Z</time>
      </trkpt>
      <trkpt lat="45.75541" lon="4.61107">
        <ele>708</ele>
        <time>2022-03-16T11:30:18.000Z</time>
      </trkpt>
      <trkpt lat="45.75543" lon="4.61109">
        <ele>708.20001220703</ele>
        <time>2022-03-16T11:30:19.000Z</time>
      </trkpt>
      <trkpt lat="45.75552" lon="4.61117">
        <ele>709.20001220703</ele>
        <time>2022-03-16T11:30:23.000Z</time>
      </trkpt>
      <trkpt lat="45.75565" lon="4.6113">
        <ele>710.20001220703</ele>
        <time>2022-03-16T11:30:29.000Z</time>
      </trkpt>
      <trkpt lat="45.75572" lon="4.61139">
        <ele>710.20001220703</ele>
        <time>2022-03-16T11:30:34.000Z</time>
      </trkpt>
      <trkpt lat="45.75583" lon="4.61154">
        <ele>710.59997558594</ele>
        <time>2022-03-16T11:30:40.000Z</time>
      </trkpt>
      <trkpt lat="45.7559" lon="4.61164">
        <ele>711.40002441406</ele>
        <time>2022-03-16T11:30:44.000Z</time>
      </trkpt>
      <trkpt lat="45.75593" lon="4.61168">
        <ele>711.59997558594</ele>
        <time>2022-03-16T11:30:46.000Z</time>
      </trkpt>
      <trkpt lat="45.75603" lon="4.61176">
        <ele>711</ele>
        <time>2022-03-16T11:30:51.000Z</time>
      </trkpt>
      <trkpt lat="45.75611" lon="4.61185">
        <ele>710.79998779297</ele>
        <time>2022-03-16T11:30:56.000Z</time>
      </trkpt>
      <trkpt lat="45.75612" lon="4.61187">
        <ele>711</ele>
        <time>2022-03-16T11:30:57.000Z</time>
      </trkpt>
      <trkpt lat="45.75613" lon="4.6119">
        <ele>711.40002441406</ele>
        <time>2022-03-16T11:30:58.000Z</time>
      </trkpt>
      <trkpt lat="45.75621" lon="4.61198">
        <ele>711.20001220703</ele>
        <time>2022-03-16T11:31:02.000Z</time>
      </trkpt>
      <trkpt lat="45.75629" lon="4.61204">
        <ele>710.20001220703</ele>
        <time>2022-03-16T11:31:06.000Z</time>
      </trkpt>
      <trkpt lat="45.75632" lon="4.61208">
        <ele>710</ele>
        <time>2022-03-16T11:31:08.000Z</time>
      </trkpt>
      <trkpt lat="45.75634" lon="4.6121">
        <ele>709.79998779297</ele>
        <time>2022-03-16T11:31:09.000Z</time>
      </trkpt>
      <trkpt lat="45.75641" lon="4.61216">
        <ele>708.79998779297</ele>
        <time>2022-03-16T11:31:13.000Z</time>
      </trkpt>
      <trkpt lat="45.75649" lon="4.61227">
        <ele>708.59997558594</ele>
        <time>2022-03-16T11:31:18.000Z</time>
      </trkpt>
      <trkpt lat="45.7565" lon="4.61229">
        <ele>708.79998779297</ele>
        <time>2022-03-16T11:31:19.000Z</time>
      </trkpt>
      <trkpt lat="45.75653" lon="4.61236">
        <ele>709.79998779297</ele>
        <time>2022-03-16T11:31:22.000Z</time>
      </trkpt>
      <trkpt lat="45.75654" lon="4.61238">
        <ele>710.40002441406</ele>
        <time>2022-03-16T11:31:23.000Z</time>
      </trkpt>
      <trkpt lat="45.75663" lon="4.61251">
        <ele>711.20001220703</ele>
        <time>2022-03-16T11:31:29.000Z</time>
      </trkpt>
      <trkpt lat="45.75671" lon="4.61265">
        <ele>712.40002441406</ele>
        <time>2022-03-16T11:31:34.000Z</time>
      </trkpt>
      <trkpt lat="45.7568" lon="4.61278">
        <ele>713.59997558594</ele>
        <time>2022-03-16T11:31:40.000Z</time>
      </trkpt>
      <trkpt lat="45.75686" lon="4.61289">
        <ele>715.20001220703</ele>
        <time>2022-03-16T11:31:45.000Z</time>
      </trkpt>
      <trkpt lat="45.7569" lon="4.61295">
        <ele>716</ele>
        <time>2022-03-16T11:31:48.000Z</time>
      </trkpt>
      <trkpt lat="45.75693" lon="4.61297">
        <ele>715.79998779297</ele>
        <time>2022-03-16T11:31:50.000Z</time>
      </trkpt>
      <trkpt lat="45.75694" lon="4.61298">
        <ele>715.79998779297</ele>
        <time>2022-03-16T11:31:51.000Z</time>
      </trkpt>
      <trkpt lat="45.75697" lon="4.61303">
        <ele>716.40002441406</ele>
        <time>2022-03-16T11:31:54.000Z</time>
      </trkpt>
      <trkpt lat="45.75698" lon="4.61304">
        <ele>716.40002441406</ele>
        <time>2022-03-16T11:31:55.000Z</time>
      </trkpt>
      <trkpt lat="45.75699" lon="4.61305">
        <ele>716.40002441406</ele>
        <time>2022-03-16T11:31:56.000Z</time>
      </trkpt>
      <trkpt lat="45.75702" lon="4.61308">
        <ele>716.79998779297</ele>
        <time>2022-03-16T11:31:58.000Z</time>
      </trkpt>
      <trkpt lat="45.75707" lon="4.61319">
        <ele>717.79998779297</ele>
        <time>2022-03-16T11:32:03.000Z</time>
      </trkpt>
      <trkpt lat="45.7571" lon="4.61323">
        <ele>718</ele>
        <time>2022-03-16T11:32:05.000Z</time>
      </trkpt>
      <trkpt lat="45.75712" lon="4.61328">
        <ele>718.59997558594</ele>
        <time>2022-03-16T11:32:08.000Z</time>
      </trkpt>
      <trkpt lat="45.75717" lon="4.61339">
        <ele>719.40002441406</ele>
        <time>2022-03-16T11:32:14.000Z</time>
      </trkpt>
      <trkpt lat="45.75717" lon="4.61341">
        <ele>719.40002441406</ele>
        <time>2022-03-16T11:32:15.000Z</time>
      </trkpt>
      <trkpt lat="45.75719" lon="4.61346">
        <ele>719.59997558594</ele>
        <time>2022-03-16T11:32:17.000Z</time>
      </trkpt>
      <trkpt lat="45.75721" lon="4.61352">
        <ele>719.40002441406</ele>
        <time>2022-03-16T11:32:21.000Z</time>
      </trkpt>
      <trkpt lat="45.75722" lon="4.61353">
        <ele>719.20001220703</ele>
        <time>2022-03-16T11:32:27.000Z</time>
      </trkpt>
      <trkpt lat="45.75722" lon="4.61353">
        <ele>719.20001220703</ele>
        <time>2022-03-16T11:32:37.000Z</time>
      </trkpt>
      <trkpt lat="45.75722" lon="4.61353">
        <ele>719.20001220703</ele>
        <time>2022-03-16T11:32:56.000Z</time>
      </trkpt>
      <trkpt lat="45.75722" lon="4.61354">
        <ele>719.40002441406</ele>
        <time>2022-03-16T11:33:09.000Z</time>
      </trkpt>
      <trkpt lat="45.75723" lon="4.61355">
        <ele>719</ele>
        <time>2022-03-16T11:33:10.000Z</time>
      </trkpt>
      <trkpt lat="45.75725" lon="4.61357">
        <ele>718.59997558594</ele>
        <time>2022-03-16T11:33:12.000Z</time>
      </trkpt>
      <trkpt lat="45.75725" lon="4.61361">
        <ele>719</ele>
        <time>2022-03-16T11:33:16.000Z</time>
      </trkpt>
      <trkpt lat="45.75725" lon="4.61361">
        <ele>719</ele>
        <time>2022-03-16T11:33:26.000Z</time>
      </trkpt>
      <trkpt lat="45.75725" lon="4.61361">
        <ele>719</ele>
        <time>2022-03-16T11:33:46.000Z</time>
      </trkpt>
      <trkpt lat="45.75725" lon="4.61361">
        <ele>719</ele>
        <time>2022-03-16T11:34:01.000Z</time>
      </trkpt>
      <trkpt lat="45.75725" lon="4.61361">
        <ele>719</ele>
        <time>2022-03-16T11:34:26.000Z</time>
      </trkpt>
      <trkpt lat="45.75725" lon="4.61364">
        <ele>719.20001220703</ele>
        <time>2022-03-16T11:34:38.000Z</time>
      </trkpt>
      <trkpt lat="45.7573" lon="4.61384">
        <ele>719.20001220703</ele>
        <time>2022-03-16T11:34:43.000Z</time>
      </trkpt>
      <trkpt lat="45.75729" lon="4.61394">
        <ele>720.20001220703</ele>
        <time>2022-03-16T11:34:46.000Z</time>
      </trkpt>
      <trkpt lat="45.7573" lon="4.61398">
        <ele>720.40002441406</ele>
        <time>2022-03-16T11:34:47.000Z</time>
      </trkpt>
      <trkpt lat="45.75731" lon="4.61421">
        <ele>722.59997558594</ele>
        <time>2022-03-16T11:34:53.000Z</time>
      </trkpt>
      <trkpt lat="45.75729" lon="4.6144">
        <ele>725.20001220703</ele>
        <time>2022-03-16T11:34:59.000Z</time>
      </trkpt>
      <trkpt lat="45.75729" lon="4.61453">
        <ele>726.40002441406</ele>
        <time>2022-03-16T11:35:05.000Z</time>
      </trkpt>
      <trkpt lat="45.75727" lon="4.61463">
        <ele>728.20001220703</ele>
        <time>2022-03-16T11:35:10.000Z</time>
      </trkpt>
      <trkpt lat="45.75727" lon="4.61467">
        <ele>728.79998779297</ele>
        <time>2022-03-16T11:35:12.000Z</time>
      </trkpt>
      <trkpt lat="45.75725" lon="4.61476">
        <ele>730</ele>
        <time>2022-03-16T11:35:16.000Z</time>
      </trkpt>
      <trkpt lat="45.75723" lon="4.61488">
        <ele>729.79998779297</ele>
        <time>2022-03-16T11:35:22.000Z</time>
      </trkpt>
      <trkpt lat="45.75722" lon="4.61499">
        <ele>730</ele>
        <time>2022-03-16T11:35:28.000Z</time>
      </trkpt>
      <trkpt lat="45.75719" lon="4.6151">
        <ele>731.79998779297</ele>
        <time>2022-03-16T11:35:34.000Z</time>
      </trkpt>
      <trkpt lat="45.75717" lon="4.61517">
        <ele>733</ele>
        <time>2022-03-16T11:35:38.000Z</time>
      </trkpt>
      <trkpt lat="45.75716" lon="4.61526">
        <ele>734</ele>
        <time>2022-03-16T11:35:43.000Z</time>
      </trkpt>
      <trkpt lat="45.75716" lon="4.6154">
        <ele>735</ele>
        <time>2022-03-16T11:35:50.000Z</time>
      </trkpt>
      <trkpt lat="45.75714" lon="4.61551">
        <ele>736</ele>
        <time>2022-03-16T11:35:56.000Z</time>
      </trkpt>
      <trkpt lat="45.75714" lon="4.61559">
        <ele>736.40002441406</ele>
        <time>2022-03-16T11:36:02.000Z</time>
      </trkpt>
      <trkpt lat="45.75714" lon="4.61571">
        <ele>737.59997558594</ele>
        <time>2022-03-16T11:36:08.000Z</time>
      </trkpt>
      <trkpt lat="45.75714" lon="4.61583">
        <ele>739.40002441406</ele>
        <time>2022-03-16T11:36:15.000Z</time>
      </trkpt>
      <trkpt lat="45.75714" lon="4.61592">
        <ele>739.59997558594</ele>
        <time>2022-03-16T11:36:21.000Z</time>
      </trkpt>
      <trkpt lat="45.75714" lon="4.61604">
        <ele>740.20001220703</ele>
        <time>2022-03-16T11:36:28.000Z</time>
      </trkpt>
      <trkpt lat="45.75714" lon="4.61613">
        <ele>741.59997558594</ele>
        <time>2022-03-16T11:36:34.000Z</time>
      </trkpt>
      <trkpt lat="45.75714" lon="4.61615">
        <ele>741.79998779297</ele>
        <time>2022-03-16T11:36:35.000Z</time>
      </trkpt>
      <trkpt lat="45.75712" lon="4.61625">
        <ele>742.79998779297</ele>
        <time>2022-03-16T11:36:40.000Z</time>
      </trkpt>
      <trkpt lat="45.75711" lon="4.61635">
        <ele>743.79998779297</ele>
        <time>2022-03-16T11:36:47.000Z</time>
      </trkpt>
      <trkpt lat="45.75709" lon="4.61643">
        <ele>745</ele>
        <time>2022-03-16T11:36:52.000Z</time>
      </trkpt>
      <trkpt lat="45.75707" lon="4.61656">
        <ele>745.40002441406</ele>
        <time>2022-03-16T11:36:59.000Z</time>
      </trkpt>
      <trkpt lat="45.75705" lon="4.61663">
        <ele>746.40002441406</ele>
        <time>2022-03-16T11:37:04.000Z</time>
      </trkpt>
      <trkpt lat="45.75704" lon="4.61665">
        <ele>746.79998779297</ele>
        <time>2022-03-16T11:37:05.000Z</time>
      </trkpt>
      <trkpt lat="45.75699" lon="4.61673">
        <ele>748.59997558594</ele>
        <time>2022-03-16T11:37:11.000Z</time>
      </trkpt>
      <trkpt lat="45.75695" lon="4.61673">
        <ele>749.40002441406</ele>
        <time>2022-03-16T11:37:15.000Z</time>
      </trkpt>
      <trkpt lat="45.75693" lon="4.61673">
        <ele>749.79998779297</ele>
        <time>2022-03-16T11:37:17.000Z</time>
      </trkpt>
      <trkpt lat="45.75687" lon="4.61667">
        <ele>751</ele>
        <time>2022-03-16T11:37:23.000Z</time>
      </trkpt>
      <trkpt lat="45.75686" lon="4.61665">
        <ele>751.20001220703</ele>
        <time>2022-03-16T11:37:24.000Z</time>
      </trkpt>
      <trkpt lat="45.75683" lon="4.61662">
        <ele>751.40002441406</ele>
        <time>2022-03-16T11:37:27.000Z</time>
      </trkpt>
      <trkpt lat="45.75681" lon="4.61658">
        <ele>751.59997558594</ele>
        <time>2022-03-16T11:37:30.000Z</time>
      </trkpt>
      <trkpt lat="45.75678" lon="4.61648">
        <ele>751.40002441406</ele>
        <time>2022-03-16T11:37:36.000Z</time>
      </trkpt>
      <trkpt lat="45.75673" lon="4.61636">
        <ele>751.59997558594</ele>
        <time>2022-03-16T11:37:43.000Z</time>
      </trkpt>
      <trkpt lat="45.7567" lon="4.61626">
        <ele>750.79998779297</ele>
        <time>2022-03-16T11:37:49.000Z</time>
      </trkpt>
      <trkpt lat="45.7567" lon="4.61624">
        <ele>750.59997558594</ele>
        <time>2022-03-16T11:37:50.000Z</time>
      </trkpt>
      <trkpt lat="45.75668" lon="4.61619">
        <ele>750.59997558594</ele>
        <time>2022-03-16T11:37:54.000Z</time>
      </trkpt>
      <trkpt lat="45.75667" lon="4.61618">
        <ele>750.40002441406</ele>
        <time>2022-03-16T11:37:55.000Z</time>
      </trkpt>
      <trkpt lat="45.75667" lon="4.61616">
        <ele>750.40002441406</ele>
        <time>2022-03-16T11:37:56.000Z</time>
      </trkpt>
      <trkpt lat="45.75662" lon="4.6161">
        <ele>750.79998779297</ele>
        <time>2022-03-16T11:38:00.000Z</time>
      </trkpt>
      <trkpt lat="45.75661" lon="4.61607">
        <ele>751</ele>
        <time>2022-03-16T11:38:02.000Z</time>
      </trkpt>
      <trkpt lat="45.7566" lon="4.61604">
        <ele>751.20001220703</ele>
        <time>2022-03-16T11:38:04.000Z</time>
      </trkpt>
      <trkpt lat="45.75659" lon="4.61603">
        <ele>751.40002441406</ele>
        <time>2022-03-16T11:38:06.000Z</time>
      </trkpt>
      <trkpt lat="45.75657" lon="4.61604">
        <ele>751.59997558594</ele>
        <time>2022-03-16T11:38:08.000Z</time>
      </trkpt>
      <trkpt lat="45.75655" lon="4.61605">
        <ele>752</ele>
        <time>2022-03-16T11:38:10.000Z</time>
      </trkpt>
      <trkpt lat="45.75654" lon="4.61605">
        <ele>752.20001220703</ele>
        <time>2022-03-16T11:38:11.000Z</time>
      </trkpt>
      <trkpt lat="45.75651" lon="4.61606">
        <ele>752.79998779297</ele>
        <time>2022-03-16T11:38:14.000Z</time>
      </trkpt>
      <trkpt lat="45.7565" lon="4.6161">
        <ele>753</ele>
        <time>2022-03-16T11:38:17.000Z</time>
      </trkpt>
      <trkpt lat="45.75647" lon="4.61626">
        <ele>754.79998779297</ele>
        <time>2022-03-16T11:38:25.000Z</time>
      </trkpt>
      <trkpt lat="45.75646" lon="4.61633">
        <ele>755.40002441406</ele>
        <time>2022-03-16T11:38:29.000Z</time>
      </trkpt>
      <trkpt lat="45.75644" lon="4.61637">
        <ele>756</ele>
        <time>2022-03-16T11:38:31.000Z</time>
      </trkpt>
      <trkpt lat="45.75641" lon="4.61656">
        <ele>757.40002441406</ele>
        <time>2022-03-16T11:38:40.000Z</time>
      </trkpt>
      <trkpt lat="45.75639" lon="4.61672">
        <ele>758.79998779297</ele>
        <time>2022-03-16T11:38:47.000Z</time>
      </trkpt>
      <trkpt lat="45.75634" lon="4.61683">
        <ele>760.59997558594</ele>
        <time>2022-03-16T11:38:53.000Z</time>
      </trkpt>
      <trkpt lat="45.75631" lon="4.61683">
        <ele>761.20001220703</ele>
        <time>2022-03-16T11:38:55.000Z</time>
      </trkpt>
      <trkpt lat="45.75629" lon="4.61682">
        <ele>761.59997558594</ele>
        <time>2022-03-16T11:38:57.000Z</time>
      </trkpt>
      <trkpt lat="45.75628" lon="4.61681">
        <ele>761.59997558594</ele>
        <time>2022-03-16T11:39:01.000Z</time>
      </trkpt>
      <trkpt lat="45.75628" lon="4.61681">
        <ele>761.59997558594</ele>
        <time>2022-03-16T11:39:09.000Z</time>
      </trkpt>
      <trkpt lat="45.75629" lon="4.61682">
        <ele>761.59997558594</ele>
        <time>2022-03-16T11:39:50.000Z</time>
      </trkpt>
      <trkpt lat="45.75629" lon="4.61684">
        <ele>761.59997558594</ele>
        <time>2022-03-16T11:40:06.000Z</time>
      </trkpt>
      <trkpt lat="45.75625" lon="4.61685">
        <ele>762.20001220703</ele>
        <time>2022-03-16T11:40:20.000Z</time>
      </trkpt>
      <trkpt lat="45.75627" lon="4.61683">
        <ele>761.79998779297</ele>
        <time>2022-03-16T11:40:31.000Z</time>
      </trkpt>
      <trkpt lat="45.75627" lon="4.6168">
        <ele>761.79998779297</ele>
        <time>2022-03-16T11:40:49.000Z</time>
      </trkpt>
      <trkpt lat="45.75633" lon="4.61684">
        <ele>760.79998779297</ele>
        <time>2022-03-16T11:41:12.000Z</time>
      </trkpt>
      <trkpt lat="45.75633" lon="4.61683">
        <ele>760.59997558594</ele>
        <time>2022-03-16T11:41:29.000Z</time>
      </trkpt>
      <trkpt lat="45.75633" lon="4.61683">
        <ele>760.59997558594</ele>
        <time>2022-03-16T11:41:41.000Z</time>
      </trkpt>
      <trkpt lat="45.75633" lon="4.61683">
        <ele>760.79998779297</ele>
        <time>2022-03-16T11:42:08.000Z</time>
      </trkpt>
      <trkpt lat="45.75633" lon="4.61683">
        <ele>760.79998779297</ele>
        <time>2022-03-16T11:42:29.000Z</time>
      </trkpt>
      <trkpt lat="45.75632" lon="4.61683">
        <ele>761</ele>
        <time>2022-03-16T11:42:45.000Z</time>
      </trkpt>
      <trkpt lat="45.75631" lon="4.61683">
        <ele>761</ele>
        <time>2022-03-16T11:43:14.000Z</time>
      </trkpt>
      <trkpt lat="45.75631" lon="4.61683">
        <ele>761</ele>
        <time>2022-03-16T11:43:40.000Z</time>
      </trkpt>
      <trkpt lat="45.75631" lon="4.61683">
        <ele>761.20001220703</ele>
        <time>2022-03-16T11:44:04.000Z</time>
      </trkpt>
      <trkpt lat="45.75631" lon="4.61683">
        <ele>761.20001220703</ele>
        <time>2022-03-16T11:44:17.000Z</time>
      </trkpt>
      <trkpt lat="45.7563" lon="4.61683">
        <ele>761.40002441406</ele>
        <time>2022-03-16T11:44:18.000Z</time>
      </trkpt>
      <trkpt lat="45.75629" lon="4.6169">
        <ele>761.79998779297</ele>
        <time>2022-03-16T11:44:22.000Z</time>
      </trkpt>
      <trkpt lat="45.75626" lon="4.61701">
        <ele>762.40002441406</ele>
        <time>2022-03-16T11:44:26.000Z</time>
      </trkpt>
      <trkpt lat="45.75623" lon="4.61724">
        <ele>762</ele>
        <time>2022-03-16T11:44:32.000Z</time>
      </trkpt>
      <trkpt lat="45.75623" lon="4.61747">
        <ele>760.59997558594</ele>
        <time>2022-03-16T11:44:38.000Z</time>
      </trkpt>
      <trkpt lat="45.75625" lon="4.61765">
        <ele>759.40002441406</ele>
        <time>2022-03-16T11:44:43.000Z</time>
      </trkpt>
      <trkpt lat="45.7562" lon="4.61775">
        <ele>759.20001220703</ele>
        <time>2022-03-16T11:44:46.000Z</time>
      </trkpt>
      <trkpt lat="45.75618" lon="4.61777">
        <ele>759.20001220703</ele>
        <time>2022-03-16T11:44:47.000Z</time>
      </trkpt>
      <trkpt lat="45.75609" lon="4.61788">
        <ele>759.59997558594</ele>
        <time>2022-03-16T11:44:51.000Z</time>
      </trkpt>
      <trkpt lat="45.75606" lon="4.61789">
        <ele>759.79998779297</ele>
        <time>2022-03-16T11:44:52.000Z</time>
      </trkpt>
      <trkpt lat="45.756" lon="4.61793">
        <ele>759.79998779297</ele>
        <time>2022-03-16T11:44:57.000Z</time>
      </trkpt>
      <trkpt lat="45.75599" lon="4.61792">
        <ele>759.79998779297</ele>
        <time>2022-03-16T11:44:58.000Z</time>
      </trkpt>
      <trkpt lat="45.75595" lon="4.61791">
        <ele>759.79998779297</ele>
        <time>2022-03-16T11:45:00.000Z</time>
      </trkpt>
      <trkpt lat="45.75594" lon="4.61789">
        <ele>759.79998779297</ele>
        <time>2022-03-16T11:45:01.000Z</time>
      </trkpt>
      <trkpt lat="45.75593" lon="4.61789">
        <ele>759.79998779297</ele>
        <time>2022-03-16T11:45:02.000Z</time>
      </trkpt>
      <trkpt lat="45.75589" lon="4.61786">
        <ele>760</ele>
        <time>2022-03-16T11:45:05.000Z</time>
      </trkpt>
      <trkpt lat="45.75588" lon="4.61785">
        <ele>760</ele>
        <time>2022-03-16T11:45:06.000Z</time>
      </trkpt>
      <trkpt lat="45.75585" lon="4.61781">
        <ele>760.20001220703</ele>
        <time>2022-03-16T11:45:10.000Z</time>
      </trkpt>
      <trkpt lat="45.75582" lon="4.61773">
        <ele>761.40002441406</ele>
        <time>2022-03-16T11:45:14.000Z</time>
      </trkpt>
      <trkpt lat="45.75574" lon="4.61762">
        <ele>762.40002441406</ele>
        <time>2022-03-16T11:45:20.000Z</time>
      </trkpt>
      <trkpt lat="45.75566" lon="4.61755">
        <ele>763</ele>
        <time>2022-03-16T11:45:25.000Z</time>
      </trkpt>
      <trkpt lat="45.75565" lon="4.61754">
        <ele>763</ele>
        <time>2022-03-16T11:45:30.000Z</time>
      </trkpt>
      <trkpt lat="45.75565" lon="4.61754">
        <ele>763</ele>
        <time>2022-03-16T11:45:48.000Z</time>
      </trkpt>
      <trkpt lat="45.75561" lon="4.61753">
        <ele>763</ele>
        <time>2022-03-16T11:45:57.000Z</time>
      </trkpt>
      <trkpt lat="45.75556" lon="4.61746">
        <ele>763.40002441406</ele>
        <time>2022-03-16T11:46:02.000Z</time>
      </trkpt>
      <trkpt lat="45.75553" lon="4.61737">
        <ele>764.59997558594</ele>
        <time>2022-03-16T11:46:07.000Z</time>
      </trkpt>
      <trkpt lat="45.75547" lon="4.61725">
        <ele>765.79998779297</ele>
        <time>2022-03-16T11:46:13.000Z</time>
      </trkpt>
      <trkpt lat="45.75545" lon="4.61724">
        <ele>765.79998779297</ele>
        <time>2022-03-16T11:46:14.000Z</time>
      </trkpt>
      <trkpt lat="45.7554" lon="4.61718">
        <ele>765.79998779297</ele>
        <time>2022-03-16T11:46:18.000Z</time>
      </trkpt>
      <trkpt lat="45.75537" lon="4.61713">
        <ele>766.20001220703</ele>
        <time>2022-03-16T11:46:21.000Z</time>
      </trkpt>
      <trkpt lat="45.75534" lon="4.6171">
        <ele>766</ele>
        <time>2022-03-16T11:46:23.000Z</time>
      </trkpt>
      <trkpt lat="45.75532" lon="4.61708">
        <ele>766</ele>
        <time>2022-03-16T11:46:25.000Z</time>
      </trkpt>
      <trkpt lat="45.75528" lon="4.61703">
        <ele>766.20001220703</ele>
        <time>2022-03-16T11:46:28.000Z</time>
      </trkpt>
      <trkpt lat="45.75526" lon="4.617">
        <ele>766.40002441406</ele>
        <time>2022-03-16T11:46:30.000Z</time>
      </trkpt>
      <trkpt lat="45.75519" lon="4.61695">
        <ele>766.20001220703</ele>
        <time>2022-03-16T11:46:34.000Z</time>
      </trkpt>
      <trkpt lat="45.75518" lon="4.61695">
        <ele>766</ele>
        <time>2022-03-16T11:46:35.000Z</time>
      </trkpt>
      <trkpt lat="45.75514" lon="4.61693">
        <ele>765.79998779297</ele>
        <time>2022-03-16T11:46:38.000Z</time>
      </trkpt>
      <trkpt lat="45.7551" lon="4.61688">
        <ele>766</ele>
        <time>2022-03-16T11:46:42.000Z</time>
      </trkpt>
      <trkpt lat="45.75503" lon="4.6168">
        <ele>767.40002441406</ele>
        <time>2022-03-16T11:46:47.000Z</time>
      </trkpt>
      <trkpt lat="45.75501" lon="4.61678">
        <ele>767.79998779297</ele>
        <time>2022-03-16T11:46:48.000Z</time>
      </trkpt>
      <trkpt lat="45.75497" lon="4.61673">
        <ele>768.79998779297</ele>
        <time>2022-03-16T11:46:52.000Z</time>
      </trkpt>
      <trkpt lat="45.75495" lon="4.61671">
        <ele>769.40002441406</ele>
        <time>2022-03-16T11:46:56.000Z</time>
      </trkpt>
      <trkpt lat="45.75485" lon="4.61665">
        <ele>770.59997558594</ele>
        <time>2022-03-16T11:47:02.000Z</time>
      </trkpt>
      <trkpt lat="45.75484" lon="4.61664">
        <ele>771</ele>
        <time>2022-03-16T11:47:03.000Z</time>
      </trkpt>
      <trkpt lat="45.75476" lon="4.61657">
        <ele>772.59997558594</ele>
        <time>2022-03-16T11:47:08.000Z</time>
      </trkpt>
      <trkpt lat="45.75472" lon="4.61654">
        <ele>773.59997558594</ele>
        <time>2022-03-16T11:47:12.000Z</time>
      </trkpt>
      <trkpt lat="45.75465" lon="4.6165">
        <ele>775</ele>
        <time>2022-03-16T11:47:17.000Z</time>
      </trkpt>
      <trkpt lat="45.75462" lon="4.61649">
        <ele>775.59997558594</ele>
        <time>2022-03-16T11:47:19.000Z</time>
      </trkpt>
      <trkpt lat="45.75457" lon="4.61647">
        <ele>776.59997558594</ele>
        <time>2022-03-16T11:47:22.000Z</time>
      </trkpt>
      <trkpt lat="45.75452" lon="4.61644">
        <ele>777.59997558594</ele>
        <time>2022-03-16T11:47:26.000Z</time>
      </trkpt>
      <trkpt lat="45.75451" lon="4.61643">
        <ele>777.79998779297</ele>
        <time>2022-03-16T11:47:27.000Z</time>
      </trkpt>
      <trkpt lat="45.75446" lon="4.61643">
        <ele>777.79998779297</ele>
        <time>2022-03-16T11:47:32.000Z</time>
      </trkpt>
      <trkpt lat="45.75437" lon="4.61641">
        <ele>778.20001220703</ele>
        <time>2022-03-16T11:47:38.000Z</time>
      </trkpt>
      <trkpt lat="45.75423" lon="4.61635">
        <ele>779</ele>
        <time>2022-03-16T11:47:45.000Z</time>
      </trkpt>
      <trkpt lat="45.75411" lon="4.6163">
        <ele>779.40002441406</ele>
        <time>2022-03-16T11:47:52.000Z</time>
      </trkpt>
      <trkpt lat="45.75402" lon="4.61623">
        <ele>779.79998779297</ele>
        <time>2022-03-16T11:47:58.000Z</time>
      </trkpt>
      <trkpt lat="45.75397" lon="4.6162">
        <ele>780.20001220703</ele>
        <time>2022-03-16T11:48:02.000Z</time>
      </trkpt>
      <trkpt lat="45.75395" lon="4.61619">
        <ele>780.40002441406</ele>
        <time>2022-03-16T11:48:04.000Z</time>
      </trkpt>
      <trkpt lat="45.75385" lon="4.61614">
        <ele>780.59997558594</ele>
        <time>2022-03-16T11:48:10.000Z</time>
      </trkpt>
      <trkpt lat="45.75378" lon="4.61609">
        <ele>781</ele>
        <time>2022-03-16T11:48:14.000Z</time>
      </trkpt>
      <trkpt lat="45.75377" lon="4.61608">
        <ele>781</ele>
        <time>2022-03-16T11:48:15.000Z</time>
      </trkpt>
      <trkpt lat="45.75374" lon="4.61605">
        <ele>781.20001220703</ele>
        <time>2022-03-16T11:48:17.000Z</time>
      </trkpt>
      <trkpt lat="45.7537" lon="4.61601">
        <ele>781.40002441406</ele>
        <time>2022-03-16T11:48:20.000Z</time>
      </trkpt>
      <trkpt lat="45.75367" lon="4.61598">
        <ele>781.59997558594</ele>
        <time>2022-03-16T11:48:22.000Z</time>
      </trkpt>
      <trkpt lat="45.75362" lon="4.61596">
        <ele>781.79998779297</ele>
        <time>2022-03-16T11:48:25.000Z</time>
      </trkpt>
      <trkpt lat="45.75359" lon="4.61595">
        <ele>781.79998779297</ele>
        <time>2022-03-16T11:48:27.000Z</time>
      </trkpt>
      <trkpt lat="45.75355" lon="4.61594">
        <ele>781.79998779297</ele>
        <time>2022-03-16T11:48:29.000Z</time>
      </trkpt>
      <trkpt lat="45.75346" lon="4.61587">
        <ele>782.20001220703</ele>
        <time>2022-03-16T11:48:34.000Z</time>
      </trkpt>
      <trkpt lat="45.75331" lon="4.61583">
        <ele>782.59997558594</ele>
        <time>2022-03-16T11:48:40.000Z</time>
      </trkpt>
      <trkpt lat="45.75317" lon="4.61581">
        <ele>783.20001220703</ele>
        <time>2022-03-16T11:48:45.000Z</time>
      </trkpt>
      <trkpt lat="45.75306" lon="4.61576">
        <ele>783.59997558594</ele>
        <time>2022-03-16T11:48:49.000Z</time>
      </trkpt>
      <trkpt lat="45.75305" lon="4.61576">
        <ele>783.59997558594</ele>
        <time>2022-03-16T11:48:57.000Z</time>
      </trkpt>
      <trkpt lat="45.75305" lon="4.61576">
        <ele>783.59997558594</ele>
        <time>2022-03-16T11:49:13.000Z</time>
      </trkpt>
      <trkpt lat="45.75301" lon="4.61574">
        <ele>783.40002441406</ele>
        <time>2022-03-16T11:49:24.000Z</time>
      </trkpt>
      <trkpt lat="45.75293" lon="4.6156">
        <ele>784.20001220703</ele>
        <time>2022-03-16T11:49:28.000Z</time>
      </trkpt>
      <trkpt lat="45.7529" lon="4.61547">
        <ele>784.59997558594</ele>
        <time>2022-03-16T11:49:30.000Z</time>
      </trkpt>
      <trkpt lat="45.75286" lon="4.61533">
        <ele>785</ele>
        <time>2022-03-16T11:49:32.000Z</time>
      </trkpt>
      <trkpt lat="45.75284" lon="4.61525">
        <ele>785.20001220703</ele>
        <time>2022-03-16T11:49:33.000Z</time>
      </trkpt>
      <trkpt lat="45.75283" lon="4.61518">
        <ele>785.40002441406</ele>
        <time>2022-03-16T11:49:34.000Z</time>
      </trkpt>
      <trkpt lat="45.75278" lon="4.61503">
        <ele>785.40002441406</ele>
        <time>2022-03-16T11:49:36.000Z</time>
      </trkpt>
      <trkpt lat="45.75276" lon="4.61485">
        <ele>784.40002441406</ele>
        <time>2022-03-16T11:49:38.000Z</time>
      </trkpt>
      <trkpt lat="45.75274" lon="4.61466">
        <ele>783.79998779297</ele>
        <time>2022-03-16T11:49:40.000Z</time>
      </trkpt>
      <trkpt lat="45.75273" lon="4.61445">
        <ele>783.40002441406</ele>
        <time>2022-03-16T11:49:42.000Z</time>
      </trkpt>
      <trkpt lat="45.75273" lon="4.61404">
        <ele>781.20001220703</ele>
        <time>2022-03-16T11:49:46.000Z</time>
      </trkpt>
      <trkpt lat="45.75274" lon="4.61394">
        <ele>780</ele>
        <time>2022-03-16T11:49:47.000Z</time>
      </trkpt>
      <trkpt lat="45.75273" lon="4.61385">
        <ele>779.20001220703</ele>
        <time>2022-03-16T11:49:48.000Z</time>
      </trkpt>
      <trkpt lat="45.7527" lon="4.61367">
        <ele>777</ele>
        <time>2022-03-16T11:49:50.000Z</time>
      </trkpt>
      <trkpt lat="45.75266" lon="4.61347">
        <ele>775</ele>
        <time>2022-03-16T11:49:52.000Z</time>
      </trkpt>
      <trkpt lat="45.75262" lon="4.61325">
        <ele>773.40002441406</ele>
        <time>2022-03-16T11:49:54.000Z</time>
      </trkpt>
      <trkpt lat="45.75252" lon="4.61282">
        <ele>768.79998779297</ele>
        <time>2022-03-16T11:49:58.000Z</time>
      </trkpt>
      <trkpt lat="45.7525" lon="4.61276">
        <ele>768.20001220703</ele>
        <time>2022-03-16T11:49:59.000Z</time>
      </trkpt>
      <trkpt lat="45.75247" lon="4.61261">
        <ele>766.40002441406</ele>
        <time>2022-03-16T11:50:01.000Z</time>
      </trkpt>
      <trkpt lat="45.75244" lon="4.61241">
        <ele>765.59997558594</ele>
        <time>2022-03-16T11:50:03.000Z</time>
      </trkpt>
      <trkpt lat="45.7524" lon="4.61222">
        <ele>764.40002441406</ele>
        <time>2022-03-16T11:50:05.000Z</time>
      </trkpt>
      <trkpt lat="45.75236" lon="4.61205">
        <ele>763.20001220703</ele>
        <time>2022-03-16T11:50:07.000Z</time>
      </trkpt>
      <trkpt lat="45.75231" lon="4.61192">
        <ele>762.20001220703</ele>
        <time>2022-03-16T11:50:09.000Z</time>
      </trkpt>
      <trkpt lat="45.75223" lon="4.61181">
        <ele>761.79998779297</ele>
        <time>2022-03-16T11:50:11.000Z</time>
      </trkpt>
      <trkpt lat="45.75194" lon="4.61148">
        <ele>761.59997558594</ele>
        <time>2022-03-16T11:50:17.000Z</time>
      </trkpt>
      <trkpt lat="45.75183" lon="4.61132">
        <ele>761</ele>
        <time>2022-03-16T11:50:20.000Z</time>
      </trkpt>
      <trkpt lat="45.7518" lon="4.61127">
        <ele>760.59997558594</ele>
        <time>2022-03-16T11:50:21.000Z</time>
      </trkpt>
      <trkpt lat="45.75177" lon="4.61122">
        <ele>760.40002441406</ele>
        <time>2022-03-16T11:50:22.000Z</time>
      </trkpt>
      <trkpt lat="45.75171" lon="4.61111">
        <ele>759.79998779297</ele>
        <time>2022-03-16T11:50:24.000Z</time>
      </trkpt>
      <trkpt lat="45.7517" lon="4.61107">
        <ele>759.40002441406</ele>
        <time>2022-03-16T11:50:25.000Z</time>
      </trkpt>
      <trkpt lat="45.75161" lon="4.61086">
        <ele>758</ele>
        <time>2022-03-16T11:50:29.000Z</time>
      </trkpt>
      <trkpt lat="45.7515" lon="4.6106">
        <ele>757</ele>
        <time>2022-03-16T11:50:33.000Z</time>
      </trkpt>
      <trkpt lat="45.75146" lon="4.61055">
        <ele>756.59997558594</ele>
        <time>2022-03-16T11:50:34.000Z</time>
      </trkpt>
      <trkpt lat="45.75138" lon="4.61043">
        <ele>756</ele>
        <time>2022-03-16T11:50:36.000Z</time>
      </trkpt>
      <trkpt lat="45.75132" lon="4.61039">
        <ele>755.59997558594</ele>
        <time>2022-03-16T11:50:37.000Z</time>
      </trkpt>
      <trkpt lat="45.75116" lon="4.61035">
        <ele>755.20001220703</ele>
        <time>2022-03-16T11:50:39.000Z</time>
      </trkpt>
      <trkpt lat="45.75103" lon="4.61031">
        <ele>755</ele>
        <time>2022-03-16T11:50:41.000Z</time>
      </trkpt>
      <trkpt lat="45.75093" lon="4.6103">
        <ele>754.79998779297</ele>
        <time>2022-03-16T11:50:43.000Z</time>
      </trkpt>
      <trkpt lat="45.75078" lon="4.61029">
        <ele>755.20001220703</ele>
        <time>2022-03-16T11:50:47.000Z</time>
      </trkpt>
      <trkpt lat="45.75071" lon="4.6103">
        <ele>755.59997558594</ele>
        <time>2022-03-16T11:50:49.000Z</time>
      </trkpt>
      <trkpt lat="45.75067" lon="4.61032">
        <ele>756</ele>
        <time>2022-03-16T11:50:50.000Z</time>
      </trkpt>
      <trkpt lat="45.75049" lon="4.61036">
        <ele>756.59997558594</ele>
        <time>2022-03-16T11:50:55.000Z</time>
      </trkpt>
      <trkpt lat="45.75038" lon="4.61037">
        <ele>757</ele>
        <time>2022-03-16T11:50:59.000Z</time>
      </trkpt>
      <trkpt lat="45.75024" lon="4.61041">
        <ele>756.59997558594</ele>
        <time>2022-03-16T11:51:05.000Z</time>
      </trkpt>
      <trkpt lat="45.75016" lon="4.61042">
        <ele>756.40002441406</ele>
        <time>2022-03-16T11:51:09.000Z</time>
      </trkpt>
      <trkpt lat="45.75007" lon="4.61046">
        <ele>756.59997558594</ele>
        <time>2022-03-16T11:51:13.000Z</time>
      </trkpt>
      <trkpt lat="45.7499" lon="4.61053">
        <ele>756</ele>
        <time>2022-03-16T11:51:18.000Z</time>
      </trkpt>
      <trkpt lat="45.74977" lon="4.6106">
        <ele>755.79998779297</ele>
        <time>2022-03-16T11:51:22.000Z</time>
      </trkpt>
      <trkpt lat="45.74961" lon="4.61069">
        <ele>754.40002441406</ele>
        <time>2022-03-16T11:51:25.000Z</time>
      </trkpt>
      <trkpt lat="45.74951" lon="4.61074">
        <ele>754</ele>
        <time>2022-03-16T11:51:27.000Z</time>
      </trkpt>
      <trkpt lat="45.74926" lon="4.61088">
        <ele>752.79998779297</ele>
        <time>2022-03-16T11:51:32.000Z</time>
      </trkpt>
      <trkpt lat="45.74922" lon="4.61093">
        <ele>752.20001220703</ele>
        <time>2022-03-16T11:51:33.000Z</time>
      </trkpt>
      <trkpt lat="45.74918" lon="4.61098">
        <ele>751.40002441406</ele>
        <time>2022-03-16T11:51:34.000Z</time>
      </trkpt>
      <trkpt lat="45.74909" lon="4.61103">
        <ele>750</ele>
        <time>2022-03-16T11:51:36.000Z</time>
      </trkpt>
      <trkpt lat="45.74899" lon="4.61106">
        <ele>749.20001220703</ele>
        <time>2022-03-16T11:51:39.000Z</time>
      </trkpt>
      <trkpt lat="45.74898" lon="4.61106">
        <ele>749.20001220703</ele>
        <time>2022-03-16T11:51:44.000Z</time>
      </trkpt>
      <trkpt lat="45.74891" lon="4.61108">
        <ele>748</ele>
        <time>2022-03-16T11:51:47.000Z</time>
      </trkpt>
      <trkpt lat="45.74888" lon="4.6111">
        <ele>747.59997558594</ele>
        <time>2022-03-16T11:51:48.000Z</time>
      </trkpt>
      <trkpt lat="45.74884" lon="4.61113">
        <ele>747.40002441406</ele>
        <time>2022-03-16T11:51:49.000Z</time>
      </trkpt>
      <trkpt lat="45.74874" lon="4.61119">
        <ele>745.40002441406</ele>
        <time>2022-03-16T11:51:52.000Z</time>
      </trkpt>
      <trkpt lat="45.7487" lon="4.61122">
        <ele>745</ele>
        <time>2022-03-16T11:51:53.000Z</time>
      </trkpt>
      <trkpt lat="45.74867" lon="4.61126">
        <ele>744.40002441406</ele>
        <time>2022-03-16T11:51:55.000Z</time>
      </trkpt>
      <trkpt lat="45.74866" lon="4.61126">
        <ele>744.20001220703</ele>
        <time>2022-03-16T11:52:00.000Z</time>
      </trkpt>
      <trkpt lat="45.74864" lon="4.61127">
        <ele>743.79998779297</ele>
        <time>2022-03-16T11:52:01.000Z</time>
      </trkpt>
      <trkpt lat="45.74851" lon="4.61124">
        <ele>741.59997558594</ele>
        <time>2022-03-16T11:52:05.000Z</time>
      </trkpt>
      <trkpt lat="45.74845" lon="4.61128">
        <ele>740.59997558594</ele>
        <time>2022-03-16T11:52:07.000Z</time>
      </trkpt>
      <trkpt lat="45.74842" lon="4.61132">
        <ele>740.20001220703</ele>
        <time>2022-03-16T11:52:08.000Z</time>
      </trkpt>
      <trkpt lat="45.74829" lon="4.61139">
        <ele>738.20001220703</ele>
        <time>2022-03-16T11:52:12.000Z</time>
      </trkpt>
      <trkpt lat="45.74819" lon="4.61143">
        <ele>736.79998779297</ele>
        <time>2022-03-16T11:52:16.000Z</time>
      </trkpt>
      <trkpt lat="45.7481" lon="4.61153">
        <ele>735.79998779297</ele>
        <time>2022-03-16T11:52:20.000Z</time>
      </trkpt>
      <trkpt lat="45.74798" lon="4.61156">
        <ele>735</ele>
        <time>2022-03-16T11:52:23.000Z</time>
      </trkpt>
      <trkpt lat="45.74793" lon="4.61161">
        <ele>735.79998779297</ele>
        <time>2022-03-16T11:52:25.000Z</time>
      </trkpt>
      <trkpt lat="45.74792" lon="4.61164">
        <ele>736.20001220703</ele>
        <time>2022-03-16T11:52:26.000Z</time>
      </trkpt>
      <trkpt lat="45.74791" lon="4.61182">
        <ele>736</ele>
        <time>2022-03-16T11:52:31.000Z</time>
      </trkpt>
      <trkpt lat="45.74787" lon="4.61195">
        <ele>736</ele>
        <time>2022-03-16T11:52:35.000Z</time>
      </trkpt>
      <trkpt lat="45.74786" lon="4.61195">
        <ele>736</ele>
        <time>2022-03-16T11:52:36.000Z</time>
      </trkpt>
      <trkpt lat="45.74785" lon="4.61196">
        <ele>736</ele>
        <time>2022-03-16T11:52:43.000Z</time>
      </trkpt>
      <trkpt lat="45.74785" lon="4.61196">
        <ele>736</ele>
        <time>2022-03-16T11:52:58.000Z</time>
      </trkpt>
      <trkpt lat="45.74784" lon="4.61195">
        <ele>736.20001220703</ele>
        <time>2022-03-16T11:53:01.000Z</time>
      </trkpt>
      <trkpt lat="45.74779" lon="4.61195">
        <ele>737</ele>
        <time>2022-03-16T11:53:03.000Z</time>
      </trkpt>
      <trkpt lat="45.74769" lon="4.61205">
        <ele>738.79998779297</ele>
        <time>2022-03-16T11:53:07.000Z</time>
      </trkpt>
      <trkpt lat="45.74759" lon="4.61218">
        <ele>740.20001220703</ele>
        <time>2022-03-16T11:53:12.000Z</time>
      </trkpt>
      <trkpt lat="45.74744" lon="4.61238">
        <ele>740.59997558594</ele>
        <time>2022-03-16T11:53:19.000Z</time>
      </trkpt>
      <trkpt lat="45.74732" lon="4.61251">
        <ele>742.59997558594</ele>
        <time>2022-03-16T11:53:25.000Z</time>
      </trkpt>
      <trkpt lat="45.7472" lon="4.61265">
        <ele>743.20001220703</ele>
        <time>2022-03-16T11:53:32.000Z</time>
      </trkpt>
      <trkpt lat="45.74713" lon="4.61275">
        <ele>743.40002441406</ele>
        <time>2022-03-16T11:53:37.000Z</time>
      </trkpt>
      <trkpt lat="45.74702" lon="4.61287">
        <ele>744.59997558594</ele>
        <time>2022-03-16T11:53:43.000Z</time>
      </trkpt>
      <trkpt lat="45.74696" lon="4.61294">
        <ele>744.40002441406</ele>
        <time>2022-03-16T11:53:47.000Z</time>
      </trkpt>
      <trkpt lat="45.74693" lon="4.61297">
        <ele>744.40002441406</ele>
        <time>2022-03-16T11:53:49.000Z</time>
      </trkpt>
      <trkpt lat="45.74682" lon="4.61308">
        <ele>743.79998779297</ele>
        <time>2022-03-16T11:53:55.000Z</time>
      </trkpt>
      <trkpt lat="45.7467" lon="4.61316">
        <ele>743.40002441406</ele>
        <time>2022-03-16T11:54:01.000Z</time>
      </trkpt>
      <trkpt lat="45.74662" lon="4.6132">
        <ele>743.40002441406</ele>
        <time>2022-03-16T11:54:06.000Z</time>
      </trkpt>
      <trkpt lat="45.74652" lon="4.61323">
        <ele>743.79998779297</ele>
        <time>2022-03-16T11:54:11.000Z</time>
      </trkpt>
      <trkpt lat="45.74639" lon="4.61326">
        <ele>744</ele>
        <time>2022-03-16T11:54:18.000Z</time>
      </trkpt>
      <trkpt lat="45.74627" lon="4.61328">
        <ele>744.59997558594</ele>
        <time>2022-03-16T11:54:23.000Z</time>
      </trkpt>
      <trkpt lat="45.74621" lon="4.61327">
        <ele>745.59997558594</ele>
        <time>2022-03-16T11:54:26.000Z</time>
      </trkpt>
      <trkpt lat="45.74617" lon="4.61328">
        <ele>746</ele>
        <time>2022-03-16T11:54:28.000Z</time>
      </trkpt>
      <trkpt lat="45.74608" lon="4.6133">
        <ele>746.40002441406</ele>
        <time>2022-03-16T11:54:33.000Z</time>
      </trkpt>
      <trkpt lat="45.74596" lon="4.61331">
        <ele>747.20001220703</ele>
        <time>2022-03-16T11:54:40.000Z</time>
      </trkpt>
      <trkpt lat="45.74587" lon="4.61332">
        <ele>748</ele>
        <time>2022-03-16T11:54:45.000Z</time>
      </trkpt>
      <trkpt lat="45.74574" lon="4.61334">
        <ele>749.40002441406</ele>
        <time>2022-03-16T11:54:52.000Z</time>
      </trkpt>
      <trkpt lat="45.7457" lon="4.61334">
        <ele>750</ele>
        <time>2022-03-16T11:54:55.000Z</time>
      </trkpt>
      <trkpt lat="45.74567" lon="4.61334">
        <ele>750.40002441406</ele>
        <time>2022-03-16T11:54:57.000Z</time>
      </trkpt>
      <trkpt lat="45.74554" lon="4.61333">
        <ele>753</ele>
        <time>2022-03-16T11:55:04.000Z</time>
      </trkpt>
      <trkpt lat="45.74544" lon="4.61334">
        <ele>754.59997558594</ele>
        <time>2022-03-16T11:55:09.000Z</time>
      </trkpt>
      <trkpt lat="45.74535" lon="4.61336">
        <ele>756</ele>
        <time>2022-03-16T11:55:14.000Z</time>
      </trkpt>
      <trkpt lat="45.74524" lon="4.61337">
        <ele>757</ele>
        <time>2022-03-16T11:55:20.000Z</time>
      </trkpt>
      <trkpt lat="45.74513" lon="4.61339">
        <ele>757.20001220703</ele>
        <time>2022-03-16T11:55:25.000Z</time>
      </trkpt>
      <trkpt lat="45.74504" lon="4.61342">
        <ele>757.20001220703</ele>
        <time>2022-03-16T11:55:30.000Z</time>
      </trkpt>
      <trkpt lat="45.74491" lon="4.61346">
        <ele>756.79998779297</ele>
        <time>2022-03-16T11:55:37.000Z</time>
      </trkpt>
      <trkpt lat="45.7448" lon="4.6135">
        <ele>757</ele>
        <time>2022-03-16T11:55:43.000Z</time>
      </trkpt>
      <trkpt lat="45.74469" lon="4.61354">
        <ele>756.59997558594</ele>
        <time>2022-03-16T11:55:49.000Z</time>
      </trkpt>
      <trkpt lat="45.74459" lon="4.61356">
        <ele>758.59997558594</ele>
        <time>2022-03-16T11:55:55.000Z</time>
      </trkpt>
      <trkpt lat="45.74448" lon="4.61357">
        <ele>760</ele>
        <time>2022-03-16T11:56:01.000Z</time>
      </trkpt>
      <trkpt lat="45.74437" lon="4.61356">
        <ele>760.79998779297</ele>
        <time>2022-03-16T11:56:06.000Z</time>
      </trkpt>
      <trkpt lat="45.74427" lon="4.61353">
        <ele>762.20001220703</ele>
        <time>2022-03-16T11:56:11.000Z</time>
      </trkpt>
      <trkpt lat="45.74415" lon="4.61349">
        <ele>761.59997558594</ele>
        <time>2022-03-16T11:56:17.000Z</time>
      </trkpt>
      <trkpt lat="45.74399" lon="4.61339">
        <ele>761</ele>
        <time>2022-03-16T11:56:25.000Z</time>
      </trkpt>
      <trkpt lat="45.74388" lon="4.61329">
        <ele>760.79998779297</ele>
        <time>2022-03-16T11:56:32.000Z</time>
      </trkpt>
      <trkpt lat="45.74383" lon="4.61322">
        <ele>761.40002441406</ele>
        <time>2022-03-16T11:56:36.000Z</time>
      </trkpt>
      <trkpt lat="45.74382" lon="4.6132">
        <ele>761.40002441406</ele>
        <time>2022-03-16T11:56:37.000Z</time>
      </trkpt>
      <trkpt lat="45.74377" lon="4.61314">
        <ele>761.79998779297</ele>
        <time>2022-03-16T11:56:40.000Z</time>
      </trkpt>
      <trkpt lat="45.74375" lon="4.61309">
        <ele>762.20001220703</ele>
        <time>2022-03-16T11:56:42.000Z</time>
      </trkpt>
      <trkpt lat="45.74371" lon="4.61303">
        <ele>763.40002441406</ele>
        <time>2022-03-16T11:56:45.000Z</time>
      </trkpt>
      <trkpt lat="45.74367" lon="4.61296">
        <ele>764.59997558594</ele>
        <time>2022-03-16T11:56:48.000Z</time>
      </trkpt>
      <trkpt lat="45.7436" lon="4.61284">
        <ele>767.40002441406</ele>
        <time>2022-03-16T11:56:54.000Z</time>
      </trkpt>
      <trkpt lat="45.74355" lon="4.61279">
        <ele>768</ele>
        <time>2022-03-16T11:56:57.000Z</time>
      </trkpt>
      <trkpt lat="45.74352" lon="4.61272">
        <ele>769.20001220703</ele>
        <time>2022-03-16T11:57:00.000Z</time>
      </trkpt>
      <trkpt lat="45.74341" lon="4.61265">
        <ele>769.59997558594</ele>
        <time>2022-03-16T11:57:07.000Z</time>
      </trkpt>
      <trkpt lat="45.74337" lon="4.61262">
        <ele>770</ele>
        <time>2022-03-16T11:57:10.000Z</time>
      </trkpt>
      <trkpt lat="45.74335" lon="4.61261">
        <ele>770</ele>
        <time>2022-03-16T11:57:11.000Z</time>
      </trkpt>
      <trkpt lat="45.74332" lon="4.61259">
        <ele>770.20001220703</ele>
        <time>2022-03-16T11:57:13.000Z</time>
      </trkpt>
      <trkpt lat="45.74329" lon="4.61258">
        <ele>770.20001220703</ele>
        <time>2022-03-16T11:57:16.000Z</time>
      </trkpt>
      <trkpt lat="45.74326" lon="4.61257">
        <ele>770.20001220703</ele>
        <time>2022-03-16T11:57:19.000Z</time>
      </trkpt>
      <trkpt lat="45.74321" lon="4.61253">
        <ele>770.59997558594</ele>
        <time>2022-03-16T11:57:22.000Z</time>
      </trkpt>
      <trkpt lat="45.74308" lon="4.6125">
        <ele>770.40002441406</ele>
        <time>2022-03-16T11:57:29.000Z</time>
      </trkpt>
      <trkpt lat="45.74299" lon="4.61247">
        <ele>770.59997558594</ele>
        <time>2022-03-16T11:57:36.000Z</time>
      </trkpt>
      <trkpt lat="45.7429" lon="4.61246">
        <ele>770.79998779297</ele>
        <time>2022-03-16T11:57:41.000Z</time>
      </trkpt>
      <trkpt lat="45.74281" lon="4.61243">
        <ele>771</ele>
        <time>2022-03-16T11:57:46.000Z</time>
      </trkpt>
      <trkpt lat="45.74271" lon="4.61242">
        <ele>770.79998779297</ele>
        <time>2022-03-16T11:57:52.000Z</time>
      </trkpt>
      <trkpt lat="45.7426" lon="4.6124">
        <ele>770.40002441406</ele>
        <time>2022-03-16T11:57:57.000Z</time>
      </trkpt>
      <trkpt lat="45.74258" lon="4.61241">
        <ele>770.40002441406</ele>
        <time>2022-03-16T11:57:58.000Z</time>
      </trkpt>
      <trkpt lat="45.74251" lon="4.61239">
        <ele>771</ele>
        <time>2022-03-16T11:58:02.000Z</time>
      </trkpt>
      <trkpt lat="45.74249" lon="4.61239">
        <ele>771</ele>
        <time>2022-03-16T11:58:03.000Z</time>
      </trkpt>
      <trkpt lat="45.74241" lon="4.6124">
        <ele>771.40002441406</ele>
        <time>2022-03-16T11:58:08.000Z</time>
      </trkpt>
      <trkpt lat="45.74235" lon="4.61241">
        <ele>771.20001220703</ele>
        <time>2022-03-16T11:58:12.000Z</time>
      </trkpt>
      <trkpt lat="45.74223" lon="4.61241">
        <ele>772.59997558594</ele>
        <time>2022-03-16T11:58:19.000Z</time>
      </trkpt>
      <trkpt lat="45.74208" lon="4.61245">
        <ele>775</ele>
        <time>2022-03-16T11:58:27.000Z</time>
      </trkpt>
      <trkpt lat="45.742" lon="4.61248">
        <ele>776.20001220703</ele>
        <time>2022-03-16T11:58:32.000Z</time>
      </trkpt>
      <trkpt lat="45.74192" lon="4.61251">
        <ele>777</ele>
        <time>2022-03-16T11:58:37.000Z</time>
      </trkpt>
      <trkpt lat="45.74181" lon="4.61254">
        <ele>778.40002441406</ele>
        <time>2022-03-16T11:58:42.000Z</time>
      </trkpt>
      <trkpt lat="45.74178" lon="4.61255">
        <ele>778.79998779297</ele>
        <time>2022-03-16T11:58:44.000Z</time>
      </trkpt>
      <trkpt lat="45.74172" lon="4.61257">
        <ele>779.59997558594</ele>
        <time>2022-03-16T11:58:47.000Z</time>
      </trkpt>
      <trkpt lat="45.74161" lon="4.61259">
        <ele>781.59997558594</ele>
        <time>2022-03-16T11:58:53.000Z</time>
      </trkpt>
      <trkpt lat="45.74154" lon="4.61261">
        <ele>782.79998779297</ele>
        <time>2022-03-16T11:58:56.000Z</time>
      </trkpt>
      <trkpt lat="45.7415" lon="4.61265">
        <ele>783</ele>
        <time>2022-03-16T11:58:58.000Z</time>
      </trkpt>
      <trkpt lat="45.74142" lon="4.61272">
        <ele>783.20001220703</ele>
        <time>2022-03-16T11:59:02.000Z</time>
      </trkpt>
      <trkpt lat="45.74137" lon="4.61273">
        <ele>783.79998779297</ele>
        <time>2022-03-16T11:59:04.000Z</time>
      </trkpt>
      <trkpt lat="45.74125" lon="4.61278">
        <ele>784</ele>
        <time>2022-03-16T11:59:10.000Z</time>
      </trkpt>
      <trkpt lat="45.74116" lon="4.61285">
        <ele>783.59997558594</ele>
        <time>2022-03-16T11:59:15.000Z</time>
      </trkpt>
      <trkpt lat="45.74102" lon="4.61298">
        <ele>784</ele>
        <time>2022-03-16T11:59:19.000Z</time>
      </trkpt>
      <trkpt lat="45.74091" lon="4.61317">
        <ele>782.40002441406</ele>
        <time>2022-03-16T11:59:22.000Z</time>
      </trkpt>
      <trkpt lat="45.74087" lon="4.61325">
        <ele>782</ele>
        <time>2022-03-16T11:59:23.000Z</time>
      </trkpt>
      <trkpt lat="45.74067" lon="4.61363">
        <ele>779.40002441406</ele>
        <time>2022-03-16T11:59:27.000Z</time>
      </trkpt>
      <trkpt lat="45.74054" lon="4.61385">
        <ele>776.79998779297</ele>
        <time>2022-03-16T11:59:29.000Z</time>
      </trkpt>
      <trkpt lat="45.74046" lon="4.61394">
        <ele>775.79998779297</ele>
        <time>2022-03-16T11:59:30.000Z</time>
      </trkpt>
      <trkpt lat="45.74005" lon="4.61422">
        <ele>771.40002441406</ele>
        <time>2022-03-16T11:59:34.000Z</time>
      </trkpt>
      <trkpt lat="45.7397" lon="4.61425">
        <ele>770</ele>
        <time>2022-03-16T11:59:37.000Z</time>
      </trkpt>
      <trkpt lat="45.73946" lon="4.61428">
        <ele>768.79998779297</ele>
        <time>2022-03-16T11:59:39.000Z</time>
      </trkpt>
      <trkpt lat="45.73935" lon="4.61433">
        <ele>768.20001220703</ele>
        <time>2022-03-16T11:59:40.000Z</time>
      </trkpt>
      <trkpt lat="45.73924" lon="4.6144">
        <ele>766.40002441406</ele>
        <time>2022-03-16T11:59:41.000Z</time>
      </trkpt>
      <trkpt lat="45.73906" lon="4.61457">
        <ele>764.40002441406</ele>
        <time>2022-03-16T11:59:43.000Z</time>
      </trkpt>
      <trkpt lat="45.73886" lon="4.61488">
        <ele>758.20001220703</ele>
        <time>2022-03-16T11:59:46.000Z</time>
      </trkpt>
      <trkpt lat="45.73863" lon="4.61525">
        <ele>754</ele>
        <time>2022-03-16T11:59:50.000Z</time>
      </trkpt>
      <trkpt lat="45.73851" lon="4.6154">
        <ele>752.20001220703</ele>
        <time>2022-03-16T11:59:52.000Z</time>
      </trkpt>
      <trkpt lat="45.73838" lon="4.6155">
        <ele>752</ele>
        <time>2022-03-16T11:59:54.000Z</time>
      </trkpt>
      <trkpt lat="45.73832" lon="4.61553">
        <ele>751.40002441406</ele>
        <time>2022-03-16T11:59:55.000Z</time>
      </trkpt>
      <trkpt lat="45.73819" lon="4.61557">
        <ele>750.40002441406</ele>
        <time>2022-03-16T11:59:57.000Z</time>
      </trkpt>
      <trkpt lat="45.73814" lon="4.61557">
        <ele>750.40002441406</ele>
        <time>2022-03-16T11:59:58.000Z</time>
      </trkpt>
      <trkpt lat="45.7379" lon="4.61555">
        <ele>749.20001220703</ele>
        <time>2022-03-16T12:00:02.000Z</time>
      </trkpt>
      <trkpt lat="45.73779" lon="4.61554">
        <ele>748.20001220703</ele>
        <time>2022-03-16T12:00:04.000Z</time>
      </trkpt>
      <trkpt lat="45.73749" lon="4.61554">
        <ele>744.40002441406</ele>
        <time>2022-03-16T12:00:08.000Z</time>
      </trkpt>
      <trkpt lat="45.73731" lon="4.61558">
        <ele>741.40002441406</ele>
        <time>2022-03-16T12:00:10.000Z</time>
      </trkpt>
      <trkpt lat="45.73722" lon="4.61564">
        <ele>739.40002441406</ele>
        <time>2022-03-16T12:00:11.000Z</time>
      </trkpt>
      <trkpt lat="45.73714" lon="4.61575">
        <ele>737.20001220703</ele>
        <time>2022-03-16T12:00:12.000Z</time>
      </trkpt>
      <trkpt lat="45.73708" lon="4.61589">
        <ele>735.40002441406</ele>
        <time>2022-03-16T12:00:13.000Z</time>
      </trkpt>
      <trkpt lat="45.73693" lon="4.61615">
        <ele>732.40002441406</ele>
        <time>2022-03-16T12:00:15.000Z</time>
      </trkpt>
      <trkpt lat="45.73685" lon="4.61626">
        <ele>730.59997558594</ele>
        <time>2022-03-16T12:00:16.000Z</time>
      </trkpt>
      <trkpt lat="45.73675" lon="4.61642">
        <ele>729</ele>
        <time>2022-03-16T12:00:18.000Z</time>
      </trkpt>
      <trkpt lat="45.73672" lon="4.61652">
        <ele>728.59997558594</ele>
        <time>2022-03-16T12:00:19.000Z</time>
      </trkpt>
      <trkpt lat="45.73671" lon="4.61663">
        <ele>728</ele>
        <time>2022-03-16T12:00:20.000Z</time>
      </trkpt>
      <trkpt lat="45.73669" lon="4.61684">
        <ele>727.40002441406</ele>
        <time>2022-03-16T12:00:22.000Z</time>
      </trkpt>
      <trkpt lat="45.73661" lon="4.617">
        <ele>727</ele>
        <time>2022-03-16T12:00:24.000Z</time>
      </trkpt>
      <trkpt lat="45.73657" lon="4.61707">
        <ele>726.59997558594</ele>
        <time>2022-03-16T12:00:25.000Z</time>
      </trkpt>
      <trkpt lat="45.73647" lon="4.6172">
        <ele>727</ele>
        <time>2022-03-16T12:00:27.000Z</time>
      </trkpt>
      <trkpt lat="45.73633" lon="4.61735">
        <ele>726.79998779297</ele>
        <time>2022-03-16T12:00:30.000Z</time>
      </trkpt>
      <trkpt lat="45.73608" lon="4.61761">
        <ele>727</ele>
        <time>2022-03-16T12:00:36.000Z</time>
      </trkpt>
      <trkpt lat="45.73595" lon="4.61779">
        <ele>727.20001220703</ele>
        <time>2022-03-16T12:00:41.000Z</time>
      </trkpt>
      <trkpt lat="45.73586" lon="4.61802">
        <ele>727.20001220703</ele>
        <time>2022-03-16T12:00:46.000Z</time>
      </trkpt>
      <trkpt lat="45.73577" lon="4.6183">
        <ele>727.40002441406</ele>
        <time>2022-03-16T12:00:52.000Z</time>
      </trkpt>
      <trkpt lat="45.7357" lon="4.6186">
        <ele>728.20001220703</ele>
        <time>2022-03-16T12:00:58.000Z</time>
      </trkpt>
      <trkpt lat="45.73567" lon="4.61879">
        <ele>728.59997558594</ele>
        <time>2022-03-16T12:01:02.000Z</time>
      </trkpt>
      <trkpt lat="45.73565" lon="4.61907">
        <ele>728.20001220703</ele>
        <time>2022-03-16T12:01:08.000Z</time>
      </trkpt>
      <trkpt lat="45.73562" lon="4.61947">
        <ele>726</ele>
        <time>2022-03-16T12:01:14.000Z</time>
      </trkpt>
      <trkpt lat="45.73555" lon="4.62002">
        <ele>724.79998779297</ele>
        <time>2022-03-16T12:01:21.000Z</time>
      </trkpt>
      <trkpt lat="45.73552" lon="4.62016">
        <ele>724.40002441406</ele>
        <time>2022-03-16T12:01:23.000Z</time>
      </trkpt>
      <trkpt lat="45.7355" lon="4.62037">
        <ele>723.59997558594</ele>
        <time>2022-03-16T12:01:26.000Z</time>
      </trkpt>
      <trkpt lat="45.7355" lon="4.62045">
        <ele>723.59997558594</ele>
        <time>2022-03-16T12:01:27.000Z</time>
      </trkpt>
      <trkpt lat="45.73548" lon="4.6206">
        <ele>724</ele>
        <time>2022-03-16T12:01:29.000Z</time>
      </trkpt>
      <trkpt lat="45.73547" lon="4.62067">
        <ele>723.79998779297</ele>
        <time>2022-03-16T12:01:30.000Z</time>
      </trkpt>
      <trkpt lat="45.73542" lon="4.621">
        <ele>722.79998779297</ele>
        <time>2022-03-16T12:01:35.000Z</time>
      </trkpt>
      <trkpt lat="45.73542" lon="4.62107">
        <ele>722.79998779297</ele>
        <time>2022-03-16T12:01:36.000Z</time>
      </trkpt>
      <trkpt lat="45.73541" lon="4.62113">
        <ele>722.79998779297</ele>
        <time>2022-03-16T12:01:37.000Z</time>
      </trkpt>
      <trkpt lat="45.73537" lon="4.62138">
        <ele>722.40002441406</ele>
        <time>2022-03-16T12:01:41.000Z</time>
      </trkpt>
      <trkpt lat="45.73532" lon="4.62179">
        <ele>720.40002441406</ele>
        <time>2022-03-16T12:01:46.000Z</time>
      </trkpt>
      <trkpt lat="45.73528" lon="4.62206">
        <ele>718.59997558594</ele>
        <time>2022-03-16T12:01:49.000Z</time>
      </trkpt>
      <trkpt lat="45.73525" lon="4.62224">
        <ele>717</ele>
        <time>2022-03-16T12:01:51.000Z</time>
      </trkpt>
      <trkpt lat="45.73524" lon="4.62233">
        <ele>716.79998779297</ele>
        <time>2022-03-16T12:01:52.000Z</time>
      </trkpt>
      <trkpt lat="45.73526" lon="4.62252">
        <ele>717.59997558594</ele>
        <time>2022-03-16T12:01:54.000Z</time>
      </trkpt>
      <trkpt lat="45.73529" lon="4.6227">
        <ele>719</ele>
        <time>2022-03-16T12:01:56.000Z</time>
      </trkpt>
      <trkpt lat="45.73531" lon="4.62292">
        <ele>718.59997558594</ele>
        <time>2022-03-16T12:01:58.000Z</time>
      </trkpt>
      <trkpt lat="45.73534" lon="4.62317">
        <ele>717.79998779297</ele>
        <time>2022-03-16T12:02:01.000Z</time>
      </trkpt>
      <trkpt lat="45.73534" lon="4.62325">
        <ele>717.40002441406</ele>
        <time>2022-03-16T12:02:02.000Z</time>
      </trkpt>
      <trkpt lat="45.73535" lon="4.62338">
        <ele>717.20001220703</ele>
        <time>2022-03-16T12:02:04.000Z</time>
      </trkpt>
      <trkpt lat="45.73537" lon="4.62341">
        <ele>717.79998779297</ele>
        <time>2022-03-16T12:02:07.000Z</time>
      </trkpt>
      <trkpt lat="45.73539" lon="4.62341">
        <ele>718.40002441406</ele>
        <time>2022-03-16T12:02:21.000Z</time>
      </trkpt>
      <trkpt lat="45.73539" lon="4.62341">
        <ele>718.40002441406</ele>
        <time>2022-03-16T12:02:42.000Z</time>
      </trkpt>
      <trkpt lat="45.7354" lon="4.62343">
        <ele>718.79998779297</ele>
        <time>2022-03-16T12:02:56.000Z</time>
      </trkpt>
      <trkpt lat="45.73542" lon="4.6236">
        <ele>717.59997558594</ele>
        <time>2022-03-16T12:03:00.000Z</time>
      </trkpt>
      <trkpt lat="45.73543" lon="4.62371">
        <ele>716.79998779297</ele>
        <time>2022-03-16T12:03:03.000Z</time>
      </trkpt>
      <trkpt lat="45.73543" lon="4.62374">
        <ele>716.59997558594</ele>
        <time>2022-03-16T12:03:04.000Z</time>
      </trkpt>
      <trkpt lat="45.73544" lon="4.62384">
        <ele>715.59997558594</ele>
        <time>2022-03-16T12:03:07.000Z</time>
      </trkpt>
      <trkpt lat="45.73545" lon="4.62388">
        <ele>715.40002441406</ele>
        <time>2022-03-16T12:03:08.000Z</time>
      </trkpt>
      <trkpt lat="45.73545" lon="4.62404">
        <ele>711.79998779297</ele>
        <time>2022-03-16T12:03:11.000Z</time>
      </trkpt>
      <trkpt lat="45.73546" lon="4.62408">
        <ele>711.59997558594</ele>
        <time>2022-03-16T12:03:12.000Z</time>
      </trkpt>
      <trkpt lat="45.7355" lon="4.62432">
        <ele>708.59997558594</ele>
        <time>2022-03-16T12:03:17.000Z</time>
      </trkpt>
      <trkpt lat="45.73553" lon="4.62446">
        <ele>707</ele>
        <time>2022-03-16T12:03:20.000Z</time>
      </trkpt>
      <trkpt lat="45.73557" lon="4.62463">
        <ele>705.59997558594</ele>
        <time>2022-03-16T12:03:24.000Z</time>
      </trkpt>
      <trkpt lat="45.73564" lon="4.62488">
        <ele>703.79998779297</ele>
        <time>2022-03-16T12:03:29.000Z</time>
      </trkpt>
      <trkpt lat="45.73569" lon="4.62522">
        <ele>700.40002441406</ele>
        <time>2022-03-16T12:03:33.000Z</time>
      </trkpt>
      <trkpt lat="45.73572" lon="4.62552">
        <ele>698</ele>
        <time>2022-03-16T12:03:36.000Z</time>
      </trkpt>
      <trkpt lat="45.73576" lon="4.62571">
        <ele>697.59997558594</ele>
        <time>2022-03-16T12:03:38.000Z</time>
      </trkpt>
      <trkpt lat="45.73576" lon="4.62601">
        <ele>695</ele>
        <time>2022-03-16T12:03:41.000Z</time>
      </trkpt>
      <trkpt lat="45.73572" lon="4.62616">
        <ele>692</ele>
        <time>2022-03-16T12:03:43.000Z</time>
      </trkpt>
      <trkpt lat="45.73569" lon="4.62621">
        <ele>690.40002441406</ele>
        <time>2022-03-16T12:03:44.000Z</time>
      </trkpt>
      <trkpt lat="45.73559" lon="4.62639">
        <ele>685.59997558594</ele>
        <time>2022-03-16T12:03:49.000Z</time>
      </trkpt>
      <trkpt lat="45.73552" lon="4.62646">
        <ele>683.20001220703</ele>
        <time>2022-03-16T12:03:52.000Z</time>
      </trkpt>
      <trkpt lat="45.73552" lon="4.62651">
        <ele>682.40002441406</ele>
        <time>2022-03-16T12:03:53.000Z</time>
      </trkpt>
      <trkpt lat="45.7355" lon="4.62662">
        <ele>681</ele>
        <time>2022-03-16T12:03:55.000Z</time>
      </trkpt>
      <trkpt lat="45.73545" lon="4.62671">
        <ele>679</ele>
        <time>2022-03-16T12:03:57.000Z</time>
      </trkpt>
      <trkpt lat="45.73542" lon="4.62675">
        <ele>678</ele>
        <time>2022-03-16T12:04:00.000Z</time>
      </trkpt>
      <trkpt lat="45.73542" lon="4.62676">
        <ele>678</ele>
        <time>2022-03-16T12:04:07.000Z</time>
      </trkpt>
      <trkpt lat="45.73542" lon="4.62676">
        <ele>678</ele>
        <time>2022-03-16T12:04:27.000Z</time>
      </trkpt>
      <trkpt lat="45.73534" lon="4.62683">
        <ele>677</ele>
        <time>2022-03-16T12:04:31.000Z</time>
      </trkpt>
      <trkpt lat="45.73524" lon="4.62695">
        <ele>674.79998779297</ele>
        <time>2022-03-16T12:04:35.000Z</time>
      </trkpt>
      <trkpt lat="45.73521" lon="4.62698">
        <ele>674</ele>
        <time>2022-03-16T12:04:36.000Z</time>
      </trkpt>
      <trkpt lat="45.73512" lon="4.62702">
        <ele>672</ele>
        <time>2022-03-16T12:04:38.000Z</time>
      </trkpt>
      <trkpt lat="45.73508" lon="4.62702">
        <ele>671.20001220703</ele>
        <time>2022-03-16T12:04:39.000Z</time>
      </trkpt>
      <trkpt lat="45.73496" lon="4.627">
        <ele>669.20001220703</ele>
        <time>2022-03-16T12:04:41.000Z</time>
      </trkpt>
      <trkpt lat="45.73491" lon="4.62698">
        <ele>668.20001220703</ele>
        <time>2022-03-16T12:04:42.000Z</time>
      </trkpt>
      <trkpt lat="45.73487" lon="4.62696">
        <ele>667.20001220703</ele>
        <time>2022-03-16T12:04:43.000Z</time>
      </trkpt>
      <trkpt lat="45.73479" lon="4.62692">
        <ele>665.59997558594</ele>
        <time>2022-03-16T12:04:45.000Z</time>
      </trkpt>
      <trkpt lat="45.73469" lon="4.62696">
        <ele>663.40002441406</ele>
        <time>2022-03-16T12:04:47.000Z</time>
      </trkpt>
      <trkpt lat="45.73449" lon="4.62706">
        <ele>659.20001220703</ele>
        <time>2022-03-16T12:04:51.000Z</time>
      </trkpt>
      <trkpt lat="45.73435" lon="4.62711">
        <ele>657.59997558594</ele>
        <time>2022-03-16T12:04:53.000Z</time>
      </trkpt>
      <trkpt lat="45.73424" lon="4.62721">
        <ele>656.79998779297</ele>
        <time>2022-03-16T12:04:55.000Z</time>
      </trkpt>
      <trkpt lat="45.73405" lon="4.62732">
        <ele>653.79998779297</ele>
        <time>2022-03-16T12:04:58.000Z</time>
      </trkpt>
      <trkpt lat="45.73398" lon="4.62739">
        <ele>652.79998779297</ele>
        <time>2022-03-16T12:05:00.000Z</time>
      </trkpt>
      <trkpt lat="45.73394" lon="4.62741">
        <ele>652.40002441406</ele>
        <time>2022-03-16T12:05:01.000Z</time>
      </trkpt>
      <trkpt lat="45.73383" lon="4.62746">
        <ele>650.59997558594</ele>
        <time>2022-03-16T12:05:04.000Z</time>
      </trkpt>
      <trkpt lat="45.73371" lon="4.62751">
        <ele>650</ele>
        <time>2022-03-16T12:05:06.000Z</time>
      </trkpt>
      <trkpt lat="45.73347" lon="4.62762">
        <ele>647.79998779297</ele>
        <time>2022-03-16T12:05:10.000Z</time>
      </trkpt>
      <trkpt lat="45.73326" lon="4.62769">
        <ele>647.79998779297</ele>
        <time>2022-03-16T12:05:15.000Z</time>
      </trkpt>
      <trkpt lat="45.73314" lon="4.62776">
        <ele>647.59997558594</ele>
        <time>2022-03-16T12:05:18.000Z</time>
      </trkpt>
      <trkpt lat="45.73309" lon="4.62779">
        <ele>647.20001220703</ele>
        <time>2022-03-16T12:05:19.000Z</time>
      </trkpt>
      <trkpt lat="45.73299" lon="4.62783">
        <ele>645.79998779297</ele>
        <time>2022-03-16T12:05:21.000Z</time>
      </trkpt>
      <trkpt lat="45.7329" lon="4.62785">
        <ele>644.20001220703</ele>
        <time>2022-03-16T12:05:23.000Z</time>
      </trkpt>
      <trkpt lat="45.73274" lon="4.62789">
        <ele>641.40002441406</ele>
        <time>2022-03-16T12:05:27.000Z</time>
      </trkpt>
      <trkpt lat="45.73271" lon="4.62793">
        <ele>640.79998779297</ele>
        <time>2022-03-16T12:05:28.000Z</time>
      </trkpt>
      <trkpt lat="45.73253" lon="4.62815">
        <ele>636.59997558594</ele>
        <time>2022-03-16T12:05:33.000Z</time>
      </trkpt>
      <trkpt lat="45.73242" lon="4.62826">
        <ele>634</ele>
        <time>2022-03-16T12:05:37.000Z</time>
      </trkpt>
      <trkpt lat="45.7323" lon="4.62839">
        <ele>631.40002441406</ele>
        <time>2022-03-16T12:05:41.000Z</time>
      </trkpt>
      <trkpt lat="45.73224" lon="4.62834">
        <ele>629.40002441406</ele>
        <time>2022-03-16T12:05:43.000Z</time>
      </trkpt>
      <trkpt lat="45.73222" lon="4.62829">
        <ele>628.59997558594</ele>
        <time>2022-03-16T12:05:44.000Z</time>
      </trkpt>
      <trkpt lat="45.7322" lon="4.62822">
        <ele>627.20001220703</ele>
        <time>2022-03-16T12:05:46.000Z</time>
      </trkpt>
      <trkpt lat="45.7322" lon="4.62822">
        <ele>627.20001220703</ele>
        <time>2022-03-16T12:05:49.000Z</time>
      </trkpt>
      <trkpt lat="45.73218" lon="4.62816">
        <ele>626.40002441406</ele>
        <time>2022-03-16T12:05:51.000Z</time>
      </trkpt>
      <trkpt lat="45.73215" lon="4.62797">
        <ele>624.59997558594</ele>
        <time>2022-03-16T12:05:54.000Z</time>
      </trkpt>
      <trkpt lat="45.73208" lon="4.62759">
        <ele>620.40002441406</ele>
        <time>2022-03-16T12:06:00.000Z</time>
      </trkpt>
      <trkpt lat="45.73202" lon="4.62736">
        <ele>617.20001220703</ele>
        <time>2022-03-16T12:06:05.000Z</time>
      </trkpt>
      <trkpt lat="45.732" lon="4.62726">
        <ele>615.79998779297</ele>
        <time>2022-03-16T12:06:07.000Z</time>
      </trkpt>
      <trkpt lat="45.73198" lon="4.62723">
        <ele>615</ele>
        <time>2022-03-16T12:06:08.000Z</time>
      </trkpt>
      <trkpt lat="45.73195" lon="4.62729">
        <ele>614.40002441406</ele>
        <time>2022-03-16T12:06:11.000Z</time>
      </trkpt>
      <trkpt lat="45.7319" lon="4.62755">
        <ele>615</ele>
        <time>2022-03-16T12:06:16.000Z</time>
      </trkpt>
      <trkpt lat="45.73184" lon="4.62784">
        <ele>614.59997558594</ele>
        <time>2022-03-16T12:06:20.000Z</time>
      </trkpt>
      <trkpt lat="45.73181" lon="4.62791">
        <ele>614</ele>
        <time>2022-03-16T12:06:21.000Z</time>
      </trkpt>
      <trkpt lat="45.73167" lon="4.62831">
        <ele>610.59997558594</ele>
        <time>2022-03-16T12:06:26.000Z</time>
      </trkpt>
      <trkpt lat="45.73164" lon="4.62851">
        <ele>609.40002441406</ele>
        <time>2022-03-16T12:06:28.000Z</time>
      </trkpt>
      <trkpt lat="45.73161" lon="4.62871">
        <ele>608.59997558594</ele>
        <time>2022-03-16T12:06:30.000Z</time>
      </trkpt>
      <trkpt lat="45.73159" lon="4.62891">
        <ele>608</ele>
        <time>2022-03-16T12:06:32.000Z</time>
      </trkpt>
      <trkpt lat="45.73157" lon="4.62912">
        <ele>607</ele>
        <time>2022-03-16T12:06:34.000Z</time>
      </trkpt>
      <trkpt lat="45.73154" lon="4.62972">
        <ele>605.40002441406</ele>
        <time>2022-03-16T12:06:40.000Z</time>
      </trkpt>
      <trkpt lat="45.73154" lon="4.63008">
        <ele>603.20001220703</ele>
        <time>2022-03-16T12:06:44.000Z</time>
      </trkpt>
      <trkpt lat="45.73157" lon="4.63024">
        <ele>603.20001220703</ele>
        <time>2022-03-16T12:06:46.000Z</time>
      </trkpt>
      <trkpt lat="45.73166" lon="4.63045">
        <ele>603.59997558594</ele>
        <time>2022-03-16T12:06:49.000Z</time>
      </trkpt>
      <trkpt lat="45.7317" lon="4.63051">
        <ele>604</ele>
        <time>2022-03-16T12:06:50.000Z</time>
      </trkpt>
      <trkpt lat="45.7319" lon="4.63081">
        <ele>602.79998779297</ele>
        <time>2022-03-16T12:06:54.000Z</time>
      </trkpt>
      <trkpt lat="45.73213" lon="4.63108">
        <ele>597.59997558594</ele>
        <time>2022-03-16T12:06:58.000Z</time>
      </trkpt>
      <trkpt lat="45.73232" lon="4.63118">
        <ele>594.40002441406</ele>
        <time>2022-03-16T12:07:00.000Z</time>
      </trkpt>
      <trkpt lat="45.73249" lon="4.63126">
        <ele>593.20001220703</ele>
        <time>2022-03-16T12:07:02.000Z</time>
      </trkpt>
      <trkpt lat="45.73255" lon="4.63132">
        <ele>592.40002441406</ele>
        <time>2022-03-16T12:07:03.000Z</time>
      </trkpt>
      <trkpt lat="45.73262" lon="4.63136">
        <ele>591</ele>
        <time>2022-03-16T12:07:04.000Z</time>
      </trkpt>
      <trkpt lat="45.73275" lon="4.63145">
        <ele>588.40002441406</ele>
        <time>2022-03-16T12:07:06.000Z</time>
      </trkpt>
      <trkpt lat="45.73282" lon="4.63147">
        <ele>587.59997558594</ele>
        <time>2022-03-16T12:07:07.000Z</time>
      </trkpt>
      <trkpt lat="45.73307" lon="4.63153">
        <ele>588.59997558594</ele>
        <time>2022-03-16T12:07:10.000Z</time>
      </trkpt>
      <trkpt lat="45.73313" lon="4.63155">
        <ele>589</ele>
        <time>2022-03-16T12:07:11.000Z</time>
      </trkpt>
      <trkpt lat="45.73322" lon="4.6316">
        <ele>588.59997558594</ele>
        <time>2022-03-16T12:07:13.000Z</time>
      </trkpt>
      <trkpt lat="45.73332" lon="4.63184">
        <ele>584</ele>
        <time>2022-03-16T12:07:17.000Z</time>
      </trkpt>
      <trkpt lat="45.73335" lon="4.63191">
        <ele>582.40002441406</ele>
        <time>2022-03-16T12:07:18.000Z</time>
      </trkpt>
      <trkpt lat="45.73344" lon="4.63202">
        <ele>580.20001220703</ele>
        <time>2022-03-16T12:07:20.000Z</time>
      </trkpt>
      <trkpt lat="45.73357" lon="4.63223">
        <ele>575.79998779297</ele>
        <time>2022-03-16T12:07:24.000Z</time>
      </trkpt>
      <trkpt lat="45.73352" lon="4.63245">
        <ele>571.79998779297</ele>
        <time>2022-03-16T12:07:27.000Z</time>
      </trkpt>
      <trkpt lat="45.73344" lon="4.63253">
        <ele>569.59997558594</ele>
        <time>2022-03-16T12:07:29.000Z</time>
      </trkpt>
      <trkpt lat="45.73342" lon="4.63254">
        <ele>569.20001220703</ele>
        <time>2022-03-16T12:07:30.000Z</time>
      </trkpt>
      <trkpt lat="45.73342" lon="4.63255">
        <ele>569</ele>
        <time>2022-03-16T12:07:33.000Z</time>
      </trkpt>
      <trkpt lat="45.73339" lon="4.63255">
        <ele>568.79998779297</ele>
        <time>2022-03-16T12:07:35.000Z</time>
      </trkpt>
      <trkpt lat="45.73334" lon="4.63255">
        <ele>568.79998779297</ele>
        <time>2022-03-16T12:07:37.000Z</time>
      </trkpt>
      <trkpt lat="45.73326" lon="4.63254">
        <ele>569</ele>
        <time>2022-03-16T12:07:39.000Z</time>
      </trkpt>
      <trkpt lat="45.73321" lon="4.63253">
        <ele>569.20001220703</ele>
        <time>2022-03-16T12:07:40.000Z</time>
      </trkpt>
      <trkpt lat="45.73311" lon="4.63254">
        <ele>569.20001220703</ele>
        <time>2022-03-16T12:07:42.000Z</time>
      </trkpt>
      <trkpt lat="45.73305" lon="4.63256">
        <ele>569.40002441406</ele>
        <time>2022-03-16T12:07:43.000Z</time>
      </trkpt>
      <trkpt lat="45.73299" lon="4.6326">
        <ele>569.79998779297</ele>
        <time>2022-03-16T12:07:44.000Z</time>
      </trkpt>
      <trkpt lat="45.73289" lon="4.63269">
        <ele>569.79998779297</ele>
        <time>2022-03-16T12:07:46.000Z</time>
      </trkpt>
      <trkpt lat="45.73282" lon="4.63279">
        <ele>569.59997558594</ele>
        <time>2022-03-16T12:07:48.000Z</time>
      </trkpt>
      <trkpt lat="45.7328" lon="4.63286">
        <ele>569.20001220703</ele>
        <time>2022-03-16T12:07:49.000Z</time>
      </trkpt>
      <trkpt lat="45.73278" lon="4.63302">
        <ele>567.59997558594</ele>
        <time>2022-03-16T12:07:52.000Z</time>
      </trkpt>
      <trkpt lat="45.73279" lon="4.63309">
        <ele>567</ele>
        <time>2022-03-16T12:07:53.000Z</time>
      </trkpt>
      <trkpt lat="45.73281" lon="4.63334">
        <ele>564.59997558594</ele>
        <time>2022-03-16T12:07:56.000Z</time>
      </trkpt>
      <trkpt lat="45.73285" lon="4.63354">
        <ele>562</ele>
        <time>2022-03-16T12:07:58.000Z</time>
      </trkpt>
      <trkpt lat="45.73286" lon="4.63365">
        <ele>560.40002441406</ele>
        <time>2022-03-16T12:07:59.000Z</time>
      </trkpt>
      <trkpt lat="45.73293" lon="4.63415">
        <ele>557.40002441406</ele>
        <time>2022-03-16T12:08:03.000Z</time>
      </trkpt>
      <trkpt lat="45.73292" lon="4.63461">
        <ele>557.40002441406</ele>
        <time>2022-03-16T12:08:07.000Z</time>
      </trkpt>
      <trkpt lat="45.73291" lon="4.6347">
        <ele>557.59997558594</ele>
        <time>2022-03-16T12:08:08.000Z</time>
      </trkpt>
      <trkpt lat="45.73292" lon="4.63489">
        <ele>556.40002441406</ele>
        <time>2022-03-16T12:08:10.000Z</time>
      </trkpt>
      <trkpt lat="45.73293" lon="4.63511">
        <ele>554.40002441406</ele>
        <time>2022-03-16T12:08:12.000Z</time>
      </trkpt>
      <trkpt lat="45.73296" lon="4.63534">
        <ele>551.79998779297</ele>
        <time>2022-03-16T12:08:14.000Z</time>
      </trkpt>
      <trkpt lat="45.73303" lon="4.63586">
        <ele>548.40002441406</ele>
        <time>2022-03-16T12:08:18.000Z</time>
      </trkpt>
      <trkpt lat="45.7331" lon="4.63647">
        <ele>543</ele>
        <time>2022-03-16T12:08:23.000Z</time>
      </trkpt>
      <trkpt lat="45.73312" lon="4.63667">
        <ele>542.20001220703</ele>
        <time>2022-03-16T12:08:25.000Z</time>
      </trkpt>
      <trkpt lat="45.73313" lon="4.63674">
        <ele>541.79998779297</ele>
        <time>2022-03-16T12:08:26.000Z</time>
      </trkpt>
      <trkpt lat="45.73314" lon="4.63681">
        <ele>541.59997558594</ele>
        <time>2022-03-16T12:08:27.000Z</time>
      </trkpt>
      <trkpt lat="45.73314" lon="4.63698">
        <ele>542</ele>
        <time>2022-03-16T12:08:29.000Z</time>
      </trkpt>
      <trkpt lat="45.7332" lon="4.63723">
        <ele>541.20001220703</ele>
        <time>2022-03-16T12:08:32.000Z</time>
      </trkpt>
      <trkpt lat="45.73322" lon="4.63727">
        <ele>540.59997558594</ele>
        <time>2022-03-16T12:08:35.000Z</time>
      </trkpt>
      <trkpt lat="45.73325" lon="4.63726">
        <ele>539.59997558594</ele>
        <time>2022-03-16T12:08:47.000Z</time>
      </trkpt>
      <trkpt lat="45.73326" lon="4.6373">
        <ele>538.79998779297</ele>
        <time>2022-03-16T12:09:01.000Z</time>
      </trkpt>
      <trkpt lat="45.73329" lon="4.63744">
        <ele>536.20001220703</ele>
        <time>2022-03-16T12:09:04.000Z</time>
      </trkpt>
      <trkpt lat="45.73332" lon="4.63758">
        <ele>534.79998779297</ele>
        <time>2022-03-16T12:09:06.000Z</time>
      </trkpt>
      <trkpt lat="45.73333" lon="4.63774">
        <ele>533.40002441406</ele>
        <time>2022-03-16T12:09:08.000Z</time>
      </trkpt>
      <trkpt lat="45.73333" lon="4.63783">
        <ele>532.79998779297</ele>
        <time>2022-03-16T12:09:09.000Z</time>
      </trkpt>
      <trkpt lat="45.73336" lon="4.63809">
        <ele>531</ele>
        <time>2022-03-16T12:09:12.000Z</time>
      </trkpt>
      <trkpt lat="45.73339" lon="4.63826">
        <ele>529.20001220703</ele>
        <time>2022-03-16T12:09:14.000Z</time>
      </trkpt>
      <trkpt lat="45.73344" lon="4.63843">
        <ele>526.20001220703</ele>
        <time>2022-03-16T12:09:16.000Z</time>
      </trkpt>
      <trkpt lat="45.73347" lon="4.63852">
        <ele>524</ele>
        <time>2022-03-16T12:09:17.000Z</time>
      </trkpt>
      <trkpt lat="45.73358" lon="4.63883">
        <ele>519.59997558594</ele>
        <time>2022-03-16T12:09:20.000Z</time>
      </trkpt>
      <trkpt lat="45.73371" lon="4.63924">
        <ele>514.79998779297</ele>
        <time>2022-03-16T12:09:24.000Z</time>
      </trkpt>
      <trkpt lat="45.73374" lon="4.63932">
        <ele>513.40002441406</ele>
        <time>2022-03-16T12:09:25.000Z</time>
      </trkpt>
      <trkpt lat="45.7338" lon="4.63949">
        <ele>511</ele>
        <time>2022-03-16T12:09:27.000Z</time>
      </trkpt>
      <trkpt lat="45.73389" lon="4.63967">
        <ele>506.79998779297</ele>
        <time>2022-03-16T12:09:29.000Z</time>
      </trkpt>
      <trkpt lat="45.73408" lon="4.63999">
        <ele>499</ele>
        <time>2022-03-16T12:09:33.000Z</time>
      </trkpt>
      <trkpt lat="45.73421" lon="4.64036">
        <ele>494</ele>
        <time>2022-03-16T12:09:37.000Z</time>
      </trkpt>
      <trkpt lat="45.73433" lon="4.64054">
        <ele>490.20001220703</ele>
        <time>2022-03-16T12:09:39.000Z</time>
      </trkpt>
      <trkpt lat="45.73443" lon="4.64068">
        <ele>487</ele>
        <time>2022-03-16T12:09:41.000Z</time>
      </trkpt>
      <trkpt lat="45.7347" lon="4.64107">
        <ele>477.39999389648</ele>
        <time>2022-03-16T12:09:47.000Z</time>
      </trkpt>
      <trkpt lat="45.7348" lon="4.64121">
        <ele>473.39999389648</ele>
        <time>2022-03-16T12:09:49.000Z</time>
      </trkpt>
      <trkpt lat="45.73491" lon="4.64135">
        <ele>469</ele>
        <time>2022-03-16T12:09:51.000Z</time>
      </trkpt>
      <trkpt lat="45.73508" lon="4.64163">
        <ele>461.79998779297</ele>
        <time>2022-03-16T12:09:55.000Z</time>
      </trkpt>
      <trkpt lat="45.73512" lon="4.64169">
        <ele>460.20001220703</ele>
        <time>2022-03-16T12:09:56.000Z</time>
      </trkpt>
      <trkpt lat="45.73518" lon="4.64182">
        <ele>458.20001220703</ele>
        <time>2022-03-16T12:09:58.000Z</time>
      </trkpt>
      <trkpt lat="45.73531" lon="4.64199">
        <ele>454</ele>
        <time>2022-03-16T12:10:01.000Z</time>
      </trkpt>
      <trkpt lat="45.73543" lon="4.64219">
        <ele>450.79998779297</ele>
        <time>2022-03-16T12:10:04.000Z</time>
      </trkpt>
      <trkpt lat="45.73548" lon="4.64225">
        <ele>449.60000610352</ele>
        <time>2022-03-16T12:10:05.000Z</time>
      </trkpt>
      <trkpt lat="45.73572" lon="4.64265">
        <ele>443.60000610352</ele>
        <time>2022-03-16T12:10:10.000Z</time>
      </trkpt>
      <trkpt lat="45.73577" lon="4.64272">
        <ele>442.20001220703</ele>
        <time>2022-03-16T12:10:11.000Z</time>
      </trkpt>
      <trkpt lat="45.73584" lon="4.64282">
        <ele>440.39999389648</ele>
        <time>2022-03-16T12:10:13.000Z</time>
      </trkpt>
      <trkpt lat="45.73584" lon="4.64283">
        <ele>440.20001220703</ele>
        <time>2022-03-16T12:10:16.000Z</time>
      </trkpt>
      <trkpt lat="45.73584" lon="4.64282">
        <ele>440.20001220703</ele>
        <time>2022-03-16T12:10:26.000Z</time>
      </trkpt>
      <trkpt lat="45.73584" lon="4.64282">
        <ele>440.20001220703</ele>
        <time>2022-03-16T12:10:41.000Z</time>
      </trkpt>
      <trkpt lat="45.73589" lon="4.64294">
        <ele>439</ele>
        <time>2022-03-16T12:10:45.000Z</time>
      </trkpt>
      <trkpt lat="45.73606" lon="4.64321">
        <ele>436.20001220703</ele>
        <time>2022-03-16T12:10:49.000Z</time>
      </trkpt>
      <trkpt lat="45.73616" lon="4.64336">
        <ele>434.20001220703</ele>
        <time>2022-03-16T12:10:51.000Z</time>
      </trkpt>
      <trkpt lat="45.73619" lon="4.64344">
        <ele>433.60000610352</ele>
        <time>2022-03-16T12:10:52.000Z</time>
      </trkpt>
      <trkpt lat="45.73622" lon="4.64352">
        <ele>432.79998779297</ele>
        <time>2022-03-16T12:10:53.000Z</time>
      </trkpt>
      <trkpt lat="45.73632" lon="4.64365">
        <ele>431</ele>
        <time>2022-03-16T12:10:55.000Z</time>
      </trkpt>
      <trkpt lat="45.73651" lon="4.64392">
        <ele>426.20001220703</ele>
        <time>2022-03-16T12:10:59.000Z</time>
      </trkpt>
      <trkpt lat="45.73673" lon="4.64427">
        <ele>420.60000610352</ele>
        <time>2022-03-16T12:11:04.000Z</time>
      </trkpt>
      <trkpt lat="45.73674" lon="4.6444">
        <ele>419.39999389648</ele>
        <time>2022-03-16T12:11:06.000Z</time>
      </trkpt>
      <trkpt lat="45.73671" lon="4.64446">
        <ele>419.39999389648</ele>
        <time>2022-03-16T12:11:07.000Z</time>
      </trkpt>
      <trkpt lat="45.73655" lon="4.64468">
        <ele>418.60000610352</ele>
        <time>2022-03-16T12:11:12.000Z</time>
      </trkpt>
      <trkpt lat="45.73648" lon="4.6448">
        <ele>418.60000610352</ele>
        <time>2022-03-16T12:11:14.000Z</time>
      </trkpt>
      <trkpt lat="45.73638" lon="4.64505">
        <ele>417.60000610352</ele>
        <time>2022-03-16T12:11:17.000Z</time>
      </trkpt>
      <trkpt lat="45.73615" lon="4.64552">
        <ele>417.60000610352</ele>
        <time>2022-03-16T12:11:23.000Z</time>
      </trkpt>
      <trkpt lat="45.73612" lon="4.64561">
        <ele>417.60000610352</ele>
        <time>2022-03-16T12:11:24.000Z</time>
      </trkpt>
      <trkpt lat="45.73611" lon="4.64579">
        <ele>417</ele>
        <time>2022-03-16T12:11:26.000Z</time>
      </trkpt>
      <trkpt lat="45.73614" lon="4.64611">
        <ele>416.39999389648</ele>
        <time>2022-03-16T12:11:30.000Z</time>
      </trkpt>
      <trkpt lat="45.73615" lon="4.64619">
        <ele>416.39999389648</ele>
        <time>2022-03-16T12:11:31.000Z</time>
      </trkpt>
      <trkpt lat="45.73619" lon="4.64668">
        <ele>416.60000610352</ele>
        <time>2022-03-16T12:11:37.000Z</time>
      </trkpt>
      <trkpt lat="45.73625" lon="4.64713">
        <ele>416</ele>
        <time>2022-03-16T12:11:43.000Z</time>
      </trkpt>
      <trkpt lat="45.73625" lon="4.6474">
        <ele>415</ele>
        <time>2022-03-16T12:11:47.000Z</time>
      </trkpt>
      <trkpt lat="45.73622" lon="4.64753">
        <ele>414.39999389648</ele>
        <time>2022-03-16T12:11:49.000Z</time>
      </trkpt>
      <trkpt lat="45.73618" lon="4.64764">
        <ele>414.20001220703</ele>
        <time>2022-03-16T12:11:51.000Z</time>
      </trkpt>
      <trkpt lat="45.73612" lon="4.64778">
        <ele>413.79998779297</ele>
        <time>2022-03-16T12:11:54.000Z</time>
      </trkpt>
      <trkpt lat="45.736" lon="4.64804">
        <ele>414.79998779297</ele>
        <time>2022-03-16T12:12:00.000Z</time>
      </trkpt>
      <trkpt lat="45.73588" lon="4.64826">
        <ele>416</ele>
        <time>2022-03-16T12:12:06.000Z</time>
      </trkpt>
      <trkpt lat="45.7358" lon="4.64837">
        <ele>415.79998779297</ele>
        <time>2022-03-16T12:12:09.000Z</time>
      </trkpt>
      <trkpt lat="45.7357" lon="4.64851">
        <ele>414.79998779297</ele>
        <time>2022-03-16T12:12:12.000Z</time>
      </trkpt>
      <trkpt lat="45.73548" lon="4.64883">
        <ele>412.60000610352</ele>
        <time>2022-03-16T12:12:17.000Z</time>
      </trkpt>
      <trkpt lat="45.73528" lon="4.64907">
        <ele>410.20001220703</ele>
        <time>2022-03-16T12:12:21.000Z</time>
      </trkpt>
      <trkpt lat="45.73521" lon="4.64919">
        <ele>409.20001220703</ele>
        <time>2022-03-16T12:12:24.000Z</time>
      </trkpt>
      <trkpt lat="45.7352" lon="4.64923">
        <ele>408.79998779297</ele>
        <time>2022-03-16T12:12:27.000Z</time>
      </trkpt>
      <trkpt lat="45.7352" lon="4.64923">
        <ele>408.79998779297</ele>
        <time>2022-03-16T12:12:36.000Z</time>
      </trkpt>
      <trkpt lat="45.7352" lon="4.64924">
        <ele>408.60000610352</ele>
        <time>2022-03-16T12:12:39.000Z</time>
      </trkpt>
      <trkpt lat="45.73521" lon="4.64929">
        <ele>408</ele>
        <time>2022-03-16T12:12:41.000Z</time>
      </trkpt>
      <trkpt lat="45.73522" lon="4.64939">
        <ele>407.20001220703</ele>
        <time>2022-03-16T12:12:43.000Z</time>
      </trkpt>
      <trkpt lat="45.73524" lon="4.64954">
        <ele>405.79998779297</ele>
        <time>2022-03-16T12:12:45.000Z</time>
      </trkpt>
      <trkpt lat="45.73529" lon="4.64991">
        <ele>401.39999389648</ele>
        <time>2022-03-16T12:12:49.000Z</time>
      </trkpt>
      <trkpt lat="45.73538" lon="4.65043">
        <ele>397</ele>
        <time>2022-03-16T12:12:55.000Z</time>
      </trkpt>
      <trkpt lat="45.73545" lon="4.65084">
        <ele>392.39999389648</ele>
        <time>2022-03-16T12:12:59.000Z</time>
      </trkpt>
      <trkpt lat="45.73555" lon="4.6514">
        <ele>391.39999389648</ele>
        <time>2022-03-16T12:13:05.000Z</time>
      </trkpt>
      <trkpt lat="45.73557" lon="4.65161">
        <ele>391.39999389648</ele>
        <time>2022-03-16T12:13:07.000Z</time>
      </trkpt>
      <trkpt lat="45.73558" lon="4.65183">
        <ele>391.20001220703</ele>
        <time>2022-03-16T12:13:09.000Z</time>
      </trkpt>
      <trkpt lat="45.7356" lon="4.65199">
        <ele>390.79998779297</ele>
        <time>2022-03-16T12:13:11.000Z</time>
      </trkpt>
      <trkpt lat="45.73562" lon="4.65208">
        <ele>390.20001220703</ele>
        <time>2022-03-16T12:13:12.000Z</time>
      </trkpt>
      <trkpt lat="45.73565" lon="4.65228">
        <ele>388.79998779297</ele>
        <time>2022-03-16T12:13:15.000Z</time>
      </trkpt>
      <trkpt lat="45.73569" lon="4.65253">
        <ele>386.20001220703</ele>
        <time>2022-03-16T12:13:19.000Z</time>
      </trkpt>
      <trkpt lat="45.73568" lon="4.65262">
        <ele>385</ele>
        <time>2022-03-16T12:13:20.000Z</time>
      </trkpt>
      <trkpt lat="45.73567" lon="4.65272">
        <ele>383.79998779297</ele>
        <time>2022-03-16T12:13:21.000Z</time>
      </trkpt>
      <trkpt lat="45.73562" lon="4.65295">
        <ele>382</ele>
        <time>2022-03-16T12:13:23.000Z</time>
      </trkpt>
      <trkpt lat="45.73551" lon="4.65331">
        <ele>378.79998779297</ele>
        <time>2022-03-16T12:13:27.000Z</time>
      </trkpt>
      <trkpt lat="45.73548" lon="4.65342">
        <ele>378</ele>
        <time>2022-03-16T12:13:30.000Z</time>
      </trkpt>
      <trkpt lat="45.73549" lon="4.65343">
        <ele>378</ele>
        <time>2022-03-16T12:13:36.000Z</time>
      </trkpt>
      <trkpt lat="45.73547" lon="4.65351">
        <ele>377</ele>
        <time>2022-03-16T12:13:43.000Z</time>
      </trkpt>
      <trkpt lat="45.73545" lon="4.65355">
        <ele>377</ele>
        <time>2022-03-16T12:13:45.000Z</time>
      </trkpt>
      <trkpt lat="45.73542" lon="4.65357">
        <ele>377</ele>
        <time>2022-03-16T12:13:48.000Z</time>
      </trkpt>
      <trkpt lat="45.73535" lon="4.65357">
        <ele>377.20001220703</ele>
        <time>2022-03-16T12:13:53.000Z</time>
      </trkpt>
      <trkpt lat="45.73533" lon="4.65358">
        <ele>377.20001220703</ele>
        <time>2022-03-16T12:13:57.000Z</time>
      </trkpt>
      <trkpt lat="45.73538" lon="4.65358">
        <ele>377.20001220703</ele>
        <time>2022-03-16T12:14:00.000Z</time>
      </trkpt>
      <trkpt lat="45.73546" lon="4.65355">
        <ele>377</ele>
        <time>2022-03-16T12:14:03.000Z</time>
      </trkpt>
      <trkpt lat="45.73553" lon="4.65358">
        <ele>376.60000610352</ele>
        <time>2022-03-16T12:14:06.000Z</time>
      </trkpt>
      <trkpt lat="45.73554" lon="4.65359">
        <ele>376.60000610352</ele>
        <time>2022-03-16T12:14:07.000Z</time>
      </trkpt>
      <trkpt lat="45.73555" lon="4.65363">
        <ele>376.39999389648</ele>
        <time>2022-03-16T12:14:09.000Z</time>
      </trkpt>
      <trkpt lat="45.73556" lon="4.65364">
        <ele>376.20001220703</ele>
        <time>2022-03-16T12:14:10.000Z</time>
      </trkpt>
      <trkpt lat="45.73559" lon="4.65371">
        <ele>376</ele>
        <time>2022-03-16T12:14:14.000Z</time>
      </trkpt>
      <trkpt lat="45.73563" lon="4.65378">
        <ele>375.60000610352</ele>
        <time>2022-03-16T12:14:18.000Z</time>
      </trkpt>
      <trkpt lat="45.73563" lon="4.65379">
        <ele>375.39999389648</ele>
        <time>2022-03-16T12:14:19.000Z</time>
      </trkpt>
      <trkpt lat="45.73567" lon="4.65391">
        <ele>374.79998779297</ele>
        <time>2022-03-16T12:14:25.000Z</time>
      </trkpt>
      <trkpt lat="45.73572" lon="4.65402">
        <ele>374.60000610352</ele>
        <time>2022-03-16T12:14:31.000Z</time>
      </trkpt>
      <trkpt lat="45.73577" lon="4.65413">
        <ele>374.20001220703</ele>
        <time>2022-03-16T12:14:37.000Z</time>
      </trkpt>
      <trkpt lat="45.73584" lon="4.65422">
        <ele>373.79998779297</ele>
        <time>2022-03-16T12:14:43.000Z</time>
      </trkpt>
      <trkpt lat="45.73591" lon="4.65434">
        <ele>375</ele>
        <time>2022-03-16T12:14:51.000Z</time>
      </trkpt>
      <trkpt lat="45.73595" lon="4.65439">
        <ele>375.79998779297</ele>
        <time>2022-03-16T12:14:55.000Z</time>
      </trkpt>
      <trkpt lat="45.73596" lon="4.65442">
        <ele>376.20001220703</ele>
        <time>2022-03-16T12:14:57.000Z</time>
      </trkpt>
      <trkpt lat="45.736" lon="4.65449">
        <ele>377.20001220703</ele>
        <time>2022-03-16T12:15:02.000Z</time>
      </trkpt>
      <trkpt lat="45.73602" lon="4.65451">
        <ele>377.60000610352</ele>
        <time>2022-03-16T12:15:04.000Z</time>
      </trkpt>
      <trkpt lat="45.73604" lon="4.65455">
        <ele>378.39999389648</ele>
        <time>2022-03-16T12:15:07.000Z</time>
      </trkpt>
      <trkpt lat="45.73606" lon="4.65458">
        <ele>379</ele>
        <time>2022-03-16T12:15:10.000Z</time>
      </trkpt>
      <trkpt lat="45.7361" lon="4.65465">
        <ele>380.60000610352</ele>
        <time>2022-03-16T12:15:16.000Z</time>
      </trkpt>
      <trkpt lat="45.73612" lon="4.65468">
        <ele>381</ele>
        <time>2022-03-16T12:15:18.000Z</time>
      </trkpt>
      <trkpt lat="45.73612" lon="4.65472">
        <ele>381.79998779297</ele>
        <time>2022-03-16T12:15:20.000Z</time>
      </trkpt>
      <trkpt lat="45.73613" lon="4.65473">
        <ele>382</ele>
        <time>2022-03-16T12:15:21.000Z</time>
      </trkpt>
      <trkpt lat="45.73617" lon="4.65479">
        <ele>383.39999389648</ele>
        <time>2022-03-16T12:15:27.000Z</time>
      </trkpt>
      <trkpt lat="45.73621" lon="4.65483">
        <ele>384.39999389648</ele>
        <time>2022-03-16T12:15:33.000Z</time>
      </trkpt>
      <trkpt lat="45.73625" lon="4.65489">
        <ele>385.60000610352</ele>
        <time>2022-03-16T12:15:40.000Z</time>
      </trkpt>
      <trkpt lat="45.73628" lon="4.65494">
        <ele>386.79998779297</ele>
        <time>2022-03-16T12:15:46.000Z</time>
      </trkpt>
      <trkpt lat="45.73631" lon="4.65498">
        <ele>387.60000610352</ele>
        <time>2022-03-16T12:15:53.000Z</time>
      </trkpt>
      <trkpt lat="45.73637" lon="4.65507">
        <ele>389.20001220703</ele>
        <time>2022-03-16T12:16:01.000Z</time>
      </trkpt>
      <trkpt lat="45.73643" lon="4.65514">
        <ele>390.39999389648</ele>
        <time>2022-03-16T12:16:09.000Z</time>
      </trkpt>
      <trkpt lat="45.73648" lon="4.65527">
        <ele>391.60000610352</ele>
        <time>2022-03-16T12:16:18.000Z</time>
      </trkpt>
      <trkpt lat="45.73648" lon="4.6553">
        <ele>391.79998779297</ele>
        <time>2022-03-16T12:16:25.000Z</time>
      </trkpt>
      <trkpt lat="45.73649" lon="4.65533">
        <ele>392</ele>
        <time>2022-03-16T12:16:32.000Z</time>
      </trkpt>
      <trkpt lat="45.7365" lon="4.65534">
        <ele>392.20001220703</ele>
        <time>2022-03-16T12:16:33.000Z</time>
      </trkpt>
      <trkpt lat="45.73656" lon="4.65538">
        <ele>392.39999389648</ele>
        <time>2022-03-16T12:16:38.000Z</time>
      </trkpt>
      <trkpt lat="45.7366" lon="4.65543">
        <ele>392.79998779297</ele>
        <time>2022-03-16T12:16:43.000Z</time>
      </trkpt>
      <trkpt lat="45.73662" lon="4.65546">
        <ele>393</ele>
        <time>2022-03-16T12:16:45.000Z</time>
      </trkpt>
      <trkpt lat="45.73666" lon="4.65551">
        <ele>393.39999389648</ele>
        <time>2022-03-16T12:16:51.000Z</time>
      </trkpt>
      <trkpt lat="45.73671" lon="4.65559">
        <ele>393.79998779297</ele>
        <time>2022-03-16T12:16:57.000Z</time>
      </trkpt>
      <trkpt lat="45.73674" lon="4.65559">
        <ele>394</ele>
        <time>2022-03-16T12:17:00.000Z</time>
      </trkpt>
      <trkpt lat="45.73677" lon="4.65556">
        <ele>393.79998779297</ele>
        <time>2022-03-16T12:17:02.000Z</time>
      </trkpt>
      <trkpt lat="45.73688" lon="4.65553">
        <ele>394</ele>
        <time>2022-03-16T12:17:08.000Z</time>
      </trkpt>
      <trkpt lat="45.737" lon="4.65544">
        <ele>393.79998779297</ele>
        <time>2022-03-16T12:17:13.000Z</time>
      </trkpt>
      <trkpt lat="45.73716" lon="4.65532">
        <ele>394.60000610352</ele>
        <time>2022-03-16T12:17:19.000Z</time>
      </trkpt>
      <trkpt lat="45.73729" lon="4.65526">
        <ele>396</ele>
        <time>2022-03-16T12:17:23.000Z</time>
      </trkpt>
      <trkpt lat="45.7373" lon="4.65526">
        <ele>396.20001220703</ele>
        <time>2022-03-16T12:17:27.000Z</time>
      </trkpt>
      <trkpt lat="45.7373" lon="4.65527">
        <ele>396.39999389648</ele>
        <time>2022-03-16T12:17:31.000Z</time>
      </trkpt>
    </trkseg>
  </trk>
</gpx>